<?xml version="1.0" encoding="UTF-8" standalone="no" ?>
<gpx xmlns="http://www.topografix.com/GPX/1/1" creator="www.cicloide.com" version="1.1" xmlns:xsi="http://www.w3.org/2001/XMLSchema-instance" xsi:schemaLocation="http://www.topografix.com/GPX/1/1 http://www.topografix.com/GPX/1/1/gpx.xsd">
  <trk>
    <name>www.cicloide.com 14365</name>
    <desc>www.cicloide.com 14365</desc>
    <trkseg>
      <trkpt lat="41.605787711" lon="2.540355889">
        <ele>117.42</ele>
        <time>2013-06-30T07:38:06Z</time>
      </trkpt>
      <trkpt lat="41.605857449" lon="2.540385980">
        <ele>117.42</ele>
        <time>2013-06-30T07:38:12Z</time>
      </trkpt>
      <trkpt lat="41.605886450" lon="2.540379442">
        <ele>117.90</ele>
        <time>2013-06-30T07:38:14Z</time>
      </trkpt>
      <trkpt lat="41.606068505" lon="2.540370138">
        <ele>117.90</ele>
        <time>2013-06-30T07:38:20Z</time>
      </trkpt>
      <trkpt lat="41.606233293" lon="2.540411126">
        <ele>117.90</ele>
        <time>2013-06-30T07:38:26Z</time>
      </trkpt>
      <trkpt lat="41.606469914" lon="2.540511122">
        <ele>118.38</ele>
        <time>2013-06-30T07:38:37Z</time>
      </trkpt>
      <trkpt lat="41.606661860" lon="2.540602652">
        <ele>119.34</ele>
        <time>2013-06-30T07:38:46Z</time>
      </trkpt>
      <trkpt lat="41.606888171" lon="2.540722178">
        <ele>119.34</ele>
        <time>2013-06-30T07:38:55Z</time>
      </trkpt>
      <trkpt lat="41.607042650" lon="2.540766435">
        <ele>119.82</ele>
        <time>2013-06-30T07:39:01Z</time>
      </trkpt>
      <trkpt lat="41.607256975" lon="2.540825695">
        <ele>120.78</ele>
        <time>2013-06-30T07:39:09Z</time>
      </trkpt>
      <trkpt lat="41.607477922" lon="2.540854445">
        <ele>121.26</ele>
        <time>2013-06-30T07:39:18Z</time>
      </trkpt>
      <trkpt lat="41.607687637" lon="2.540847153">
        <ele>121.74</ele>
        <time>2013-06-30T07:39:27Z</time>
      </trkpt>
      <trkpt lat="41.607828705" lon="2.540810272">
        <ele>122.22</ele>
        <time>2013-06-30T07:39:33Z</time>
      </trkpt>
      <trkpt lat="41.607905315" lon="2.540799292">
        <ele>122.22</ele>
        <time>2013-06-30T07:39:36Z</time>
      </trkpt>
      <trkpt lat="41.608083263" lon="2.540788982">
        <ele>122.71</ele>
        <time>2013-06-30T07:39:43Z</time>
      </trkpt>
      <trkpt lat="41.608256852" lon="2.540764339">
        <ele>123.19</ele>
        <time>2013-06-30T07:39:50Z</time>
      </trkpt>
      <trkpt lat="41.608460616" lon="2.540716982">
        <ele>124.15</ele>
        <time>2013-06-30T07:39:58Z</time>
      </trkpt>
      <trkpt lat="41.608656585" lon="2.540676413">
        <ele>124.63</ele>
        <time>2013-06-30T07:40:06Z</time>
      </trkpt>
      <trkpt lat="41.608828079" lon="2.540642299">
        <ele>125.11</ele>
        <time>2013-06-30T07:40:13Z</time>
      </trkpt>
      <trkpt lat="41.609007033" lon="2.540616650">
        <ele>126.07</ele>
        <time>2013-06-30T07:40:20Z</time>
      </trkpt>
      <trkpt lat="41.609209959" lon="2.540600473">
        <ele>126.07</ele>
        <time>2013-06-30T07:40:28Z</time>
      </trkpt>
      <trkpt lat="41.609346919" lon="2.540584296">
        <ele>127.03</ele>
        <time>2013-06-30T07:40:34Z</time>
      </trkpt>
      <trkpt lat="41.609493351" lon="2.540547583">
        <ele>127.03</ele>
        <time>2013-06-30T07:40:40Z</time>
      </trkpt>
      <trkpt lat="41.609654451" lon="2.540515984">
        <ele>127.51</ele>
        <time>2013-06-30T07:40:46Z</time>
      </trkpt>
      <trkpt lat="41.609862909" lon="2.540462256">
        <ele>128.47</ele>
        <time>2013-06-30T07:40:53Z</time>
      </trkpt>
      <trkpt lat="41.610066002" lon="2.540371899">
        <ele>128.95</ele>
        <time>2013-06-30T07:41:01Z</time>
      </trkpt>
      <trkpt lat="41.610270521" lon="2.540271567">
        <ele>129.92</ele>
        <time>2013-06-30T07:41:09Z</time>
      </trkpt>
      <trkpt lat="41.610476213" lon="2.540161178">
        <ele>130.40</ele>
        <time>2013-06-30T07:41:17Z</time>
      </trkpt>
      <trkpt lat="41.610703949" lon="2.540056655">
        <ele>131.36</ele>
        <time>2013-06-30T07:41:26Z</time>
      </trkpt>
      <trkpt lat="41.610920789" lon="2.539941823">
        <ele>131.84</ele>
        <time>2013-06-30T07:41:34Z</time>
      </trkpt>
      <trkpt lat="41.611100665" lon="2.539855322">
        <ele>132.80</ele>
        <time>2013-06-30T07:41:41Z</time>
      </trkpt>
      <trkpt lat="41.611276182" lon="2.539765300">
        <ele>133.28</ele>
        <time>2013-06-30T07:41:48Z</time>
      </trkpt>
      <trkpt lat="41.611477766" lon="2.539606715">
        <ele>134.24</ele>
        <time>2013-06-30T07:41:56Z</time>
      </trkpt>
      <trkpt lat="41.611654122" lon="2.539432539">
        <ele>134.72</ele>
        <time>2013-06-30T07:42:03Z</time>
      </trkpt>
      <trkpt lat="41.611785298" lon="2.539266745">
        <ele>135.68</ele>
        <time>2013-06-30T07:42:09Z</time>
      </trkpt>
      <trkpt lat="41.611946818" lon="2.539081924">
        <ele>136.16</ele>
        <time>2013-06-30T07:42:17Z</time>
      </trkpt>
      <trkpt lat="41.612061314" lon="2.538902970">
        <ele>137.61</ele>
        <time>2013-06-30T07:42:24Z</time>
      </trkpt>
      <trkpt lat="41.612204645" lon="2.538624188">
        <ele>138.09</ele>
        <time>2013-06-30T07:42:32Z</time>
      </trkpt>
      <trkpt lat="41.612441182" lon="2.538321015">
        <ele>139.05</ele>
        <time>2013-06-30T07:42:42Z</time>
      </trkpt>
      <trkpt lat="41.612599516" lon="2.538107863">
        <ele>140.01</ele>
        <time>2013-06-30T07:42:50Z</time>
      </trkpt>
      <trkpt lat="41.612766149" lon="2.537894795">
        <ele>140.49</ele>
        <time>2013-06-30T07:42:58Z</time>
      </trkpt>
      <trkpt lat="41.612965554" lon="2.537651636">
        <ele>141.45</ele>
        <time>2013-06-30T07:43:07Z</time>
      </trkpt>
      <trkpt lat="41.613144089" lon="2.537443765">
        <ele>141.93</ele>
        <time>2013-06-30T07:43:15Z</time>
      </trkpt>
      <trkpt lat="41.613295131" lon="2.537280988">
        <ele>142.89</ele>
        <time>2013-06-30T07:43:22Z</time>
      </trkpt>
      <trkpt lat="41.613504091" lon="2.537011007">
        <ele>143.85</ele>
        <time>2013-06-30T07:43:32Z</time>
      </trkpt>
      <trkpt lat="41.613609284" lon="2.536827946">
        <ele>144.34</ele>
        <time>2013-06-30T07:43:40Z</time>
      </trkpt>
      <trkpt lat="41.613654630" lon="2.536747228">
        <ele>144.34</ele>
        <time>2013-06-30T07:43:44Z</time>
      </trkpt>
      <trkpt lat="41.613647087" lon="2.536576992">
        <ele>145.30</ele>
        <time>2013-06-30T07:43:50Z</time>
      </trkpt>
      <trkpt lat="41.613695869" lon="2.536399715">
        <ele>145.78</ele>
        <time>2013-06-30T07:43:58Z</time>
      </trkpt>
      <trkpt lat="41.613782454" lon="2.536174409">
        <ele>146.26</ele>
        <time>2013-06-30T07:44:06Z</time>
      </trkpt>
      <trkpt lat="41.613841547" lon="2.536015824">
        <ele>146.26</ele>
        <time>2013-06-30T07:44:12Z</time>
      </trkpt>
      <trkpt lat="41.613940286" lon="2.535785740">
        <ele>147.70</ele>
        <time>2013-06-30T07:44:20Z</time>
      </trkpt>
      <trkpt lat="41.614007760" lon="2.535563788">
        <ele>148.66</ele>
        <time>2013-06-30T07:44:27Z</time>
      </trkpt>
      <trkpt lat="41.614087891" lon="2.535261033">
        <ele>149.14</ele>
        <time>2013-06-30T07:44:36Z</time>
      </trkpt>
      <trkpt lat="41.614153857" lon="2.535052324">
        <ele>150.10</ele>
        <time>2013-06-30T07:44:43Z</time>
      </trkpt>
      <trkpt lat="41.614257122" lon="2.534735572">
        <ele>151.06</ele>
        <time>2013-06-30T07:44:53Z</time>
      </trkpt>
      <trkpt lat="41.614344545" lon="2.534483528">
        <ele>152.03</ele>
        <time>2013-06-30T07:45:01Z</time>
      </trkpt>
      <trkpt lat="41.614419479" lon="2.534183623">
        <ele>152.99</ele>
        <time>2013-06-30T07:45:10Z</time>
      </trkpt>
      <trkpt lat="41.614499191" lon="2.533933256">
        <ele>153.95</ele>
        <time>2013-06-30T07:45:18Z</time>
      </trkpt>
      <trkpt lat="41.614578484" lon="2.533674171">
        <ele>154.91</ele>
        <time>2013-06-30T07:45:26Z</time>
      </trkpt>
      <trkpt lat="41.614673032" lon="2.533372339">
        <ele>155.87</ele>
        <time>2013-06-30T07:45:35Z</time>
      </trkpt>
      <trkpt lat="41.614758443" lon="2.533091629">
        <ele>156.35</ele>
        <time>2013-06-30T07:45:43Z</time>
      </trkpt>
      <trkpt lat="41.614850393" lon="2.532777140">
        <ele>157.31</ele>
        <time>2013-06-30T07:45:52Z</time>
      </trkpt>
      <trkpt lat="41.614944605" lon="2.532476062">
        <ele>158.27</ele>
        <time>2013-06-30T07:46:01Z</time>
      </trkpt>
      <trkpt lat="41.615025826" lon="2.532165680">
        <ele>159.24</ele>
        <time>2013-06-30T07:46:10Z</time>
      </trkpt>
      <trkpt lat="41.615063712" lon="2.531875080">
        <ele>160.20</ele>
        <time>2013-06-30T07:46:18Z</time>
      </trkpt>
      <trkpt lat="41.615085254" lon="2.531441148">
        <ele>161.16</ele>
        <time>2013-06-30T07:46:29Z</time>
      </trkpt>
      <trkpt lat="41.615114255" lon="2.531092042">
        <ele>162.12</ele>
        <time>2013-06-30T07:46:38Z</time>
      </trkpt>
      <trkpt lat="41.615138395" lon="2.530740170">
        <ele>163.08</ele>
        <time>2013-06-30T07:46:47Z</time>
      </trkpt>
      <trkpt lat="41.615162283" lon="2.530435236">
        <ele>164.52</ele>
        <time>2013-06-30T07:46:55Z</time>
      </trkpt>
      <trkpt lat="41.615163876" lon="2.530208841">
        <ele>165.00</ele>
        <time>2013-06-30T07:47:01Z</time>
      </trkpt>
      <trkpt lat="41.615166893" lon="2.529944476">
        <ele>165.96</ele>
        <time>2013-06-30T07:47:08Z</time>
      </trkpt>
      <trkpt lat="41.615170414" lon="2.529606518">
        <ele>166.93</ele>
        <time>2013-06-30T07:47:17Z</time>
      </trkpt>
      <trkpt lat="41.615175694" lon="2.529249616">
        <ele>168.37</ele>
        <time>2013-06-30T07:47:26Z</time>
      </trkpt>
      <trkpt lat="41.615206037" lon="2.528967900">
        <ele>169.33</ele>
        <time>2013-06-30T07:47:33Z</time>
      </trkpt>
      <trkpt lat="41.615268817" lon="2.528634301">
        <ele>169.81</ele>
        <time>2013-06-30T07:47:41Z</time>
      </trkpt>
      <trkpt lat="41.615347523" lon="2.528234149">
        <ele>170.77</ele>
        <time>2013-06-30T07:47:51Z</time>
      </trkpt>
      <trkpt lat="41.615388343" lon="2.527988056">
        <ele>170.77</ele>
        <time>2013-06-30T07:47:57Z</time>
      </trkpt>
      <trkpt lat="41.615455650" lon="2.527594777">
        <ele>172.69</ele>
        <time>2013-06-30T07:48:07Z</time>
      </trkpt>
      <trkpt lat="41.615503092" lon="2.527297806">
        <ele>173.66</ele>
        <time>2013-06-30T07:48:15Z</time>
      </trkpt>
      <trkpt lat="41.615540810" lon="2.527036794">
        <ele>174.62</ele>
        <time>2013-06-30T07:48:22Z</time>
      </trkpt>
      <trkpt lat="41.615568722" lon="2.526774692">
        <ele>176.06</ele>
        <time>2013-06-30T07:48:29Z</time>
      </trkpt>
      <trkpt lat="41.615548186" lon="2.526433464">
        <ele>177.50</ele>
        <time>2013-06-30T07:48:38Z</time>
      </trkpt>
      <trkpt lat="41.615516167" lon="2.526068265">
        <ele>178.46</ele>
        <time>2013-06-30T07:48:47Z</time>
      </trkpt>
      <trkpt lat="41.615508540" lon="2.525695019">
        <ele>179.42</ele>
        <time>2013-06-30T07:48:56Z</time>
      </trkpt>
      <trkpt lat="41.615511306" lon="2.525372231">
        <ele>180.38</ele>
        <time>2013-06-30T07:49:04Z</time>
      </trkpt>
      <trkpt lat="41.615514659" lon="2.525008289">
        <ele>181.83</ele>
        <time>2013-06-30T07:49:13Z</time>
      </trkpt>
      <trkpt lat="41.615537038" lon="2.524631942">
        <ele>182.79</ele>
        <time>2013-06-30T07:49:23Z</time>
      </trkpt>
      <trkpt lat="41.615571907" lon="2.524322063">
        <ele>184.23</ele>
        <time>2013-06-30T07:49:31Z</time>
      </trkpt>
      <trkpt lat="41.615611050" lon="2.523997767">
        <ele>186.15</ele>
        <time>2013-06-30T07:49:40Z</time>
      </trkpt>
      <trkpt lat="41.615622450" lon="2.523717728">
        <ele>187.59</ele>
        <time>2013-06-30T07:49:47Z</time>
      </trkpt>
      <trkpt lat="41.615666455" lon="2.523346325">
        <ele>188.08</ele>
        <time>2013-06-30T07:49:56Z</time>
      </trkpt>
      <trkpt lat="41.615712807" lon="2.523001410">
        <ele>189.04</ele>
        <time>2013-06-30T07:50:05Z</time>
      </trkpt>
      <trkpt lat="41.615737030" lon="2.522792366">
        <ele>190.48</ele>
        <time>2013-06-30T07:50:11Z</time>
      </trkpt>
      <trkpt lat="41.615763182" lon="2.522615340">
        <ele>190.48</ele>
        <time>2013-06-30T07:50:16Z</time>
      </trkpt>
      <trkpt lat="41.615809785" lon="2.522273442">
        <ele>191.92</ele>
        <time>2013-06-30T07:50:24Z</time>
      </trkpt>
      <trkpt lat="41.615867201" lon="2.521913355">
        <ele>193.36</ele>
        <time>2013-06-30T07:50:33Z</time>
      </trkpt>
      <trkpt lat="41.615916487" lon="2.521579923">
        <ele>193.36</ele>
        <time>2013-06-30T07:50:40Z</time>
      </trkpt>
      <trkpt lat="41.615947081" lon="2.521281611">
        <ele>194.32</ele>
        <time>2013-06-30T07:50:47Z</time>
      </trkpt>
      <trkpt lat="41.616004413" lon="2.520985730">
        <ele>194.80</ele>
        <time>2013-06-30T07:50:54Z</time>
      </trkpt>
      <trkpt lat="41.616088148" lon="2.520657243">
        <ele>195.28</ele>
        <time>2013-06-30T07:51:02Z</time>
      </trkpt>
      <trkpt lat="41.616161741" lon="2.520422801">
        <ele>195.77</ele>
        <time>2013-06-30T07:51:08Z</time>
      </trkpt>
      <trkpt lat="41.616244303" lon="2.520199675">
        <ele>196.73</ele>
        <time>2013-06-30T07:51:14Z</time>
      </trkpt>
      <trkpt lat="41.616339857" lon="2.520055506">
        <ele>196.73</ele>
        <time>2013-06-30T07:51:19Z</time>
      </trkpt>
      <trkpt lat="41.616525851" lon="2.519890048">
        <ele>195.28</ele>
        <time>2013-06-30T07:51:24Z</time>
      </trkpt>
      <trkpt lat="41.616771357" lon="2.519758117">
        <ele>197.21</ele>
        <time>2013-06-30T07:51:33Z</time>
      </trkpt>
      <trkpt lat="41.616999848" lon="2.519701539">
        <ele>198.17</ele>
        <time>2013-06-30T07:51:41Z</time>
      </trkpt>
      <trkpt lat="41.617369238" lon="2.519647392">
        <ele>199.61</ele>
        <time>2013-06-30T07:51:54Z</time>
      </trkpt>
      <trkpt lat="41.617615080" lon="2.519629203">
        <ele>201.05</ele>
        <time>2013-06-30T07:52:03Z</time>
      </trkpt>
      <trkpt lat="41.617751537" lon="2.519624090">
        <ele>202.01</ele>
        <time>2013-06-30T07:52:08Z</time>
      </trkpt>
      <trkpt lat="41.617808618" lon="2.519611852">
        <ele>202.01</ele>
        <time>2013-06-30T07:52:14Z</time>
      </trkpt>
      <trkpt lat="41.617809205" lon="2.519641189">
        <ele>202.49</ele>
        <time>2013-06-30T07:52:23Z</time>
      </trkpt>
      <trkpt lat="41.617811132" lon="2.519680081">
        <ele>202.98</ele>
        <time>2013-06-30T07:52:31Z</time>
      </trkpt>
      <trkpt lat="41.617810965" lon="2.519686116">
        <ele>202.98</ele>
        <time>2013-06-30T07:52:34Z</time>
      </trkpt>
      <trkpt lat="41.617825885" lon="2.519715788">
        <ele>202.98</ele>
        <time>2013-06-30T07:52:36Z</time>
      </trkpt>
      <trkpt lat="41.617895873" lon="2.519801200">
        <ele>203.46</ele>
        <time>2013-06-30T07:52:43Z</time>
      </trkpt>
      <trkpt lat="41.617902747" lon="2.519911254">
        <ele>204.42</ele>
        <time>2013-06-30T07:52:49Z</time>
      </trkpt>
      <trkpt lat="41.617845247" lon="2.520051818">
        <ele>205.38</ele>
        <time>2013-06-30T07:52:57Z</time>
      </trkpt>
      <trkpt lat="41.617731085" lon="2.520150725">
        <ele>207.78</ele>
        <time>2013-06-30T07:53:06Z</time>
      </trkpt>
      <trkpt lat="41.617686745" lon="2.520293804">
        <ele>209.22</ele>
        <time>2013-06-30T07:53:14Z</time>
      </trkpt>
      <trkpt lat="41.617693199" lon="2.520480553">
        <ele>211.15</ele>
        <time>2013-06-30T07:53:23Z</time>
      </trkpt>
      <trkpt lat="41.617654391" lon="2.520700494">
        <ele>211.63</ele>
        <time>2013-06-30T07:53:32Z</time>
      </trkpt>
      <trkpt lat="41.617705939" lon="2.520941977">
        <ele>212.59</ele>
        <time>2013-06-30T07:53:42Z</time>
      </trkpt>
      <trkpt lat="41.617763020" lon="2.521153033">
        <ele>213.07</ele>
        <time>2013-06-30T07:53:50Z</time>
      </trkpt>
      <trkpt lat="41.617822532" lon="2.521371549">
        <ele>214.99</ele>
        <time>2013-06-30T07:53:58Z</time>
      </trkpt>
      <trkpt lat="41.617862346" lon="2.521506582">
        <ele>215.47</ele>
        <time>2013-06-30T07:54:03Z</time>
      </trkpt>
      <trkpt lat="41.617899981" lon="2.521617139">
        <ele>216.91</ele>
        <time>2013-06-30T07:54:08Z</time>
      </trkpt>
      <trkpt lat="41.617977597" lon="2.521615965">
        <ele>217.88</ele>
        <time>2013-06-30T07:54:14Z</time>
      </trkpt>
      <trkpt lat="41.618007017" lon="2.521542959">
        <ele>218.84</ele>
        <time>2013-06-30T07:54:18Z</time>
      </trkpt>
      <trkpt lat="41.618077425" lon="2.521381691">
        <ele>221.24</ele>
        <time>2013-06-30T07:54:28Z</time>
      </trkpt>
      <trkpt lat="41.618169375" lon="2.521228973">
        <ele>223.16</ele>
        <time>2013-06-30T07:54:38Z</time>
      </trkpt>
      <trkpt lat="41.618238861" lon="2.521096455">
        <ele>224.61</ele>
        <time>2013-06-30T07:54:46Z</time>
      </trkpt>
      <trkpt lat="41.618289404" lon="2.520898391">
        <ele>227.01</ele>
        <time>2013-06-30T07:54:57Z</time>
      </trkpt>
      <trkpt lat="41.618316561" lon="2.520781715">
        <ele>227.97</ele>
        <time>2013-06-30T07:55:03Z</time>
      </trkpt>
      <trkpt lat="41.618415049" lon="2.520631259">
        <ele>229.89</ele>
        <time>2013-06-30T07:55:13Z</time>
      </trkpt>
      <trkpt lat="41.618568102" lon="2.520596558">
        <ele>231.33</ele>
        <time>2013-06-30T07:55:24Z</time>
      </trkpt>
      <trkpt lat="41.618694669" lon="2.520570910">
        <ele>232.78</ele>
        <time>2013-06-30T07:55:33Z</time>
      </trkpt>
      <trkpt lat="41.618808914" lon="2.520536712">
        <ele>233.74</ele>
        <time>2013-06-30T07:55:41Z</time>
      </trkpt>
      <trkpt lat="41.618936319" lon="2.520474099">
        <ele>235.66</ele>
        <time>2013-06-30T07:55:50Z</time>
      </trkpt>
      <trkpt lat="41.619061964" lon="2.520409307">
        <ele>237.58</ele>
        <time>2013-06-30T07:55:59Z</time>
      </trkpt>
      <trkpt lat="41.619192973" lon="2.520341246">
        <ele>239.51</ele>
        <time>2013-06-30T07:56:08Z</time>
      </trkpt>
      <trkpt lat="41.619333286" lon="2.520314004">
        <ele>241.43</ele>
        <time>2013-06-30T07:56:18Z</time>
      </trkpt>
      <trkpt lat="41.619474270" lon="2.520365302">
        <ele>243.83</ele>
        <time>2013-06-30T07:56:29Z</time>
      </trkpt>
      <trkpt lat="41.619581307" lon="2.520360943">
        <ele>245.27</ele>
        <time>2013-06-30T07:56:37Z</time>
      </trkpt>
      <trkpt lat="41.619727571" lon="2.520305120">
        <ele>247.68</ele>
        <time>2013-06-30T07:56:48Z</time>
      </trkpt>
      <trkpt lat="41.619864280" lon="2.520262372">
        <ele>249.60</ele>
        <time>2013-06-30T07:56:58Z</time>
      </trkpt>
      <trkpt lat="41.619975424" lon="2.520194562">
        <ele>252.00</ele>
        <time>2013-06-30T07:57:08Z</time>
      </trkpt>
      <trkpt lat="41.620098973" lon="2.520132788">
        <ele>253.44</ele>
        <time>2013-06-30T07:57:18Z</time>
      </trkpt>
      <trkpt lat="41.620228976" lon="2.520130776">
        <ele>254.89</ele>
        <time>2013-06-30T07:57:28Z</time>
      </trkpt>
      <trkpt lat="41.620368116" lon="2.520164890">
        <ele>256.33</ele>
        <time>2013-06-30T07:57:38Z</time>
      </trkpt>
      <trkpt lat="41.620432321" lon="2.520182157">
        <ele>256.81</ele>
        <time>2013-06-30T07:57:43Z</time>
      </trkpt>
      <trkpt lat="41.620554613" lon="2.520198921">
        <ele>258.25</ele>
        <time>2013-06-30T07:57:52Z</time>
      </trkpt>
      <trkpt lat="41.620567857" lon="2.520199340">
        <ele>258.25</ele>
        <time>2013-06-30T07:57:53Z</time>
      </trkpt>
      <trkpt lat="41.620728454" lon="2.520216774">
        <ele>260.17</ele>
        <time>2013-06-30T07:58:04Z</time>
      </trkpt>
      <trkpt lat="41.620850830" lon="2.520232281">
        <ele>262.10</ele>
        <time>2013-06-30T07:58:13Z</time>
      </trkpt>
      <trkpt lat="41.620902881" lon="2.520247452">
        <ele>262.58</ele>
        <time>2013-06-30T07:58:17Z</time>
      </trkpt>
      <trkpt lat="41.621055935" lon="2.520286512">
        <ele>264.02</ele>
        <time>2013-06-30T07:58:28Z</time>
      </trkpt>
      <trkpt lat="41.621181579" lon="2.520301096">
        <ele>265.94</ele>
        <time>2013-06-30T07:58:37Z</time>
      </trkpt>
      <trkpt lat="41.621323569" lon="2.520309562">
        <ele>267.38</ele>
        <time>2013-06-30T07:58:47Z</time>
      </trkpt>
      <trkpt lat="41.621472683" lon="2.520346945">
        <ele>269.79</ele>
        <time>2013-06-30T07:58:58Z</time>
      </trkpt>
      <trkpt lat="41.621596987" lon="2.520385670">
        <ele>270.75</ele>
        <time>2013-06-30T07:59:07Z</time>
      </trkpt>
      <trkpt lat="41.621707209" lon="2.520409893">
        <ele>273.63</ele>
        <time>2013-06-30T07:59:16Z</time>
      </trkpt>
      <trkpt lat="41.621823466" lon="2.520446858">
        <ele>276.04</ele>
        <time>2013-06-30T07:59:25Z</time>
      </trkpt>
      <trkpt lat="41.621961096" lon="2.520473344">
        <ele>278.44</ele>
        <time>2013-06-30T07:59:35Z</time>
      </trkpt>
      <trkpt lat="41.622076599" lon="2.520466304">
        <ele>280.36</ele>
        <time>2013-06-30T07:59:43Z</time>
      </trkpt>
      <trkpt lat="41.622197382" lon="2.520429758">
        <ele>281.80</ele>
        <time>2013-06-30T07:59:51Z</time>
      </trkpt>
      <trkpt lat="41.622209955" lon="2.520424310">
        <ele>282.28</ele>
        <time>2013-06-30T07:59:52Z</time>
      </trkpt>
      <trkpt lat="41.622332666" lon="2.520392124">
        <ele>283.73</ele>
        <time>2013-06-30T08:00:01Z</time>
      </trkpt>
      <trkpt lat="41.622424364" lon="2.520385083">
        <ele>285.17</ele>
        <time>2013-06-30T08:00:08Z</time>
      </trkpt>
      <trkpt lat="41.622469710" lon="2.520491030">
        <ele>286.13</ele>
        <time>2013-06-30T08:00:16Z</time>
      </trkpt>
      <trkpt lat="41.622384299" lon="2.520543333">
        <ele>287.57</ele>
        <time>2013-06-30T08:00:23Z</time>
      </trkpt>
      <trkpt lat="41.622296121" lon="2.520586668">
        <ele>288.53</ele>
        <time>2013-06-30T08:00:30Z</time>
      </trkpt>
      <trkpt lat="41.622155389" lon="2.520692112">
        <ele>290.94</ele>
        <time>2013-06-30T08:00:42Z</time>
      </trkpt>
      <trkpt lat="41.622055812" lon="2.520766711">
        <ele>292.38</ele>
        <time>2013-06-30T08:00:50Z</time>
      </trkpt>
      <trkpt lat="41.621931173" lon="2.520859918">
        <ele>294.30</ele>
        <time>2013-06-30T08:01:00Z</time>
      </trkpt>
      <trkpt lat="41.621843750" lon="2.520944491">
        <ele>295.26</ele>
        <time>2013-06-30T08:01:07Z</time>
      </trkpt>
      <trkpt lat="41.621722715" lon="2.521003332">
        <ele>296.22</ele>
        <time>2013-06-30T08:01:15Z</time>
      </trkpt>
      <trkpt lat="41.621606123" lon="2.520992519">
        <ele>296.70</ele>
        <time>2013-06-30T08:01:23Z</time>
      </trkpt>
      <trkpt lat="41.621495482" lon="2.520942982">
        <ele>297.67</ele>
        <time>2013-06-30T08:01:31Z</time>
      </trkpt>
      <trkpt lat="41.621372435" lon="2.520934768">
        <ele>298.15</ele>
        <time>2013-06-30T08:01:39Z</time>
      </trkpt>
      <trkpt lat="41.621264560" lon="2.520965111">
        <ele>298.63</ele>
        <time>2013-06-30T08:01:46Z</time>
      </trkpt>
      <trkpt lat="41.621248299" lon="2.520971397">
        <ele>298.63</ele>
        <time>2013-06-30T08:01:47Z</time>
      </trkpt>
      <trkpt lat="41.621197086" lon="2.521003919">
        <ele>299.11</ele>
        <time>2013-06-30T08:01:51Z</time>
      </trkpt>
      <trkpt lat="41.621157691" lon="2.521022024">
        <ele>299.59</ele>
        <time>2013-06-30T08:01:54Z</time>
      </trkpt>
      <trkpt lat="41.621103795" lon="2.521113638">
        <ele>300.55</ele>
        <time>2013-06-30T08:02:01Z</time>
      </trkpt>
      <trkpt lat="41.621181077" lon="2.521122187">
        <ele>301.99</ele>
        <time>2013-06-30T08:02:07Z</time>
      </trkpt>
      <trkpt lat="41.621301860" lon="2.521188907">
        <ele>303.91</ele>
        <time>2013-06-30T08:02:17Z</time>
      </trkpt>
      <trkpt lat="41.621386768" lon="2.521298710">
        <ele>305.84</ele>
        <time>2013-06-30T08:02:26Z</time>
      </trkpt>
      <trkpt lat="41.621495314" lon="2.521445310">
        <ele>308.24</ele>
        <time>2013-06-30T08:02:37Z</time>
      </trkpt>
      <trkpt lat="41.621573098" lon="2.521583695">
        <ele>309.68</ele>
        <time>2013-06-30T08:02:45Z</time>
      </trkpt>
      <trkpt lat="41.621684326" lon="2.521766085">
        <ele>311.60</ele>
        <time>2013-06-30T08:02:58Z</time>
      </trkpt>
      <trkpt lat="41.621741994" lon="2.521878990">
        <ele>312.57</ele>
        <time>2013-06-30T08:03:06Z</time>
      </trkpt>
      <trkpt lat="41.621807289" lon="2.522030283">
        <ele>314.49</ele>
        <time>2013-06-30T08:03:16Z</time>
      </trkpt>
      <trkpt lat="41.621867806" lon="2.522181492">
        <ele>316.41</ele>
        <time>2013-06-30T08:03:25Z</time>
      </trkpt>
      <trkpt lat="41.621913068" lon="2.522264557">
        <ele>316.89</ele>
        <time>2013-06-30T08:03:31Z</time>
      </trkpt>
      <trkpt lat="41.621968975" lon="2.522231197">
        <ele>318.33</ele>
        <time>2013-06-30T08:03:38Z</time>
      </trkpt>
      <trkpt lat="41.621964365" lon="2.522151737">
        <ele>319.30</ele>
        <time>2013-06-30T08:03:43Z</time>
      </trkpt>
      <trkpt lat="41.621953301" lon="2.521995414">
        <ele>321.22</ele>
        <time>2013-06-30T08:03:53Z</time>
      </trkpt>
      <trkpt lat="41.621979285" lon="2.521814617">
        <ele>321.70</ele>
        <time>2013-06-30T08:04:03Z</time>
      </trkpt>
      <trkpt lat="41.622013735" lon="2.521666424">
        <ele>323.14</ele>
        <time>2013-06-30T08:04:11Z</time>
      </trkpt>
      <trkpt lat="41.622018177" lon="2.521647649">
        <ele>323.14</ele>
        <time>2013-06-30T08:04:12Z</time>
      </trkpt>
      <trkpt lat="41.622042066" lon="2.521601632">
        <ele>323.62</ele>
        <time>2013-06-30T08:04:15Z</time>
      </trkpt>
      <trkpt lat="41.622084394" lon="2.521555700">
        <ele>324.10</ele>
        <time>2013-06-30T08:04:19Z</time>
      </trkpt>
      <trkpt lat="41.622203082" lon="2.521538014">
        <ele>325.06</ele>
        <time>2013-06-30T08:04:28Z</time>
      </trkpt>
      <trkpt lat="41.622302072" lon="2.521616720">
        <ele>326.02</ele>
        <time>2013-06-30T08:04:36Z</time>
      </trkpt>
      <trkpt lat="41.622413552" lon="2.521712860">
        <ele>327.47</ele>
        <time>2013-06-30T08:04:45Z</time>
      </trkpt>
      <trkpt lat="41.622453114" lon="2.521743370">
        <ele>328.43</ele>
        <time>2013-06-30T08:04:48Z</time>
      </trkpt>
      <trkpt lat="41.622590913" lon="2.521839678">
        <ele>330.35</ele>
        <time>2013-06-30T08:04:58Z</time>
      </trkpt>
      <trkpt lat="41.622694429" lon="2.521879576">
        <ele>330.83</ele>
        <time>2013-06-30T08:05:05Z</time>
      </trkpt>
      <trkpt lat="41.622804484" lon="2.521895586">
        <ele>332.27</ele>
        <time>2013-06-30T08:05:12Z</time>
      </trkpt>
      <trkpt lat="41.622836000" lon="2.521895083">
        <ele>332.75</ele>
        <time>2013-06-30T08:05:14Z</time>
      </trkpt>
      <trkpt lat="41.622988131" lon="2.521861136">
        <ele>334.20</ele>
        <time>2013-06-30T08:05:24Z</time>
      </trkpt>
      <trkpt lat="41.623137329" lon="2.521826770">
        <ele>335.64</ele>
        <time>2013-06-30T08:05:34Z</time>
      </trkpt>
      <trkpt lat="41.623255430" lon="2.521919558">
        <ele>336.12</ele>
        <time>2013-06-30T08:05:42Z</time>
      </trkpt>
      <trkpt lat="41.623362132" lon="2.522058614">
        <ele>337.08</ele>
        <time>2013-06-30T08:05:50Z</time>
      </trkpt>
      <trkpt lat="41.623471851" lon="2.522190126">
        <ele>338.04</ele>
        <time>2013-06-30T08:05:58Z</time>
      </trkpt>
      <trkpt lat="41.623594143" lon="2.522302443">
        <ele>339.00</ele>
        <time>2013-06-30T08:06:06Z</time>
      </trkpt>
      <trkpt lat="41.623716435" lon="2.522391711">
        <ele>339.48</ele>
        <time>2013-06-30T08:06:14Z</time>
      </trkpt>
      <trkpt lat="41.623891784" lon="2.522536047">
        <ele>340.44</ele>
        <time>2013-06-30T08:06:25Z</time>
      </trkpt>
      <trkpt lat="41.624014411" lon="2.522694465">
        <ele>340.92</ele>
        <time>2013-06-30T08:06:34Z</time>
      </trkpt>
      <trkpt lat="41.624118598" lon="2.522948185">
        <ele>341.89</ele>
        <time>2013-06-30T08:06:44Z</time>
      </trkpt>
      <trkpt lat="41.624176098" lon="2.523139963">
        <ele>341.89</ele>
        <time>2013-06-30T08:06:51Z</time>
      </trkpt>
      <trkpt lat="41.624235442" lon="2.523371387">
        <ele>341.89</ele>
        <time>2013-06-30T08:06:59Z</time>
      </trkpt>
      <trkpt lat="41.624302497" lon="2.523576325">
        <ele>342.37</ele>
        <time>2013-06-30T08:07:06Z</time>
      </trkpt>
      <trkpt lat="41.624383047" lon="2.523765840">
        <ele>344.29</ele>
        <time>2013-06-30T08:07:14Z</time>
      </trkpt>
      <trkpt lat="41.624500059" lon="2.523982344">
        <ele>345.25</ele>
        <time>2013-06-30T08:07:23Z</time>
      </trkpt>
      <trkpt lat="41.624555631" lon="2.524145959">
        <ele>346.21</ele>
        <time>2013-06-30T08:07:30Z</time>
      </trkpt>
      <trkpt lat="41.624651268" lon="2.524364727">
        <ele>348.13</ele>
        <time>2013-06-30T08:07:39Z</time>
      </trkpt>
      <trkpt lat="41.624738356" lon="2.524596905">
        <ele>349.58</ele>
        <time>2013-06-30T08:07:48Z</time>
      </trkpt>
      <trkpt lat="41.624824019" lon="2.524808884">
        <ele>350.54</ele>
        <time>2013-06-30T08:07:56Z</time>
      </trkpt>
      <trkpt lat="41.624896104" lon="2.525031759">
        <ele>351.50</ele>
        <time>2013-06-30T08:08:04Z</time>
      </trkpt>
      <trkpt lat="41.625041530" lon="2.525260501">
        <ele>351.98</ele>
        <time>2013-06-30T08:08:13Z</time>
      </trkpt>
      <trkpt lat="41.625187291" lon="2.525416488">
        <ele>351.98</ele>
        <time>2013-06-30T08:08:20Z</time>
      </trkpt>
      <trkpt lat="41.625329867" lon="2.525598124">
        <ele>352.46</ele>
        <time>2013-06-30T08:08:28Z</time>
      </trkpt>
      <trkpt lat="41.625462050" lon="2.525835583">
        <ele>353.42</ele>
        <time>2013-06-30T08:08:37Z</time>
      </trkpt>
      <trkpt lat="41.625642512" lon="2.526087459">
        <ele>353.42</ele>
        <time>2013-06-30T08:08:46Z</time>
      </trkpt>
      <trkpt lat="41.625846528" lon="2.526226599">
        <ele>353.42</ele>
        <time>2013-06-30T08:08:53Z</time>
      </trkpt>
      <trkpt lat="41.626061104" lon="2.526417874">
        <ele>353.42</ele>
        <time>2013-06-30T08:09:01Z</time>
      </trkpt>
      <trkpt lat="41.626254810" lon="2.526717862">
        <ele>353.90</ele>
        <time>2013-06-30T08:09:11Z</time>
      </trkpt>
      <trkpt lat="41.626322620" lon="2.526874604">
        <ele>353.90</ele>
        <time>2013-06-30T08:09:16Z</time>
      </trkpt>
      <trkpt lat="41.626342569" lon="2.526979210">
        <ele>353.90</ele>
        <time>2013-06-30T08:09:22Z</time>
      </trkpt>
      <trkpt lat="41.626425298" lon="2.527052552">
        <ele>353.90</ele>
        <time>2013-06-30T08:09:27Z</time>
      </trkpt>
      <trkpt lat="41.626528982" lon="2.527198481">
        <ele>355.83</ele>
        <time>2013-06-30T08:09:35Z</time>
      </trkpt>
      <trkpt lat="41.626640042" lon="2.527331082">
        <ele>357.27</ele>
        <time>2013-06-30T08:09:42Z</time>
      </trkpt>
      <trkpt lat="41.626733333" lon="2.527334854">
        <ele>358.71</ele>
        <time>2013-06-30T08:09:48Z</time>
      </trkpt>
      <trkpt lat="41.626869958" lon="2.527364442">
        <ele>361.11</ele>
        <time>2013-06-30T08:09:57Z</time>
      </trkpt>
      <trkpt lat="41.626989233" lon="2.527403083">
        <ele>363.04</ele>
        <time>2013-06-30T08:10:05Z</time>
      </trkpt>
      <trkpt lat="41.627128540" lon="2.527444992">
        <ele>364.48</ele>
        <time>2013-06-30T08:10:14Z</time>
      </trkpt>
      <trkpt lat="41.627282096" lon="2.527525962">
        <ele>365.92</ele>
        <time>2013-06-30T08:10:23Z</time>
      </trkpt>
      <trkpt lat="41.627453841" lon="2.527621599">
        <ele>367.36</ele>
        <time>2013-06-30T08:10:33Z</time>
      </trkpt>
      <trkpt lat="41.627642183" lon="2.527736431">
        <ele>369.28</ele>
        <time>2013-06-30T08:10:44Z</time>
      </trkpt>
      <trkpt lat="41.627801271" lon="2.527831314">
        <ele>370.73</ele>
        <time>2013-06-30T08:10:53Z</time>
      </trkpt>
      <trkpt lat="41.627950637" lon="2.527926365">
        <ele>372.17</ele>
        <time>2013-06-30T08:11:02Z</time>
      </trkpt>
      <trkpt lat="41.628066307" lon="2.528012615">
        <ele>373.13</ele>
        <time>2013-06-30T08:11:09Z</time>
      </trkpt>
      <trkpt lat="41.628186168" lon="2.528126106">
        <ele>374.09</ele>
        <time>2013-06-30T08:11:17Z</time>
      </trkpt>
      <trkpt lat="41.628302006" lon="2.528236076">
        <ele>375.05</ele>
        <time>2013-06-30T08:11:24Z</time>
      </trkpt>
      <trkpt lat="41.628420945" lon="2.528358955">
        <ele>376.01</ele>
        <time>2013-06-30T08:11:31Z</time>
      </trkpt>
      <trkpt lat="41.628565617" lon="2.528550565">
        <ele>376.97</ele>
        <time>2013-06-30T08:11:40Z</time>
      </trkpt>
      <trkpt lat="41.628690340" lon="2.528791210">
        <ele>377.45</ele>
        <time>2013-06-30T08:11:49Z</time>
      </trkpt>
      <trkpt lat="41.628788157" lon="2.529007295">
        <ele>377.45</ele>
        <time>2013-06-30T08:11:56Z</time>
      </trkpt>
      <trkpt lat="41.628894188" lon="2.529212149">
        <ele>377.45</ele>
        <time>2013-06-30T08:12:03Z</time>
      </trkpt>
      <trkpt lat="41.629009774" lon="2.529413315">
        <ele>377.94</ele>
        <time>2013-06-30T08:12:09Z</time>
      </trkpt>
      <trkpt lat="41.629182860" lon="2.529748256">
        <ele>377.94</ele>
        <time>2013-06-30T08:12:19Z</time>
      </trkpt>
      <trkpt lat="41.629259890" lon="2.529995019">
        <ele>379.38</ele>
        <time>2013-06-30T08:12:27Z</time>
      </trkpt>
      <trkpt lat="41.629332561" lon="2.530258210">
        <ele>381.30</ele>
        <time>2013-06-30T08:12:36Z</time>
      </trkpt>
      <trkpt lat="41.629358713" lon="2.530499274">
        <ele>382.74</ele>
        <time>2013-06-30T08:12:44Z</time>
      </trkpt>
      <trkpt lat="41.629366340" lon="2.530812506">
        <ele>384.66</ele>
        <time>2013-06-30T08:12:54Z</time>
      </trkpt>
      <trkpt lat="41.629372627" lon="2.531050468">
        <ele>386.11</ele>
        <time>2013-06-30T08:13:02Z</time>
      </trkpt>
      <trkpt lat="41.629453428" lon="2.531246940">
        <ele>386.59</ele>
        <time>2013-06-30T08:13:09Z</time>
      </trkpt>
      <trkpt lat="41.629644033" lon="2.531385828">
        <ele>385.15</ele>
        <time>2013-06-30T08:13:15Z</time>
      </trkpt>
      <trkpt lat="41.629691390" lon="2.531411393">
        <ele>385.15</ele>
        <time>2013-06-30T08:13:16Z</time>
      </trkpt>
      <trkpt lat="41.630077377" lon="2.531584228">
        <ele>382.26</ele>
        <time>2013-06-30T08:13:23Z</time>
      </trkpt>
      <trkpt lat="41.630340737" lon="2.531651199">
        <ele>380.82</ele>
        <time>2013-06-30T08:13:27Z</time>
      </trkpt>
      <trkpt lat="41.630717084" lon="2.531536954">
        <ele>379.86</ele>
        <time>2013-06-30T08:13:33Z</time>
      </trkpt>
      <trkpt lat="41.630832838" lon="2.531482807">
        <ele>379.86</ele>
        <time>2013-06-30T08:13:35Z</time>
      </trkpt>
      <trkpt lat="41.631117487" lon="2.531471659">
        <ele>379.38</ele>
        <time>2013-06-30T08:13:40Z</time>
      </trkpt>
      <trkpt lat="41.631218573" lon="2.531511640">
        <ele>379.38</ele>
        <time>2013-06-30T08:13:42Z</time>
      </trkpt>
      <trkpt lat="41.631440191" lon="2.531431845">
        <ele>378.90</ele>
        <time>2013-06-30T08:13:47Z</time>
      </trkpt>
      <trkpt lat="41.631511688" lon="2.531332519">
        <ele>378.42</ele>
        <time>2013-06-30T08:13:49Z</time>
      </trkpt>
      <trkpt lat="41.631794829" lon="2.530859361">
        <ele>376.97</ele>
        <time>2013-06-30T08:13:57Z</time>
      </trkpt>
      <trkpt lat="41.632003036" lon="2.530537831">
        <ele>375.05</ele>
        <time>2013-06-30T08:14:04Z</time>
      </trkpt>
      <trkpt lat="41.632035474" lon="2.530517882">
        <ele>375.05</ele>
        <time>2013-06-30T08:14:06Z</time>
      </trkpt>
      <trkpt lat="41.632136056" lon="2.530581417">
        <ele>374.09</ele>
        <time>2013-06-30T08:14:10Z</time>
      </trkpt>
      <trkpt lat="41.632374186" lon="2.530813092">
        <ele>372.65</ele>
        <time>2013-06-30T08:14:16Z</time>
      </trkpt>
      <trkpt lat="41.632627320" lon="2.531080978">
        <ele>372.17</ele>
        <time>2013-06-30T08:14:23Z</time>
      </trkpt>
      <trkpt lat="41.632891853" lon="2.531409381">
        <ele>370.73</ele>
        <time>2013-06-30T08:14:30Z</time>
      </trkpt>
      <trkpt lat="41.633081619" lon="2.531715069">
        <ele>370.24</ele>
        <time>2013-06-30T08:14:37Z</time>
      </trkpt>
      <trkpt lat="41.633141969" lon="2.531801822">
        <ele>371.69</ele>
        <time>2013-06-30T08:14:40Z</time>
      </trkpt>
      <trkpt lat="41.633216065" lon="2.532009609">
        <ele>373.61</ele>
        <time>2013-06-30T08:14:47Z</time>
      </trkpt>
      <trkpt lat="41.633224111" lon="2.532276489">
        <ele>375.53</ele>
        <time>2013-06-30T08:14:55Z</time>
      </trkpt>
      <trkpt lat="41.633228218" lon="2.532524761">
        <ele>377.94</ele>
        <time>2013-06-30T08:15:03Z</time>
      </trkpt>
      <trkpt lat="41.633232912" lon="2.532682425">
        <ele>380.34</ele>
        <time>2013-06-30T08:15:09Z</time>
      </trkpt>
      <trkpt lat="41.633264428" lon="2.532751324">
        <ele>380.82</ele>
        <time>2013-06-30T08:15:13Z</time>
      </trkpt>
      <trkpt lat="41.633429300" lon="2.532949472">
        <ele>378.90</ele>
        <time>2013-06-30T08:15:21Z</time>
      </trkpt>
      <trkpt lat="41.633465426" lon="2.532995824">
        <ele>378.42</ele>
        <time>2013-06-30T08:15:22Z</time>
      </trkpt>
      <trkpt lat="41.633647816" lon="2.533304026">
        <ele>374.09</ele>
        <time>2013-06-30T08:15:27Z</time>
      </trkpt>
      <trkpt lat="41.633698527" lon="2.533389857">
        <ele>373.13</ele>
        <time>2013-06-30T08:15:28Z</time>
      </trkpt>
      <trkpt lat="41.633937076" lon="2.533599991">
        <ele>373.13</ele>
        <time>2013-06-30T08:15:33Z</time>
      </trkpt>
      <trkpt lat="41.633961719" lon="2.533595130">
        <ele>373.13</ele>
        <time>2013-06-30T08:15:34Z</time>
      </trkpt>
      <trkpt lat="41.634200771" lon="2.533536038">
        <ele>373.13</ele>
        <time>2013-06-30T08:15:41Z</time>
      </trkpt>
      <trkpt lat="41.634310238" lon="2.533506449">
        <ele>370.73</ele>
        <time>2013-06-30T08:15:43Z</time>
      </trkpt>
      <trkpt lat="41.634515427" lon="2.533547772">
        <ele>369.28</ele>
        <time>2013-06-30T08:15:47Z</time>
      </trkpt>
      <trkpt lat="41.634632019" lon="2.533418859">
        <ele>368.32</ele>
        <time>2013-06-30T08:15:50Z</time>
      </trkpt>
      <trkpt lat="41.634676611" lon="2.533145525">
        <ele>366.40</ele>
        <time>2013-06-30T08:15:54Z</time>
      </trkpt>
      <trkpt lat="41.634648532" lon="2.533007559">
        <ele>365.44</ele>
        <time>2013-06-30T08:15:56Z</time>
      </trkpt>
      <trkpt lat="41.634620872" lon="2.532491569">
        <ele>362.07</ele>
        <time>2013-06-30T08:16:02Z</time>
      </trkpt>
      <trkpt lat="41.634722795" lon="2.532110108">
        <ele>361.59</ele>
        <time>2013-06-30T08:16:07Z</time>
      </trkpt>
      <trkpt lat="41.634860845" lon="2.531912631">
        <ele>362.55</ele>
        <time>2013-06-30T08:16:12Z</time>
      </trkpt>
      <trkpt lat="41.635010630" lon="2.531836690">
        <ele>365.92</ele>
        <time>2013-06-30T08:16:18Z</time>
      </trkpt>
      <trkpt lat="41.635130743" lon="2.531942470">
        <ele>367.36</ele>
        <time>2013-06-30T08:16:24Z</time>
      </trkpt>
      <trkpt lat="41.635290250" lon="2.532129470">
        <ele>368.80</ele>
        <time>2013-06-30T08:16:33Z</time>
      </trkpt>
      <trkpt lat="41.635434503" lon="2.532214379">
        <ele>368.80</ele>
        <time>2013-06-30T08:16:39Z</time>
      </trkpt>
      <trkpt lat="41.635463588" lon="2.532213122">
        <ele>368.80</ele>
        <time>2013-06-30T08:16:40Z</time>
      </trkpt>
      <trkpt lat="41.635570625" lon="2.532038527">
        <ele>368.80</ele>
        <time>2013-06-30T08:16:45Z</time>
      </trkpt>
      <trkpt lat="41.635574564" lon="2.531994689">
        <ele>368.80</ele>
        <time>2013-06-30T08:16:46Z</time>
      </trkpt>
      <trkpt lat="41.635629717" lon="2.531620521">
        <ele>368.80</ele>
        <time>2013-06-30T08:16:55Z</time>
      </trkpt>
      <trkpt lat="41.635673052" lon="2.531360682">
        <ele>371.21</ele>
        <time>2013-06-30T08:17:04Z</time>
      </trkpt>
      <trkpt lat="41.635719152" lon="2.531161109">
        <ele>373.13</ele>
        <time>2013-06-30T08:17:12Z</time>
      </trkpt>
      <trkpt lat="41.635793667" lon="2.531014929">
        <ele>374.09</ele>
        <time>2013-06-30T08:17:18Z</time>
      </trkpt>
      <trkpt lat="41.635924258" lon="2.530957177">
        <ele>376.01</ele>
        <time>2013-06-30T08:17:25Z</time>
      </trkpt>
      <trkpt lat="41.636121065" lon="2.530904036">
        <ele>376.97</ele>
        <time>2013-06-30T08:17:34Z</time>
      </trkpt>
      <trkpt lat="41.636241932" lon="2.530923650">
        <ele>377.45</ele>
        <time>2013-06-30T08:17:39Z</time>
      </trkpt>
      <trkpt lat="41.636319213" lon="2.531182148">
        <ele>376.97</ele>
        <time>2013-06-30T08:17:46Z</time>
      </trkpt>
      <trkpt lat="41.636322985" lon="2.531468390">
        <ele>376.97</ele>
        <time>2013-06-30T08:17:53Z</time>
      </trkpt>
      <trkpt lat="41.636363469" lon="2.531815568">
        <ele>376.97</ele>
        <time>2013-06-30T08:18:01Z</time>
      </trkpt>
      <trkpt lat="41.636473943" lon="2.532098709">
        <ele>376.97</ele>
        <time>2013-06-30T08:18:09Z</time>
      </trkpt>
      <trkpt lat="41.636537226" lon="2.532343879">
        <ele>376.97</ele>
        <time>2013-06-30T08:18:16Z</time>
      </trkpt>
      <trkpt lat="41.636447037" lon="2.532656524">
        <ele>377.45</ele>
        <time>2013-06-30T08:18:24Z</time>
      </trkpt>
      <trkpt lat="41.636426669" lon="2.532746378">
        <ele>377.45</ele>
        <time>2013-06-30T08:18:26Z</time>
      </trkpt>
      <trkpt lat="41.636500346" lon="2.532975791">
        <ele>377.45</ele>
        <time>2013-06-30T08:18:32Z</time>
      </trkpt>
      <trkpt lat="41.636527252" lon="2.532998003">
        <ele>377.45</ele>
        <time>2013-06-30T08:18:33Z</time>
      </trkpt>
      <trkpt lat="41.636700422" lon="2.533238983">
        <ele>377.45</ele>
        <time>2013-06-30T08:18:41Z</time>
      </trkpt>
      <trkpt lat="41.636714252" lon="2.533511395">
        <ele>377.45</ele>
        <time>2013-06-30T08:18:48Z</time>
      </trkpt>
      <trkpt lat="41.636640407" lon="2.533815658">
        <ele>377.45</ele>
        <time>2013-06-30T08:18:56Z</time>
      </trkpt>
      <trkpt lat="41.636554912" lon="2.534059236">
        <ele>377.45</ele>
        <time>2013-06-30T08:19:03Z</time>
      </trkpt>
      <trkpt lat="41.636630600" lon="2.534170045">
        <ele>377.45</ele>
        <time>2013-06-30T08:19:07Z</time>
      </trkpt>
      <trkpt lat="41.636689190" lon="2.534193430">
        <ele>377.45</ele>
        <time>2013-06-30T08:19:09Z</time>
      </trkpt>
      <trkpt lat="41.636930421" lon="2.534295187">
        <ele>375.53</ele>
        <time>2013-06-30T08:19:15Z</time>
      </trkpt>
      <trkpt lat="41.637185734" lon="2.534484701">
        <ele>374.09</ele>
        <time>2013-06-30T08:19:21Z</time>
      </trkpt>
      <trkpt lat="41.637274750" lon="2.534548655">
        <ele>374.09</ele>
        <time>2013-06-30T08:19:23Z</time>
      </trkpt>
      <trkpt lat="41.637456888" lon="2.534616130">
        <ele>373.61</ele>
        <time>2013-06-30T08:19:27Z</time>
      </trkpt>
      <trkpt lat="41.637586054" lon="2.534694752">
        <ele>372.65</ele>
        <time>2013-06-30T08:19:30Z</time>
      </trkpt>
      <trkpt lat="41.637804905" lon="2.534947550">
        <ele>370.73</ele>
        <time>2013-06-30T08:19:37Z</time>
      </trkpt>
      <trkpt lat="41.637853939" lon="2.534980659">
        <ele>370.73</ele>
        <time>2013-06-30T08:19:40Z</time>
      </trkpt>
      <trkpt lat="41.638015961" lon="2.534886111">
        <ele>369.76</ele>
        <time>2013-06-30T08:19:45Z</time>
      </trkpt>
      <trkpt lat="41.638142696" lon="2.534761472">
        <ele>369.76</ele>
        <time>2013-06-30T08:19:48Z</time>
      </trkpt>
      <trkpt lat="41.638442684" lon="2.534645885">
        <ele>368.80</ele>
        <time>2013-06-30T08:19:54Z</time>
      </trkpt>
      <trkpt lat="41.638627337" lon="2.534729118">
        <ele>368.80</ele>
        <time>2013-06-30T08:19:58Z</time>
      </trkpt>
      <trkpt lat="41.638896397" lon="2.534877142">
        <ele>367.84</ele>
        <time>2013-06-30T08:20:04Z</time>
      </trkpt>
      <trkpt lat="41.639161935" lon="2.534947801">
        <ele>367.84</ele>
        <time>2013-06-30T08:20:12Z</time>
      </trkpt>
      <trkpt lat="41.639288418" lon="2.534973366">
        <ele>369.28</ele>
        <time>2013-06-30T08:20:18Z</time>
      </trkpt>
      <trkpt lat="41.639424289" lon="2.534994740">
        <ele>370.73</ele>
        <time>2013-06-30T08:20:25Z</time>
      </trkpt>
      <trkpt lat="41.639559237" lon="2.534979317">
        <ele>371.69</ele>
        <time>2013-06-30T08:20:32Z</time>
      </trkpt>
      <trkpt lat="41.639663760" lon="2.535004882">
        <ele>372.65</ele>
        <time>2013-06-30T08:20:38Z</time>
      </trkpt>
      <trkpt lat="41.639840786" lon="2.535059113">
        <ele>374.09</ele>
        <time>2013-06-30T08:20:47Z</time>
      </trkpt>
      <trkpt lat="41.639979087" lon="2.535126839">
        <ele>375.05</ele>
        <time>2013-06-30T08:20:54Z</time>
      </trkpt>
      <trkpt lat="41.640145635" lon="2.535244269">
        <ele>376.97</ele>
        <time>2013-06-30T08:21:03Z</time>
      </trkpt>
      <trkpt lat="41.640307825" lon="2.535245611">
        <ele>377.45</ele>
        <time>2013-06-30T08:21:10Z</time>
      </trkpt>
      <trkpt lat="41.640479738" lon="2.535220800">
        <ele>377.45</ele>
        <time>2013-06-30T08:21:17Z</time>
      </trkpt>
      <trkpt lat="41.640650645" lon="2.535200181">
        <ele>377.94</ele>
        <time>2013-06-30T08:21:24Z</time>
      </trkpt>
      <trkpt lat="41.640694231" lon="2.535206970">
        <ele>378.42</ele>
        <time>2013-06-30T08:21:26Z</time>
      </trkpt>
      <trkpt lat="41.640867653" lon="2.535338063">
        <ele>379.38</ele>
        <time>2013-06-30T08:21:34Z</time>
      </trkpt>
      <trkpt lat="41.641033949" lon="2.535490194">
        <ele>379.38</ele>
        <time>2013-06-30T08:21:40Z</time>
      </trkpt>
      <trkpt lat="41.641134700" lon="2.535720864">
        <ele>379.38</ele>
        <time>2013-06-30T08:21:47Z</time>
      </trkpt>
      <trkpt lat="41.641235450" lon="2.535979865">
        <ele>380.34</ele>
        <time>2013-06-30T08:21:55Z</time>
      </trkpt>
      <trkpt lat="41.641299907" lon="2.536172062">
        <ele>381.78</ele>
        <time>2013-06-30T08:22:02Z</time>
      </trkpt>
      <trkpt lat="41.641365957" lon="2.536399799">
        <ele>383.22</ele>
        <time>2013-06-30T08:22:10Z</time>
      </trkpt>
      <trkpt lat="41.641419936" lon="2.536606496">
        <ele>384.66</ele>
        <time>2013-06-30T08:22:18Z</time>
      </trkpt>
      <trkpt lat="41.641514400" lon="2.536777739">
        <ele>386.11</ele>
        <time>2013-06-30T08:22:26Z</time>
      </trkpt>
      <trkpt lat="41.641596878" lon="2.536925512">
        <ele>387.55</ele>
        <time>2013-06-30T08:22:33Z</time>
      </trkpt>
      <trkpt lat="41.641625293" lon="2.537147297">
        <ele>387.55</ele>
        <time>2013-06-30T08:22:40Z</time>
      </trkpt>
      <trkpt lat="41.641567541" lon="2.537407974">
        <ele>387.55</ele>
        <time>2013-06-30T08:22:46Z</time>
      </trkpt>
      <trkpt lat="41.641587993" lon="2.537664376">
        <ele>387.55</ele>
        <time>2013-06-30T08:22:53Z</time>
      </trkpt>
      <trkpt lat="41.641608697" lon="2.537923461">
        <ele>388.51</ele>
        <time>2013-06-30T08:23:00Z</time>
      </trkpt>
      <trkpt lat="41.641712548" lon="2.538184641">
        <ele>388.51</ele>
        <time>2013-06-30T08:23:08Z</time>
      </trkpt>
      <trkpt lat="41.641841881" lon="2.538378263">
        <ele>388.51</ele>
        <time>2013-06-30T08:23:13Z</time>
      </trkpt>
      <trkpt lat="41.642097026" lon="2.538527461">
        <ele>388.51</ele>
        <time>2013-06-30T08:23:20Z</time>
      </trkpt>
      <trkpt lat="41.642300707" lon="2.538539196">
        <ele>388.51</ele>
        <time>2013-06-30T08:23:27Z</time>
      </trkpt>
      <trkpt lat="41.642510757" lon="2.538635085">
        <ele>389.95</ele>
        <time>2013-06-30T08:23:36Z</time>
      </trkpt>
      <trkpt lat="41.642658027" lon="2.538782271">
        <ele>389.95</ele>
        <time>2013-06-30T08:23:42Z</time>
      </trkpt>
      <trkpt lat="41.642941000" lon="2.538997686">
        <ele>388.51</ele>
        <time>2013-06-30T08:23:49Z</time>
      </trkpt>
      <trkpt lat="41.643137304" lon="2.539094748">
        <ele>386.59</ele>
        <time>2013-06-30T08:23:53Z</time>
      </trkpt>
      <trkpt lat="41.643221291" lon="2.539157864">
        <ele>385.63</ele>
        <time>2013-06-30T08:23:55Z</time>
      </trkpt>
      <trkpt lat="41.643408794" lon="2.539420720">
        <ele>382.74</ele>
        <time>2013-06-30T08:24:00Z</time>
      </trkpt>
      <trkpt lat="41.643453553" lon="2.539458607">
        <ele>381.78</ele>
        <time>2013-06-30T08:24:01Z</time>
      </trkpt>
      <trkpt lat="41.643770809" lon="2.539635884">
        <ele>377.45</ele>
        <time>2013-06-30T08:24:07Z</time>
      </trkpt>
      <trkpt lat="41.644024613" lon="2.539881976">
        <ele>374.09</ele>
        <time>2013-06-30T08:24:13Z</time>
      </trkpt>
      <trkpt lat="41.644184707" lon="2.540098649">
        <ele>372.17</ele>
        <time>2013-06-30T08:24:17Z</time>
      </trkpt>
      <trkpt lat="41.644285625" lon="2.540343400">
        <ele>368.80</ele>
        <time>2013-06-30T08:24:21Z</time>
      </trkpt>
      <trkpt lat="41.644410012" lon="2.540469045">
        <ele>365.44</ele>
        <time>2013-06-30T08:24:26Z</time>
      </trkpt>
      <trkpt lat="41.644522833" lon="2.540273411">
        <ele>362.55</ele>
        <time>2013-06-30T08:24:30Z</time>
      </trkpt>
      <trkpt lat="41.644536747" lon="2.540199651">
        <ele>362.07</ele>
        <time>2013-06-30T08:24:31Z</time>
      </trkpt>
      <trkpt lat="41.644565497" lon="2.540049615">
        <ele>360.63</ele>
        <time>2013-06-30T08:24:33Z</time>
      </trkpt>
      <trkpt lat="41.644685023" lon="2.539873762">
        <ele>358.71</ele>
        <time>2013-06-30T08:24:37Z</time>
      </trkpt>
      <trkpt lat="41.644785857" lon="2.539910223">
        <ele>356.79</ele>
        <time>2013-06-30T08:24:39Z</time>
      </trkpt>
      <trkpt lat="41.645147033" lon="2.540103510">
        <ele>353.42</ele>
        <time>2013-06-30T08:24:46Z</time>
      </trkpt>
      <trkpt lat="41.645319700" lon="2.540168638">
        <ele>351.98</ele>
        <time>2013-06-30T08:24:50Z</time>
      </trkpt>
      <trkpt lat="41.645418691" lon="2.540187245">
        <ele>351.02</ele>
        <time>2013-06-30T08:24:52Z</time>
      </trkpt>
      <trkpt lat="41.645656234" lon="2.540247344">
        <ele>350.06</ele>
        <time>2013-06-30T08:24:57Z</time>
      </trkpt>
      <trkpt lat="41.645835187" lon="2.540334683">
        <ele>351.02</ele>
        <time>2013-06-30T08:25:02Z</time>
      </trkpt>
      <trkpt lat="41.645980613" lon="2.540494861">
        <ele>353.42</ele>
        <time>2013-06-30T08:25:09Z</time>
      </trkpt>
      <trkpt lat="41.646112293" lon="2.540638695">
        <ele>355.83</ele>
        <time>2013-06-30T08:25:17Z</time>
      </trkpt>
      <trkpt lat="41.646218492" lon="2.540688735">
        <ele>357.27</ele>
        <time>2013-06-30T08:25:23Z</time>
      </trkpt>
      <trkpt lat="41.646378251" lon="2.540760735">
        <ele>359.67</ele>
        <time>2013-06-30T08:25:33Z</time>
      </trkpt>
      <trkpt lat="41.646494424" lon="2.540798286">
        <ele>362.55</ele>
        <time>2013-06-30T08:25:41Z</time>
      </trkpt>
      <trkpt lat="41.646647562" lon="2.540852433">
        <ele>365.44</ele>
        <time>2013-06-30T08:25:52Z</time>
      </trkpt>
      <trkpt lat="41.646770273" lon="2.540819073">
        <ele>366.88</ele>
        <time>2013-06-30T08:26:00Z</time>
      </trkpt>
      <trkpt lat="41.646955513" lon="2.540774062">
        <ele>368.32</ele>
        <time>2013-06-30T08:26:11Z</time>
      </trkpt>
      <trkpt lat="41.647116194" lon="2.540785546">
        <ele>369.28</ele>
        <time>2013-06-30T08:26:20Z</time>
      </trkpt>
      <trkpt lat="41.647302859" lon="2.540795520">
        <ele>370.24</ele>
        <time>2013-06-30T08:26:30Z</time>
      </trkpt>
      <trkpt lat="41.647464881" lon="2.540841034">
        <ele>372.17</ele>
        <time>2013-06-30T08:26:40Z</time>
      </trkpt>
      <trkpt lat="41.647590777" lon="2.540942455">
        <ele>374.09</ele>
        <time>2013-06-30T08:26:49Z</time>
      </trkpt>
      <trkpt lat="41.647736203" lon="2.541085282">
        <ele>377.45</ele>
        <time>2013-06-30T08:27:00Z</time>
      </trkpt>
      <trkpt lat="41.647835026" lon="2.541187625">
        <ele>378.90</ele>
        <time>2013-06-30T08:27:08Z</time>
      </trkpt>
      <trkpt lat="41.647927981" lon="2.541285191">
        <ele>380.82</ele>
        <time>2013-06-30T08:27:16Z</time>
      </trkpt>
      <trkpt lat="41.647972154" lon="2.541313438">
        <ele>381.30</ele>
        <time>2013-06-30T08:27:19Z</time>
      </trkpt>
      <trkpt lat="41.648146078" lon="2.541316707">
        <ele>382.74</ele>
        <time>2013-06-30T08:27:29Z</time>
      </trkpt>
      <trkpt lat="41.648344226" lon="2.541387282">
        <ele>383.70</ele>
        <time>2013-06-30T08:27:40Z</time>
      </trkpt>
      <trkpt lat="41.648500716" lon="2.541417625">
        <ele>385.15</ele>
        <time>2013-06-30T08:27:49Z</time>
      </trkpt>
      <trkpt lat="41.648648573" lon="2.541437322">
        <ele>385.63</ele>
        <time>2013-06-30T08:27:57Z</time>
      </trkpt>
      <trkpt lat="41.648756113" lon="2.541486440">
        <ele>386.59</ele>
        <time>2013-06-30T08:28:03Z</time>
      </trkpt>
      <trkpt lat="41.648934312" lon="2.541615019">
        <ele>387.55</ele>
        <time>2013-06-30T08:28:12Z</time>
      </trkpt>
      <trkpt lat="41.649032464" lon="2.541826075">
        <ele>388.99</ele>
        <time>2013-06-30T08:28:21Z</time>
      </trkpt>
      <trkpt lat="41.649061466" lon="2.542093458">
        <ele>389.47</ele>
        <time>2013-06-30T08:28:31Z</time>
      </trkpt>
      <trkpt lat="41.649056101" lon="2.542329325">
        <ele>390.43</ele>
        <time>2013-06-30T08:28:40Z</time>
      </trkpt>
      <trkpt lat="41.649111590" lon="2.542567873">
        <ele>390.91</ele>
        <time>2013-06-30T08:28:49Z</time>
      </trkpt>
      <trkpt lat="41.649161127" lon="2.542725621">
        <ele>391.39</ele>
        <time>2013-06-30T08:28:55Z</time>
      </trkpt>
      <trkpt lat="41.649277048" lon="2.543002643">
        <ele>392.36</ele>
        <time>2013-06-30T08:29:05Z</time>
      </trkpt>
      <trkpt lat="41.649359610" lon="2.543271450">
        <ele>393.80</ele>
        <time>2013-06-30T08:29:14Z</time>
      </trkpt>
      <trkpt lat="41.649414931" lon="2.543540174">
        <ele>395.24</ele>
        <time>2013-06-30T08:29:23Z</time>
      </trkpt>
      <trkpt lat="41.649458433" lon="2.543836558">
        <ele>397.16</ele>
        <time>2013-06-30T08:29:33Z</time>
      </trkpt>
      <trkpt lat="41.649468407" lon="2.544064295">
        <ele>398.12</ele>
        <time>2013-06-30T08:29:41Z</time>
      </trkpt>
      <trkpt lat="41.649503276" lon="2.544337712">
        <ele>399.57</ele>
        <time>2013-06-30T08:29:50Z</time>
      </trkpt>
      <trkpt lat="41.649602937" lon="2.544530161">
        <ele>400.05</ele>
        <time>2013-06-30T08:29:57Z</time>
      </trkpt>
      <trkpt lat="41.649774850" lon="2.544757310">
        <ele>401.01</ele>
        <time>2013-06-30T08:30:08Z</time>
      </trkpt>
      <trkpt lat="41.649923964" lon="2.544749431">
        <ele>402.45</ele>
        <time>2013-06-30T08:30:15Z</time>
      </trkpt>
      <trkpt lat="41.650101073" lon="2.544673994">
        <ele>403.89</ele>
        <time>2013-06-30T08:30:23Z</time>
      </trkpt>
      <trkpt lat="41.650279524" lon="2.544655889">
        <ele>405.33</ele>
        <time>2013-06-30T08:30:31Z</time>
      </trkpt>
      <trkpt lat="41.650507093" lon="2.544710791">
        <ele>406.77</ele>
        <time>2013-06-30T08:30:41Z</time>
      </trkpt>
      <trkpt lat="41.650716556" lon="2.544845739">
        <ele>408.70</ele>
        <time>2013-06-30T08:30:52Z</time>
      </trkpt>
      <trkpt lat="41.650839603" lon="2.544975408">
        <ele>410.14</ele>
        <time>2013-06-30T08:31:00Z</time>
      </trkpt>
      <trkpt lat="41.650954686" lon="2.545054784">
        <ele>412.06</ele>
        <time>2013-06-30T08:31:07Z</time>
      </trkpt>
      <trkpt lat="41.651135987" lon="2.545025112">
        <ele>413.50</ele>
        <time>2013-06-30T08:31:16Z</time>
      </trkpt>
      <trkpt lat="41.651303793" lon="2.544940790">
        <ele>415.43</ele>
        <time>2013-06-30T08:31:25Z</time>
      </trkpt>
      <trkpt lat="41.651437568" lon="2.544947496">
        <ele>416.39</ele>
        <time>2013-06-30T08:31:32Z</time>
      </trkpt>
      <trkpt lat="41.651627166" lon="2.544972306">
        <ele>418.79</ele>
        <time>2013-06-30T08:31:42Z</time>
      </trkpt>
      <trkpt lat="41.651754320" lon="2.544851439">
        <ele>420.71</ele>
        <time>2013-06-30T08:31:50Z</time>
      </trkpt>
      <trkpt lat="41.651887760" lon="2.544727387">
        <ele>423.12</ele>
        <time>2013-06-30T08:31:59Z</time>
      </trkpt>
      <trkpt lat="41.651994461" lon="2.544631247">
        <ele>425.04</ele>
        <time>2013-06-30T08:32:07Z</time>
      </trkpt>
      <trkpt lat="41.652116083" lon="2.544566203">
        <ele>426.96</ele>
        <time>2013-06-30T08:32:15Z</time>
      </trkpt>
      <trkpt lat="41.652165368" lon="2.544544410">
        <ele>427.44</ele>
        <time>2013-06-30T08:32:18Z</time>
      </trkpt>
      <trkpt lat="41.652224880" lon="2.544508116">
        <ele>427.92</ele>
        <time>2013-06-30T08:32:22Z</time>
      </trkpt>
      <trkpt lat="41.652390003" lon="2.544456987">
        <ele>428.89</ele>
        <time>2013-06-30T08:32:32Z</time>
      </trkpt>
      <trkpt lat="41.652534004" lon="2.544442235">
        <ele>429.85</ele>
        <time>2013-06-30T08:32:40Z</time>
      </trkpt>
      <trkpt lat="41.652701140" lon="2.544434942">
        <ele>431.29</ele>
        <time>2013-06-30T08:32:49Z</time>
      </trkpt>
      <trkpt lat="41.652807338" lon="2.544436786">
        <ele>432.25</ele>
        <time>2013-06-30T08:32:55Z</time>
      </trkpt>
      <trkpt lat="41.652955027" lon="2.544437289">
        <ele>433.69</ele>
        <time>2013-06-30T08:33:04Z</time>
      </trkpt>
      <trkpt lat="41.653100370" lon="2.544396386">
        <ele>435.61</ele>
        <time>2013-06-30T08:33:14Z</time>
      </trkpt>
      <trkpt lat="41.653239006" lon="2.544364870">
        <ele>437.06</ele>
        <time>2013-06-30T08:33:23Z</time>
      </trkpt>
      <trkpt lat="41.653267672" lon="2.544355398">
        <ele>438.02</ele>
        <time>2013-06-30T08:33:25Z</time>
      </trkpt>
      <trkpt lat="41.653371943" lon="2.544377191">
        <ele>439.94</ele>
        <time>2013-06-30T08:33:33Z</time>
      </trkpt>
      <trkpt lat="41.653399939" lon="2.544395715">
        <ele>440.42</ele>
        <time>2013-06-30T08:33:35Z</time>
      </trkpt>
      <trkpt lat="41.653491721" lon="2.544488419">
        <ele>441.86</ele>
        <time>2013-06-30T08:33:43Z</time>
      </trkpt>
      <trkpt lat="41.653517118" lon="2.544507865">
        <ele>441.86</ele>
        <time>2013-06-30T08:33:45Z</time>
      </trkpt>
      <trkpt lat="41.653615019" lon="2.544575758">
        <ele>443.31</ele>
        <time>2013-06-30T08:33:53Z</time>
      </trkpt>
      <trkpt lat="41.653644523" lon="2.544623200">
        <ele>443.79</ele>
        <time>2013-06-30T08:33:57Z</time>
      </trkpt>
      <trkpt lat="41.653737730" lon="2.544696625">
        <ele>445.23</ele>
        <time>2013-06-30T08:34:05Z</time>
      </trkpt>
      <trkpt lat="41.653800426" lon="2.544707187">
        <ele>446.19</ele>
        <time>2013-06-30T08:34:10Z</time>
      </trkpt>
      <trkpt lat="41.653920371" lon="2.544755299">
        <ele>449.07</ele>
        <time>2013-06-30T08:34:20Z</time>
      </trkpt>
      <trkpt lat="41.654043837" lon="2.544808021">
        <ele>451.96</ele>
        <time>2013-06-30T08:34:30Z</time>
      </trkpt>
      <trkpt lat="41.654160848" lon="2.544878680">
        <ele>454.84</ele>
        <time>2013-06-30T08:34:41Z</time>
      </trkpt>
      <trkpt lat="41.654263191" lon="2.544950681">
        <ele>457.72</ele>
        <time>2013-06-30T08:34:51Z</time>
      </trkpt>
      <trkpt lat="41.654271908" lon="2.544956381">
        <ele>457.72</ele>
        <time>2013-06-30T08:34:52Z</time>
      </trkpt>
      <trkpt lat="41.654371066" lon="2.545000637">
        <ele>459.65</ele>
        <time>2013-06-30T08:35:01Z</time>
      </trkpt>
      <trkpt lat="41.654479947" lon="2.545045145">
        <ele>461.57</ele>
        <time>2013-06-30T08:35:10Z</time>
      </trkpt>
      <trkpt lat="41.654491095" lon="2.545051180">
        <ele>461.57</ele>
        <time>2013-06-30T08:35:11Z</time>
      </trkpt>
      <trkpt lat="41.654611375" lon="2.545119241">
        <ele>464.45</ele>
        <time>2013-06-30T08:35:22Z</time>
      </trkpt>
      <trkpt lat="41.654739618" lon="2.545153272">
        <ele>466.86</ele>
        <time>2013-06-30T08:35:32Z</time>
      </trkpt>
      <trkpt lat="41.654834837" lon="2.545172801">
        <ele>469.26</ele>
        <time>2013-06-30T08:35:40Z</time>
      </trkpt>
      <trkpt lat="41.654878339" lon="2.545187637">
        <ele>469.74</ele>
        <time>2013-06-30T08:35:44Z</time>
      </trkpt>
      <trkpt lat="41.654997027" lon="2.545167940">
        <ele>471.66</ele>
        <time>2013-06-30T08:35:54Z</time>
      </trkpt>
      <trkpt lat="41.655064250" lon="2.545144722">
        <ele>472.63</ele>
        <time>2013-06-30T08:35:59Z</time>
      </trkpt>
      <trkpt lat="41.655202635" lon="2.545074817">
        <ele>474.55</ele>
        <time>2013-06-30T08:36:11Z</time>
      </trkpt>
      <trkpt lat="41.655337164" lon="2.545066016">
        <ele>475.99</ele>
        <time>2013-06-30T08:36:20Z</time>
      </trkpt>
      <trkpt lat="41.655440010" lon="2.545121756">
        <ele>476.47</ele>
        <time>2013-06-30T08:36:27Z</time>
      </trkpt>
      <trkpt lat="41.655512598" lon="2.545265254">
        <ele>477.91</ele>
        <time>2013-06-30T08:36:36Z</time>
      </trkpt>
      <trkpt lat="41.655589292" lon="2.545407159">
        <ele>479.35</ele>
        <time>2013-06-30T08:36:45Z</time>
      </trkpt>
      <trkpt lat="41.655692054" lon="2.545536324">
        <ele>481.76</ele>
        <time>2013-06-30T08:36:55Z</time>
      </trkpt>
      <trkpt lat="41.655776795" lon="2.545612265">
        <ele>483.20</ele>
        <time>2013-06-30T08:37:03Z</time>
      </trkpt>
      <trkpt lat="41.655875785" lon="2.545672363">
        <ele>485.12</ele>
        <time>2013-06-30T08:37:11Z</time>
      </trkpt>
      <trkpt lat="41.656004615" lon="2.545700610">
        <ele>486.08</ele>
        <time>2013-06-30T08:37:20Z</time>
      </trkpt>
      <trkpt lat="41.656103857" lon="2.545693820">
        <ele>486.56</ele>
        <time>2013-06-30T08:37:27Z</time>
      </trkpt>
      <trkpt lat="41.656188430" lon="2.545675129">
        <ele>486.56</ele>
        <time>2013-06-30T08:37:33Z</time>
      </trkpt>
      <trkpt lat="41.656336203" lon="2.545649145">
        <ele>487.05</ele>
        <time>2013-06-30T08:37:41Z</time>
      </trkpt>
      <trkpt lat="41.656537621" lon="2.545671608">
        <ele>487.05</ele>
        <time>2013-06-30T08:37:51Z</time>
      </trkpt>
      <trkpt lat="41.656678856" lon="2.545700777">
        <ele>487.05</ele>
        <time>2013-06-30T08:37:58Z</time>
      </trkpt>
      <trkpt lat="41.656889660" lon="2.545760876">
        <ele>487.53</ele>
        <time>2013-06-30T08:38:08Z</time>
      </trkpt>
      <trkpt lat="41.656949340" lon="2.545772527">
        <ele>488.01</ele>
        <time>2013-06-30T08:38:11Z</time>
      </trkpt>
      <trkpt lat="41.657137932" lon="2.545729192">
        <ele>488.01</ele>
        <time>2013-06-30T08:38:20Z</time>
      </trkpt>
      <trkpt lat="41.657340188" lon="2.545674542">
        <ele>488.01</ele>
        <time>2013-06-30T08:38:27Z</time>
      </trkpt>
      <trkpt lat="41.657485027" lon="2.545610588">
        <ele>488.01</ele>
        <time>2013-06-30T08:38:31Z</time>
      </trkpt>
      <trkpt lat="41.657570774" lon="2.545546718">
        <ele>487.05</ele>
        <time>2013-06-30T08:38:33Z</time>
      </trkpt>
      <trkpt lat="41.657657946" lon="2.545458289">
        <ele>486.56</ele>
        <time>2013-06-30T08:38:35Z</time>
      </trkpt>
      <trkpt lat="41.657897836" lon="2.545335829">
        <ele>486.08</ele>
        <time>2013-06-30T08:38:40Z</time>
      </trkpt>
      <trkpt lat="41.657963382" lon="2.545374386">
        <ele>486.08</ele>
        <time>2013-06-30T08:38:42Z</time>
      </trkpt>
      <trkpt lat="41.658057511" lon="2.545472706">
        <ele>487.53</ele>
        <time>2013-06-30T08:38:46Z</time>
      </trkpt>
      <trkpt lat="41.658243925" lon="2.545637494">
        <ele>488.01</ele>
        <time>2013-06-30T08:38:54Z</time>
      </trkpt>
      <trkpt lat="41.658445006" lon="2.545740005">
        <ele>486.56</ele>
        <time>2013-06-30T08:38:59Z</time>
      </trkpt>
      <trkpt lat="41.658496639" lon="2.545765486">
        <ele>486.56</ele>
        <time>2013-06-30T08:39:00Z</time>
      </trkpt>
      <trkpt lat="41.658556737" lon="2.545791386">
        <ele>485.60</ele>
        <time>2013-06-30T08:39:01Z</time>
      </trkpt>
      <trkpt lat="41.658805177" lon="2.545735059">
        <ele>484.16</ele>
        <time>2013-06-30T08:39:05Z</time>
      </trkpt>
      <trkpt lat="41.658880027" lon="2.545620814">
        <ele>483.68</ele>
        <time>2013-06-30T08:39:07Z</time>
      </trkpt>
      <trkpt lat="41.659119750" lon="2.545316048">
        <ele>483.68</ele>
        <time>2013-06-30T08:39:15Z</time>
      </trkpt>
      <trkpt lat="41.659291243" lon="2.545255782">
        <ele>485.60</ele>
        <time>2013-06-30T08:39:21Z</time>
      </trkpt>
      <trkpt lat="41.659495427" lon="2.545163246">
        <ele>487.53</ele>
        <time>2013-06-30T08:39:29Z</time>
      </trkpt>
      <trkpt lat="41.659736071" lon="2.545043804">
        <ele>488.01</ele>
        <time>2013-06-30T08:39:38Z</time>
      </trkpt>
      <trkpt lat="41.659773370" lon="2.545040200">
        <ele>488.01</ele>
        <time>2013-06-30T08:39:39Z</time>
      </trkpt>
      <trkpt lat="41.660056427" lon="2.545052605">
        <ele>486.56</ele>
        <time>2013-06-30T08:39:44Z</time>
      </trkpt>
      <trkpt lat="41.660338311" lon="2.544890583">
        <ele>484.16</ele>
        <time>2013-06-30T08:39:48Z</time>
      </trkpt>
      <trkpt lat="41.660545847" lon="2.544701906">
        <ele>482.72</ele>
        <time>2013-06-30T08:39:51Z</time>
      </trkpt>
      <trkpt lat="41.660840219" lon="2.544626637">
        <ele>481.76</ele>
        <time>2013-06-30T08:39:55Z</time>
      </trkpt>
      <trkpt lat="41.661107434" lon="2.544671815">
        <ele>481.76</ele>
        <time>2013-06-30T08:39:59Z</time>
      </trkpt>
      <trkpt lat="41.661210951" lon="2.544496382">
        <ele>481.76</ele>
        <time>2013-06-30T08:40:02Z</time>
      </trkpt>
      <trkpt lat="41.661291585" lon="2.544276357">
        <ele>483.20</ele>
        <time>2013-06-30T08:40:07Z</time>
      </trkpt>
      <trkpt lat="41.661259733" lon="2.544055242">
        <ele>485.12</ele>
        <time>2013-06-30T08:40:13Z</time>
      </trkpt>
      <trkpt lat="41.661155379" lon="2.543813676">
        <ele>487.05</ele>
        <time>2013-06-30T08:40:21Z</time>
      </trkpt>
      <trkpt lat="41.661015066" lon="2.543563141">
        <ele>487.53</ele>
        <time>2013-06-30T08:40:29Z</time>
      </trkpt>
      <trkpt lat="41.660894869" lon="2.543354347">
        <ele>485.60</ele>
        <time>2013-06-30T08:40:34Z</time>
      </trkpt>
      <trkpt lat="41.661002074" lon="2.543122336">
        <ele>482.24</ele>
        <time>2013-06-30T08:40:38Z</time>
      </trkpt>
      <trkpt lat="41.661109781" lon="2.543044385">
        <ele>481.76</ele>
        <time>2013-06-30T08:40:40Z</time>
      </trkpt>
      <trkpt lat="41.661315138" lon="2.542939276">
        <ele>479.35</ele>
        <time>2013-06-30T08:40:43Z</time>
      </trkpt>
      <trkpt lat="41.661468107" lon="2.542723609">
        <ele>475.03</ele>
        <time>2013-06-30T08:40:47Z</time>
      </trkpt>
      <trkpt lat="41.661476405" lon="2.542665020">
        <ele>474.55</ele>
        <time>2013-06-30T08:40:48Z</time>
      </trkpt>
      <trkpt lat="41.661485877" lon="2.542573741">
        <ele>474.07</ele>
        <time>2013-06-30T08:40:50Z</time>
      </trkpt>
      <trkpt lat="41.661568523" lon="2.542544069">
        <ele>474.55</ele>
        <time>2013-06-30T08:40:56Z</time>
      </trkpt>
      <trkpt lat="41.661619736" lon="2.542586230">
        <ele>474.55</ele>
        <time>2013-06-30T08:41:02Z</time>
      </trkpt>
      <trkpt lat="41.661664831" lon="2.542676587">
        <ele>475.51</ele>
        <time>2013-06-30T08:41:09Z</time>
      </trkpt>
      <trkpt lat="41.661698358" lon="2.542774823">
        <ele>476.95</ele>
        <time>2013-06-30T08:41:17Z</time>
      </trkpt>
      <trkpt lat="41.661709506" lon="2.542788234">
        <ele>476.47</ele>
        <time>2013-06-30T08:41:30Z</time>
      </trkpt>
      <trkpt lat="41.661701376" lon="2.542799298">
        <ele>476.47</ele>
        <time>2013-06-30T08:41:46Z</time>
      </trkpt>
      <trkpt lat="41.661706153" lon="2.542802818">
        <ele>476.47</ele>
        <time>2013-06-30T08:42:05Z</time>
      </trkpt>
      <trkpt lat="41.661711937" lon="2.542799801">
        <ele>476.95</ele>
        <time>2013-06-30T08:42:21Z</time>
      </trkpt>
      <trkpt lat="41.661764743" lon="2.542876663">
        <ele>476.95</ele>
        <time>2013-06-30T08:42:28Z</time>
      </trkpt>
      <trkpt lat="41.661930788" lon="2.543026615">
        <ele>475.51</ele>
        <time>2013-06-30T08:42:34Z</time>
      </trkpt>
      <trkpt lat="41.662072946" lon="2.543185536">
        <ele>474.07</ele>
        <time>2013-06-30T08:42:38Z</time>
      </trkpt>
      <trkpt lat="41.662280901" lon="2.543285364">
        <ele>473.59</ele>
        <time>2013-06-30T08:42:43Z</time>
      </trkpt>
      <trkpt lat="41.662368491" lon="2.543424839">
        <ele>473.59</ele>
        <time>2013-06-30T08:42:48Z</time>
      </trkpt>
      <trkpt lat="41.662378885" lon="2.543471610">
        <ele>473.11</ele>
        <time>2013-06-30T08:42:49Z</time>
      </trkpt>
      <trkpt lat="41.662495561" lon="2.543699263">
        <ele>470.70</ele>
        <time>2013-06-30T08:42:54Z</time>
      </trkpt>
      <trkpt lat="41.662644508" lon="2.543794733">
        <ele>469.26</ele>
        <time>2013-06-30T08:42:57Z</time>
      </trkpt>
      <trkpt lat="41.662780713" lon="2.544025319">
        <ele>466.86</ele>
        <time>2013-06-30T08:43:01Z</time>
      </trkpt>
      <trkpt lat="41.662976096" lon="2.544349363">
        <ele>462.53</ele>
        <time>2013-06-30T08:43:07Z</time>
      </trkpt>
      <trkpt lat="41.663052371" lon="2.544223718">
        <ele>460.61</ele>
        <time>2013-06-30T08:43:10Z</time>
      </trkpt>
      <trkpt lat="41.663071482" lon="2.544163201">
        <ele>460.61</ele>
        <time>2013-06-30T08:43:11Z</time>
      </trkpt>
      <trkpt lat="41.663171645" lon="2.544030599">
        <ele>457.24</ele>
        <time>2013-06-30T08:43:15Z</time>
      </trkpt>
      <trkpt lat="41.663201485" lon="2.544022720">
        <ele>457.24</ele>
        <time>2013-06-30T08:43:16Z</time>
      </trkpt>
      <trkpt lat="41.663298631" lon="2.544071084">
        <ele>456.28</ele>
        <time>2013-06-30T08:43:19Z</time>
      </trkpt>
      <trkpt lat="41.663371721" lon="2.544194717">
        <ele>452.92</ele>
        <time>2013-06-30T08:43:23Z</time>
      </trkpt>
      <trkpt lat="41.663492337" lon="2.544160938">
        <ele>451.96</ele>
        <time>2013-06-30T08:43:27Z</time>
      </trkpt>
      <trkpt lat="41.663626950" lon="2.544047698">
        <ele>451.96</ele>
        <time>2013-06-30T08:43:32Z</time>
      </trkpt>
      <trkpt lat="41.663806239" lon="2.543922640">
        <ele>451.96</ele>
        <time>2013-06-30T08:43:38Z</time>
      </trkpt>
      <trkpt lat="41.663917551" lon="2.543898417">
        <ele>453.40</ele>
        <time>2013-06-30T08:43:42Z</time>
      </trkpt>
      <trkpt lat="41.664054260" lon="2.543788027">
        <ele>453.40</ele>
        <time>2013-06-30T08:43:48Z</time>
      </trkpt>
      <trkpt lat="41.664193064" lon="2.543494828">
        <ele>453.88</ele>
        <time>2013-06-30T08:43:55Z</time>
      </trkpt>
      <trkpt lat="41.664292474" lon="2.543283604">
        <ele>453.88</ele>
        <time>2013-06-30T08:44:00Z</time>
      </trkpt>
      <trkpt lat="41.664468829" lon="2.543225266">
        <ele>454.36</ele>
        <time>2013-06-30T08:44:06Z</time>
      </trkpt>
      <trkpt lat="41.664607130" lon="2.543251250">
        <ele>455.32</ele>
        <time>2013-06-30T08:44:11Z</time>
      </trkpt>
      <trkpt lat="41.664796896" lon="2.543441435">
        <ele>454.36</ele>
        <time>2013-06-30T08:44:16Z</time>
      </trkpt>
      <trkpt lat="41.664957158" lon="2.543480160">
        <ele>453.88</ele>
        <time>2013-06-30T08:44:19Z</time>
      </trkpt>
      <trkpt lat="41.665188918" lon="2.543605050">
        <ele>451.00</ele>
        <time>2013-06-30T08:44:25Z</time>
      </trkpt>
      <trkpt lat="41.665226804" lon="2.543726839">
        <ele>450.03</ele>
        <time>2013-06-30T08:44:27Z</time>
      </trkpt>
      <trkpt lat="41.665395113" lon="2.543933705">
        <ele>449.07</ele>
        <time>2013-06-30T08:44:31Z</time>
      </trkpt>
      <trkpt lat="41.665590076" lon="2.544089943">
        <ele>449.07</ele>
        <time>2013-06-30T08:44:36Z</time>
      </trkpt>
      <trkpt lat="41.665747656" lon="2.544261772">
        <ele>449.07</ele>
        <time>2013-06-30T08:44:43Z</time>
      </trkpt>
      <trkpt lat="41.665972877" lon="2.544377191">
        <ele>449.07</ele>
        <time>2013-06-30T08:44:50Z</time>
      </trkpt>
      <trkpt lat="41.666058289" lon="2.544396553">
        <ele>449.07</ele>
        <time>2013-06-30T08:44:53Z</time>
      </trkpt>
      <trkpt lat="41.666197345" lon="2.544553882">
        <ele>447.63</ele>
        <time>2013-06-30T08:44:57Z</time>
      </trkpt>
      <trkpt lat="41.666399097" lon="2.544825791">
        <ele>446.67</ele>
        <time>2013-06-30T08:45:03Z</time>
      </trkpt>
      <trkpt lat="41.666497333" lon="2.544853954">
        <ele>446.67</ele>
        <time>2013-06-30T08:45:06Z</time>
      </trkpt>
      <trkpt lat="41.666630186" lon="2.544904916">
        <ele>448.11</ele>
        <time>2013-06-30T08:45:10Z</time>
      </trkpt>
      <trkpt lat="41.666879464" lon="2.545013713">
        <ele>449.55</ele>
        <time>2013-06-30T08:45:18Z</time>
      </trkpt>
      <trkpt lat="41.667098232" lon="2.545088060">
        <ele>450.03</ele>
        <time>2013-06-30T08:45:25Z</time>
      </trkpt>
      <trkpt lat="41.667151457" lon="2.545237845">
        <ele>450.03</ele>
        <time>2013-06-30T08:45:28Z</time>
      </trkpt>
      <trkpt lat="41.667271402" lon="2.545384277">
        <ele>449.07</ele>
        <time>2013-06-30T08:45:32Z</time>
      </trkpt>
      <trkpt lat="41.667398639" lon="2.545380589">
        <ele>449.07</ele>
        <time>2013-06-30T08:45:36Z</time>
      </trkpt>
      <trkpt lat="41.667542137" lon="2.545409590">
        <ele>450.52</ele>
        <time>2013-06-30T08:45:42Z</time>
      </trkpt>
      <trkpt lat="41.667682031" lon="2.545450242">
        <ele>451.48</ele>
        <time>2013-06-30T08:45:49Z</time>
      </trkpt>
      <trkpt lat="41.667833576" lon="2.545489218">
        <ele>453.40</ele>
        <time>2013-06-30T08:45:56Z</time>
      </trkpt>
      <trkpt lat="41.667974308" lon="2.545596507">
        <ele>453.88</ele>
        <time>2013-06-30T08:46:03Z</time>
      </trkpt>
      <trkpt lat="41.668104144" lon="2.545645960">
        <ele>454.36</ele>
        <time>2013-06-30T08:46:09Z</time>
      </trkpt>
      <trkpt lat="41.668257533" lon="2.545568260">
        <ele>456.28</ele>
        <time>2013-06-30T08:46:16Z</time>
      </trkpt>
      <trkpt lat="41.668447131" lon="2.545516040">
        <ele>458.21</ele>
        <time>2013-06-30T08:46:24Z</time>
      </trkpt>
      <trkpt lat="41.668647375" lon="2.545442112">
        <ele>460.13</ele>
        <time>2013-06-30T08:46:32Z</time>
      </trkpt>
      <trkpt lat="41.668725159" lon="2.545467258">
        <ele>460.61</ele>
        <time>2013-06-30T08:46:36Z</time>
      </trkpt>
      <trkpt lat="41.668858683" lon="2.545615114">
        <ele>460.61</ele>
        <time>2013-06-30T08:46:41Z</time>
      </trkpt>
      <trkpt lat="41.669049204" lon="2.545928514">
        <ele>460.61</ele>
        <time>2013-06-30T08:46:49Z</time>
      </trkpt>
      <trkpt lat="41.669236623" lon="2.546088776">
        <ele>460.61</ele>
        <time>2013-06-30T08:46:57Z</time>
      </trkpt>
      <trkpt lat="41.669267217" lon="2.546113670">
        <ele>460.61</ele>
        <time>2013-06-30T08:46:58Z</time>
      </trkpt>
      <trkpt lat="41.669539293" lon="2.546202015">
        <ele>459.17</ele>
        <time>2013-06-30T08:47:04Z</time>
      </trkpt>
      <trkpt lat="41.669656892" lon="2.546160692">
        <ele>458.21</ele>
        <time>2013-06-30T08:47:06Z</time>
      </trkpt>
      <trkpt lat="41.669924442" lon="2.546116939">
        <ele>456.28</ele>
        <time>2013-06-30T08:47:11Z</time>
      </trkpt>
      <trkpt lat="41.670100965" lon="2.546072599">
        <ele>455.30</ele>
        <time>2013-06-30T08:47:14Z</time>
      </trkpt>
      <trkpt lat="41.670439594" lon="2.546087016">
        <ele>454.40</ele>
        <time>2013-06-30T08:47:20Z</time>
      </trkpt>
      <trkpt lat="41.670649728" lon="2.546085339">
        <ele>453.40</ele>
        <time>2013-06-30T08:47:24Z</time>
      </trkpt>
      <trkpt lat="41.670927923" lon="2.546070838">
        <ele>451.50</ele>
        <time>2013-06-30T08:47:29Z</time>
      </trkpt>
      <trkpt lat="41.671220871" lon="2.546197740">
        <ele>448.10</ele>
        <time>2013-06-30T08:47:36Z</time>
      </trkpt>
      <trkpt lat="41.671380965" lon="2.546273094">
        <ele>446.70</ele>
        <time>2013-06-30T08:47:41Z</time>
      </trkpt>
      <trkpt lat="41.671420276" lon="2.546295138">
        <ele>445.70</ele>
        <time>2013-06-30T08:47:42Z</time>
      </trkpt>
      <trkpt lat="41.671582215" lon="2.546321541">
        <ele>444.30</ele>
        <time>2013-06-30T08:47:45Z</time>
      </trkpt>
      <trkpt lat="41.671852196" lon="2.546172092">
        <ele>441.40</ele>
        <time>2013-06-30T08:47:50Z</time>
      </trkpt>
      <trkpt lat="41.671933081" lon="2.545944607">
        <ele>439.50</ele>
        <time>2013-06-30T08:47:54Z</time>
      </trkpt>
      <trkpt lat="41.671963424" lon="2.545877887">
        <ele>439.50</ele>
        <time>2013-06-30T08:47:55Z</time>
      </trkpt>
      <trkpt lat="41.672055038" lon="2.545781160">
        <ele>438.50</ele>
        <time>2013-06-30T08:47:57Z</time>
      </trkpt>
      <trkpt lat="41.672293922" lon="2.545572953">
        <ele>436.60</ele>
        <time>2013-06-30T08:48:02Z</time>
      </trkpt>
      <trkpt lat="41.672318565" lon="2.545537582">
        <ele>436.10</ele>
        <time>2013-06-30T08:48:03Z</time>
      </trkpt>
      <trkpt lat="41.672379920" lon="2.545448566">
        <ele>434.70</ele>
        <time>2013-06-30T08:48:06Z</time>
      </trkpt>
      <trkpt lat="41.672457956" lon="2.545255866">
        <ele>432.70</ele>
        <time>2013-06-30T08:48:10Z</time>
      </trkpt>
      <trkpt lat="41.672567591" lon="2.544955207">
        <ele>427.90</ele>
        <time>2013-06-30T08:48:15Z</time>
      </trkpt>
      <trkpt lat="41.672617044" lon="2.544792598">
        <ele>426.50</ele>
        <time>2013-06-30T08:48:20Z</time>
      </trkpt>
      <trkpt lat="41.672627103" lon="2.544776589">
        <ele>426.50</ele>
        <time>2013-06-30T08:48:26Z</time>
      </trkpt>
      <trkpt lat="41.672625845" lon="2.544773404">
        <ele>426.00</ele>
        <time>2013-06-30T08:48:41Z</time>
      </trkpt>
      <trkpt lat="41.672624337" lon="2.544772230">
        <ele>426.00</ele>
        <time>2013-06-30T08:48:52Z</time>
      </trkpt>
      <trkpt lat="41.672626181" lon="2.544751527">
        <ele>426.00</ele>
        <time>2013-06-30T08:49:02Z</time>
      </trkpt>
      <trkpt lat="41.672645627" lon="2.544677179">
        <ele>426.00</ele>
        <time>2013-06-30T08:49:15Z</time>
      </trkpt>
      <trkpt lat="41.672737912" lon="2.544554804">
        <ele>424.60</ele>
        <time>2013-06-30T08:49:22Z</time>
      </trkpt>
      <trkpt lat="41.672872525" lon="2.544463860">
        <ele>422.60</ele>
        <time>2013-06-30T08:49:28Z</time>
      </trkpt>
      <trkpt lat="41.672999259" lon="2.544425555">
        <ele>420.20</ele>
        <time>2013-06-30T08:49:34Z</time>
      </trkpt>
      <trkpt lat="41.673124233" lon="2.544431003">
        <ele>417.80</ele>
        <time>2013-06-30T08:49:40Z</time>
      </trkpt>
      <trkpt lat="41.673334116" lon="2.544453131">
        <ele>415.40</ele>
        <time>2013-06-30T08:49:47Z</time>
      </trkpt>
      <trkpt lat="41.673426652" lon="2.544490431">
        <ele>414.00</ele>
        <time>2013-06-30T08:49:50Z</time>
      </trkpt>
      <trkpt lat="41.673460348" lon="2.544500908">
        <ele>413.00</ele>
        <time>2013-06-30T08:49:51Z</time>
      </trkpt>
      <trkpt lat="41.673586579" lon="2.544532089">
        <ele>411.60</ele>
        <time>2013-06-30T08:49:55Z</time>
      </trkpt>
      <trkpt lat="41.673810292" lon="2.544538627">
        <ele>408.20</ele>
        <time>2013-06-30T08:50:00Z</time>
      </trkpt>
      <trkpt lat="41.674021600" lon="2.544496298">
        <ele>405.30</ele>
        <time>2013-06-30T08:50:05Z</time>
      </trkpt>
      <trkpt lat="41.674171385" lon="2.544366378">
        <ele>402.50</ele>
        <time>2013-06-30T08:50:12Z</time>
      </trkpt>
      <trkpt lat="41.674292755" lon="2.544255654">
        <ele>400.10</ele>
        <time>2013-06-30T08:50:18Z</time>
      </trkpt>
      <trkpt lat="41.674332233" lon="2.544194214">
        <ele>399.10</ele>
        <time>2013-06-30T08:50:22Z</time>
      </trkpt>
      <trkpt lat="41.674375484" lon="2.544157082">
        <ele>398.10</ele>
        <time>2013-06-30T08:50:26Z</time>
      </trkpt>
      <trkpt lat="41.674387638" lon="2.544132523">
        <ele>397.20</ele>
        <time>2013-06-30T08:50:28Z</time>
      </trkpt>
      <trkpt lat="41.674403731" lon="2.544101510">
        <ele>396.20</ele>
        <time>2013-06-30T08:50:31Z</time>
      </trkpt>
      <trkpt lat="41.674443880" lon="2.544081813">
        <ele>394.80</ele>
        <time>2013-06-30T08:50:35Z</time>
      </trkpt>
      <trkpt lat="41.674492663" lon="2.544031270">
        <ele>392.80</ele>
        <time>2013-06-30T08:50:42Z</time>
      </trkpt>
      <trkpt lat="41.674503308" lon="2.544015847">
        <ele>392.40</ele>
        <time>2013-06-30T08:50:52Z</time>
      </trkpt>
      <trkpt lat="41.674585367" lon="2.544020709">
        <ele>390.90</ele>
        <time>2013-06-30T08:50:58Z</time>
      </trkpt>
      <trkpt lat="41.674700366" lon="2.544116179">
        <ele>388.00</ele>
        <time>2013-06-30T08:51:06Z</time>
      </trkpt>
      <trkpt lat="41.674765075" lon="2.544229083">
        <ele>386.60</ele>
        <time>2013-06-30T08:51:12Z</time>
      </trkpt>
      <trkpt lat="41.674821234" lon="2.544325726">
        <ele>384.20</ele>
        <time>2013-06-30T08:51:18Z</time>
      </trkpt>
      <trkpt lat="41.674908322" lon="2.544447599">
        <ele>382.30</ele>
        <time>2013-06-30T08:51:24Z</time>
      </trkpt>
      <trkpt lat="41.674932713" lon="2.544478444">
        <ele>381.80</ele>
        <time>2013-06-30T08:51:26Z</time>
      </trkpt>
      <trkpt lat="41.675074618" lon="2.544524461">
        <ele>377.90</ele>
        <time>2013-06-30T08:51:34Z</time>
      </trkpt>
      <trkpt lat="41.675257176" lon="2.544528736">
        <ele>375.10</ele>
        <time>2013-06-30T08:51:41Z</time>
      </trkpt>
      <trkpt lat="41.675393718" lon="2.544600653">
        <ele>374.10</ele>
        <time>2013-06-30T08:51:47Z</time>
      </trkpt>
      <trkpt lat="41.675428083" lon="2.544629235">
        <ele>373.60</ele>
        <time>2013-06-30T08:51:49Z</time>
      </trkpt>
      <trkpt lat="41.675532438" lon="2.544749934">
        <ele>370.70</ele>
        <time>2013-06-30T08:51:56Z</time>
      </trkpt>
      <trkpt lat="41.675583819" lon="2.544724621">
        <ele>368.80</ele>
        <time>2013-06-30T08:51:59Z</time>
      </trkpt>
      <trkpt lat="41.675628159" lon="2.544599312">
        <ele>365.90</ele>
        <time>2013-06-30T08:52:05Z</time>
      </trkpt>
      <trkpt lat="41.675631428" lon="2.544563269">
        <ele>365.00</ele>
        <time>2013-06-30T08:52:07Z</time>
      </trkpt>
      <trkpt lat="41.675620783" lon="2.544492694">
        <ele>363.00</ele>
        <time>2013-06-30T08:52:11Z</time>
      </trkpt>
      <trkpt lat="41.675569235" lon="2.544359673">
        <ele>360.60</ele>
        <time>2013-06-30T08:52:18Z</time>
      </trkpt>
      <trkpt lat="41.675500419" lon="2.544203015">
        <ele>356.80</ele>
        <time>2013-06-30T08:52:26Z</time>
      </trkpt>
      <trkpt lat="41.675397070" lon="2.544068067">
        <ele>354.90</ele>
        <time>2013-06-30T08:52:32Z</time>
      </trkpt>
      <trkpt lat="41.675376954" lon="2.543887437">
        <ele>351.50</ele>
        <time>2013-06-30T08:52:41Z</time>
      </trkpt>
      <trkpt lat="41.675380139" lon="2.543829601">
        <ele>350.10</ele>
        <time>2013-06-30T08:52:43Z</time>
      </trkpt>
      <trkpt lat="41.675380977" lon="2.543699933">
        <ele>348.60</ele>
        <time>2013-06-30T08:52:48Z</time>
      </trkpt>
      <trkpt lat="41.675344516" lon="2.543513185">
        <ele>346.20</ele>
        <time>2013-06-30T08:52:56Z</time>
      </trkpt>
      <trkpt lat="41.675327584" lon="2.543319311">
        <ele>343.30</ele>
        <time>2013-06-30T08:53:03Z</time>
      </trkpt>
      <trkpt lat="41.675307719" lon="2.543148236">
        <ele>340.90</ele>
        <time>2013-06-30T08:53:10Z</time>
      </trkpt>
      <trkpt lat="41.675310318" lon="2.543013455">
        <ele>339.00</ele>
        <time>2013-06-30T08:53:16Z</time>
      </trkpt>
      <trkpt lat="41.675309898" lon="2.542988310">
        <ele>338.50</ele>
        <time>2013-06-30T08:53:17Z</time>
      </trkpt>
      <trkpt lat="41.675386425" lon="2.542964924">
        <ele>336.60</ele>
        <time>2013-06-30T08:53:22Z</time>
      </trkpt>
      <trkpt lat="41.675418193" lon="2.543023598">
        <ele>335.20</ele>
        <time>2013-06-30T08:53:25Z</time>
      </trkpt>
      <trkpt lat="41.675429173" lon="2.543051090">
        <ele>334.70</ele>
        <time>2013-06-30T08:53:26Z</time>
      </trkpt>
      <trkpt lat="41.675564708" lon="2.543206407">
        <ele>331.30</ele>
        <time>2013-06-30T08:53:33Z</time>
      </trkpt>
      <trkpt lat="41.675614581" lon="2.543107836">
        <ele>328.40</ele>
        <time>2013-06-30T08:53:38Z</time>
      </trkpt>
      <trkpt lat="41.675592117" lon="2.543060059">
        <ele>328.00</ele>
        <time>2013-06-30T08:53:40Z</time>
      </trkpt>
      <trkpt lat="41.675556243" lon="2.542982945">
        <ele>327.00</ele>
        <time>2013-06-30T08:53:43Z</time>
      </trkpt>
      <trkpt lat="41.675605193" lon="2.542876411">
        <ele>324.60</ele>
        <time>2013-06-30T08:53:48Z</time>
      </trkpt>
      <trkpt lat="41.675683396" lon="2.542931983">
        <ele>321.20</ele>
        <time>2013-06-30T08:53:53Z</time>
      </trkpt>
      <trkpt lat="41.675708961" lon="2.542951429">
        <ele>321.20</ele>
        <time>2013-06-30T08:53:54Z</time>
      </trkpt>
      <trkpt lat="41.675800575" lon="2.543058885">
        <ele>318.30</ele>
        <time>2013-06-30T08:53:58Z</time>
      </trkpt>
      <trkpt lat="41.675881880" lon="2.543170951">
        <ele>315.90</ele>
        <time>2013-06-30T08:54:03Z</time>
      </trkpt>
      <trkpt lat="41.675903337" lon="2.543183608">
        <ele>315.50</ele>
        <time>2013-06-30T08:54:04Z</time>
      </trkpt>
      <trkpt lat="41.675981708" lon="2.543121833">
        <ele>312.60</ele>
        <time>2013-06-30T08:54:11Z</time>
      </trkpt>
      <trkpt lat="41.675986318" lon="2.543100460">
        <ele>312.60</ele>
        <time>2013-06-30T08:54:12Z</time>
      </trkpt>
      <trkpt lat="41.675989084" lon="2.542948999">
        <ele>309.70</ele>
        <time>2013-06-30T08:54:17Z</time>
      </trkpt>
      <trkpt lat="41.675992185" lon="2.542928044">
        <ele>309.70</ele>
        <time>2013-06-30T08:54:18Z</time>
      </trkpt>
      <trkpt lat="41.675933931" lon="2.542752192">
        <ele>308.70</ele>
        <time>2013-06-30T08:54:25Z</time>
      </trkpt>
      <trkpt lat="41.675863439" lon="2.542615315">
        <ele>307.30</ele>
        <time>2013-06-30T08:54:31Z</time>
      </trkpt>
      <trkpt lat="41.675847262" lon="2.542579860">
        <ele>306.80</ele>
        <time>2013-06-30T08:54:41Z</time>
      </trkpt>
      <trkpt lat="41.675826224" lon="2.542557312">
        <ele>306.80</ele>
        <time>2013-06-30T08:54:52Z</time>
      </trkpt>
      <trkpt lat="41.675811807" lon="2.542530574">
        <ele>306.30</ele>
        <time>2013-06-30T08:55:00Z</time>
      </trkpt>
      <trkpt lat="41.675804934" lon="2.542528059">
        <ele>305.80</ele>
        <time>2013-06-30T08:55:01Z</time>
      </trkpt>
      <trkpt lat="41.675725725" lon="2.542424124">
        <ele>304.90</ele>
        <time>2013-06-30T08:55:09Z</time>
      </trkpt>
      <trkpt lat="41.675603852" lon="2.542259252">
        <ele>302.00</ele>
        <time>2013-06-30T08:55:18Z</time>
      </trkpt>
      <trkpt lat="41.675563451" lon="2.542080550">
        <ele>299.60</ele>
        <time>2013-06-30T08:55:24Z</time>
      </trkpt>
      <trkpt lat="41.675571162" lon="2.542054063">
        <ele>299.60</ele>
        <time>2013-06-30T08:55:32Z</time>
      </trkpt>
      <trkpt lat="41.675565882" lon="2.542034030">
        <ele>299.10</ele>
        <time>2013-06-30T08:55:36Z</time>
      </trkpt>
      <trkpt lat="41.675594799" lon="2.541901177">
        <ele>298.20</ele>
        <time>2013-06-30T08:55:43Z</time>
      </trkpt>
      <trkpt lat="41.675616509" lon="2.541825740">
        <ele>298.20</ele>
        <time>2013-06-30T08:55:49Z</time>
      </trkpt>
      <trkpt lat="41.675615838" lon="2.541775197">
        <ele>297.70</ele>
        <time>2013-06-30T08:56:02Z</time>
      </trkpt>
      <trkpt lat="41.675631931" lon="2.541740915">
        <ele>297.70</ele>
        <time>2013-06-30T08:56:16Z</time>
      </trkpt>
      <trkpt lat="41.675618101" lon="2.541725408">
        <ele>297.70</ele>
        <time>2013-06-30T08:56:32Z</time>
      </trkpt>
      <trkpt lat="41.675597817" lon="2.541755919">
        <ele>297.70</ele>
        <time>2013-06-30T08:56:47Z</time>
      </trkpt>
      <trkpt lat="41.675582227" lon="2.541741166">
        <ele>297.70</ele>
        <time>2013-06-30T08:57:00Z</time>
      </trkpt>
      <trkpt lat="41.675560517" lon="2.541716104">
        <ele>297.70</ele>
        <time>2013-06-30T08:57:16Z</time>
      </trkpt>
      <trkpt lat="41.675568564" lon="2.541702526">
        <ele>297.70</ele>
        <time>2013-06-30T08:57:29Z</time>
      </trkpt>
      <trkpt lat="41.675580299" lon="2.541688360">
        <ele>297.70</ele>
        <time>2013-06-30T08:57:49Z</time>
      </trkpt>
      <trkpt lat="41.675570157" lon="2.541697078">
        <ele>297.70</ele>
        <time>2013-06-30T08:58:02Z</time>
      </trkpt>
      <trkpt lat="41.675556243" lon="2.541713674">
        <ele>297.70</ele>
        <time>2013-06-30T08:58:16Z</time>
      </trkpt>
      <trkpt lat="41.675570743" lon="2.541730689">
        <ele>297.70</ele>
        <time>2013-06-30T08:58:28Z</time>
      </trkpt>
      <trkpt lat="41.675607372" lon="2.541750219">
        <ele>297.70</ele>
        <time>2013-06-30T08:58:36Z</time>
      </trkpt>
      <trkpt lat="41.675619777" lon="2.541779053">
        <ele>297.70</ele>
        <time>2013-06-30T08:58:52Z</time>
      </trkpt>
      <trkpt lat="41.675631680" lon="2.541818112">
        <ele>297.70</ele>
        <time>2013-06-30T08:59:11Z</time>
      </trkpt>
      <trkpt lat="41.675637547" lon="2.541821549">
        <ele>297.70</ele>
        <time>2013-06-30T08:59:21Z</time>
      </trkpt>
      <trkpt lat="41.675658837" lon="2.541833200">
        <ele>297.70</ele>
        <time>2013-06-30T08:59:40Z</time>
      </trkpt>
      <trkpt lat="41.675637631" lon="2.541806797">
        <ele>297.70</ele>
        <time>2013-06-30T08:59:56Z</time>
      </trkpt>
      <trkpt lat="41.675621957" lon="2.541787686">
        <ele>297.70</ele>
        <time>2013-06-30T09:00:04Z</time>
      </trkpt>
      <trkpt lat="41.675622963" lon="2.541759942">
        <ele>297.70</ele>
        <time>2013-06-30T09:00:14Z</time>
      </trkpt>
      <trkpt lat="41.675596895" lon="2.541791793">
        <ele>297.70</ele>
        <time>2013-06-30T09:00:27Z</time>
      </trkpt>
      <trkpt lat="41.675574012" lon="2.541779891">
        <ele>297.70</ele>
        <time>2013-06-30T09:00:39Z</time>
      </trkpt>
      <trkpt lat="41.675453732" lon="2.541678051">
        <ele>297.70</ele>
        <time>2013-06-30T09:00:48Z</time>
      </trkpt>
      <trkpt lat="41.675285256" lon="2.541572103">
        <ele>297.70</ele>
        <time>2013-06-30T09:00:56Z</time>
      </trkpt>
      <trkpt lat="41.675181404" lon="2.541450650">
        <ele>298.60</ele>
        <time>2013-06-30T09:01:03Z</time>
      </trkpt>
      <trkpt lat="41.675057352" lon="2.541293154">
        <ele>298.60</ele>
        <time>2013-06-30T09:01:09Z</time>
      </trkpt>
      <trkpt lat="41.674944028" lon="2.541064579">
        <ele>298.60</ele>
        <time>2013-06-30T09:01:15Z</time>
      </trkpt>
      <trkpt lat="41.674930366" lon="2.540844219">
        <ele>294.80</ele>
        <time>2013-06-30T09:01:21Z</time>
      </trkpt>
      <trkpt lat="41.674911088" lon="2.540683370">
        <ele>293.30</ele>
        <time>2013-06-30T09:01:26Z</time>
      </trkpt>
      <trkpt lat="41.674888121" lon="2.540488575">
        <ele>290.90</ele>
        <time>2013-06-30T09:01:33Z</time>
      </trkpt>
      <trkpt lat="41.674844619" lon="2.540297216">
        <ele>290.00</ele>
        <time>2013-06-30T09:01:38Z</time>
      </trkpt>
      <trkpt lat="41.674696846" lon="2.540139049">
        <ele>289.00</ele>
        <time>2013-06-30T09:01:45Z</time>
      </trkpt>
      <trkpt lat="41.674680585" lon="2.540087249">
        <ele>289.00</ele>
        <time>2013-06-30T09:01:47Z</time>
      </trkpt>
      <trkpt lat="41.674753424" lon="2.539876780">
        <ele>287.10</ele>
        <time>2013-06-30T09:01:54Z</time>
      </trkpt>
      <trkpt lat="41.674884182" lon="2.539656252">
        <ele>286.10</ele>
        <time>2013-06-30T09:02:02Z</time>
      </trkpt>
      <trkpt lat="41.674969342" lon="2.539439160">
        <ele>284.70</ele>
        <time>2013-06-30T09:02:10Z</time>
      </trkpt>
      <trkpt lat="41.675031703" lon="2.539301446">
        <ele>284.20</ele>
        <time>2013-06-30T09:02:15Z</time>
      </trkpt>
      <trkpt lat="41.675135303" lon="2.539157612">
        <ele>283.70</ele>
        <time>2013-06-30T09:02:23Z</time>
      </trkpt>
      <trkpt lat="41.675316185" lon="2.539082930">
        <ele>283.30</ele>
        <time>2013-06-30T09:02:30Z</time>
      </trkpt>
      <trkpt lat="41.675586585" lon="2.539043702">
        <ele>282.80</ele>
        <time>2013-06-30T09:02:39Z</time>
      </trkpt>
      <trkpt lat="41.675742405" lon="2.539022245">
        <ele>282.80</ele>
        <time>2013-06-30T09:02:44Z</time>
      </trkpt>
      <trkpt lat="41.675919095" lon="2.538921159">
        <ele>282.80</ele>
        <time>2013-06-30T09:02:50Z</time>
      </trkpt>
      <trkpt lat="41.676018253" lon="2.538728375">
        <ele>282.80</ele>
        <time>2013-06-30T09:02:56Z</time>
      </trkpt>
      <trkpt lat="41.676135935" lon="2.538583117">
        <ele>282.80</ele>
        <time>2013-06-30T09:03:02Z</time>
      </trkpt>
      <trkpt lat="41.676331652" lon="2.538485970">
        <ele>282.80</ele>
        <time>2013-06-30T09:03:09Z</time>
      </trkpt>
      <trkpt lat="41.676557126" lon="2.538356219">
        <ele>282.80</ele>
        <time>2013-06-30T09:03:17Z</time>
      </trkpt>
      <trkpt lat="41.676623175" lon="2.538312381">
        <ele>282.80</ele>
        <time>2013-06-30T09:03:19Z</time>
      </trkpt>
      <trkpt lat="41.676736834" lon="2.538121525">
        <ele>282.30</ele>
        <time>2013-06-30T09:03:24Z</time>
      </trkpt>
      <trkpt lat="41.676798273" lon="2.537984900">
        <ele>282.30</ele>
        <time>2013-06-30T09:03:29Z</time>
      </trkpt>
      <trkpt lat="41.676904975" lon="2.537872248">
        <ele>279.90</ele>
        <time>2013-06-30T09:03:35Z</time>
      </trkpt>
      <trkpt lat="41.677000193" lon="2.537775604">
        <ele>278.00</ele>
        <time>2013-06-30T09:03:41Z</time>
      </trkpt>
      <trkpt lat="41.677030871" lon="2.537650379">
        <ele>275.60</ele>
        <time>2013-06-30T09:03:46Z</time>
      </trkpt>
      <trkpt lat="41.677059872" lon="2.537413171">
        <ele>274.10</ele>
        <time>2013-06-30T09:03:52Z</time>
      </trkpt>
      <trkpt lat="41.677080995" lon="2.537080409">
        <ele>273.20</ele>
        <time>2013-06-30T09:03:59Z</time>
      </trkpt>
      <trkpt lat="41.677056100" lon="2.536731219">
        <ele>272.70</ele>
        <time>2013-06-30T09:04:06Z</time>
      </trkpt>
      <trkpt lat="41.677044785" lon="2.536627870">
        <ele>272.70</ele>
        <time>2013-06-30T09:04:08Z</time>
      </trkpt>
      <trkpt lat="41.677035565" lon="2.536295109">
        <ele>271.20</ele>
        <time>2013-06-30T09:04:13Z</time>
      </trkpt>
      <trkpt lat="41.677046126" lon="2.536240459">
        <ele>270.80</ele>
        <time>2013-06-30T09:04:14Z</time>
      </trkpt>
      <trkpt lat="41.677099435" lon="2.536012555">
        <ele>268.80</ele>
        <time>2013-06-30T09:04:18Z</time>
      </trkpt>
      <trkpt lat="41.677061130" lon="2.535799068">
        <ele>266.90</ele>
        <time>2013-06-30T09:04:23Z</time>
      </trkpt>
      <trkpt lat="41.677057022" lon="2.535749195">
        <ele>266.40</ele>
        <time>2013-06-30T09:04:24Z</time>
      </trkpt>
      <trkpt lat="41.677055095" lon="2.535532188">
        <ele>264.50</ele>
        <time>2013-06-30T09:04:30Z</time>
      </trkpt>
      <trkpt lat="41.677051909" lon="2.535473347">
        <ele>264.00</ele>
        <time>2013-06-30T09:04:37Z</time>
      </trkpt>
      <trkpt lat="41.677054759" lon="2.535378128">
        <ele>263.50</ele>
        <time>2013-06-30T09:04:45Z</time>
      </trkpt>
      <trkpt lat="41.677062974" lon="2.535283245">
        <ele>263.50</ele>
        <time>2013-06-30T09:04:49Z</time>
      </trkpt>
      <trkpt lat="41.677075965" lon="2.535127426">
        <ele>263.10</ele>
        <time>2013-06-30T09:04:57Z</time>
      </trkpt>
      <trkpt lat="41.677087784" lon="2.534929445">
        <ele>262.60</ele>
        <time>2013-06-30T09:05:06Z</time>
      </trkpt>
      <trkpt lat="41.677108320" lon="2.534673965">
        <ele>262.10</ele>
        <time>2013-06-30T09:05:14Z</time>
      </trkpt>
      <trkpt lat="41.677155761" lon="2.534436254">
        <ele>262.10</ele>
        <time>2013-06-30T09:05:21Z</time>
      </trkpt>
      <trkpt lat="41.677194569" lon="2.534248080">
        <ele>262.10</ele>
        <time>2013-06-30T09:05:27Z</time>
      </trkpt>
      <trkpt lat="41.677271096" lon="2.534020260">
        <ele>262.10</ele>
        <time>2013-06-30T09:05:34Z</time>
      </trkpt>
      <trkpt lat="41.677410990" lon="2.533847006">
        <ele>262.10</ele>
        <time>2013-06-30T09:05:40Z</time>
      </trkpt>
      <trkpt lat="41.677562451" lon="2.533781795">
        <ele>262.10</ele>
        <time>2013-06-30T09:05:45Z</time>
      </trkpt>
      <trkpt lat="41.677740399" lon="2.533703005">
        <ele>261.60</ele>
        <time>2013-06-30T09:05:51Z</time>
      </trkpt>
      <trkpt lat="41.677955646" lon="2.533650870">
        <ele>261.60</ele>
        <time>2013-06-30T09:05:58Z</time>
      </trkpt>
      <trkpt lat="41.678138036" lon="2.533597477">
        <ele>261.60</ele>
        <time>2013-06-30T09:06:04Z</time>
      </trkpt>
      <trkpt lat="41.678343561" lon="2.533549449">
        <ele>263.10</ele>
        <time>2013-06-30T09:06:11Z</time>
      </trkpt>
      <trkpt lat="41.678564089" lon="2.533493374">
        <ele>263.50</ele>
        <time>2013-06-30T09:06:19Z</time>
      </trkpt>
      <trkpt lat="41.678699540" lon="2.533466719">
        <ele>263.50</ele>
        <time>2013-06-30T09:06:23Z</time>
      </trkpt>
      <trkpt lat="41.678981004" lon="2.533509970">
        <ele>261.60</ele>
        <time>2013-06-30T09:06:29Z</time>
      </trkpt>
      <trkpt lat="41.679127772" lon="2.533563195">
        <ele>260.70</ele>
        <time>2013-06-30T09:06:32Z</time>
      </trkpt>
      <trkpt lat="41.679405296" lon="2.533580378">
        <ele>259.70</ele>
        <time>2013-06-30T09:06:38Z</time>
      </trkpt>
      <trkpt lat="41.679717941" lon="2.533586916">
        <ele>258.70</ele>
        <time>2013-06-30T09:06:45Z</time>
      </trkpt>
      <trkpt lat="41.679817015" lon="2.533577193">
        <ele>256.80</ele>
        <time>2013-06-30T09:06:47Z</time>
      </trkpt>
      <trkpt lat="41.679904774" lon="2.533532936">
        <ele>256.30</ele>
        <time>2013-06-30T09:06:49Z</time>
      </trkpt>
      <trkpt lat="41.680195794" lon="2.533368316">
        <ele>254.40</ele>
        <time>2013-06-30T09:06:55Z</time>
      </trkpt>
      <trkpt lat="41.680347841" lon="2.533354569">
        <ele>253.00</ele>
        <time>2013-06-30T09:06:58Z</time>
      </trkpt>
      <trkpt lat="41.680400815" lon="2.533356162">
        <ele>252.50</ele>
        <time>2013-06-30T09:06:59Z</time>
      </trkpt>
      <trkpt lat="41.680505421" lon="2.533367226">
        <ele>251.50</ele>
        <time>2013-06-30T09:07:01Z</time>
      </trkpt>
      <trkpt lat="41.680732655" lon="2.533274271">
        <ele>250.60</ele>
        <time>2013-06-30T09:07:06Z</time>
      </trkpt>
      <trkpt lat="41.680775570" lon="2.533180477">
        <ele>250.60</ele>
        <time>2013-06-30T09:07:08Z</time>
      </trkpt>
      <trkpt lat="41.680833992" lon="2.533074446">
        <ele>250.60</ele>
        <time>2013-06-30T09:07:12Z</time>
      </trkpt>
      <trkpt lat="41.680887049" lon="2.533062879">
        <ele>252.00</ele>
        <time>2013-06-30T09:07:15Z</time>
      </trkpt>
      <trkpt lat="41.680911692" lon="2.533080481">
        <ele>253.00</ele>
        <time>2013-06-30T09:07:17Z</time>
      </trkpt>
      <trkpt lat="41.680986375" lon="2.533103028">
        <ele>253.40</ele>
        <time>2013-06-30T09:07:22Z</time>
      </trkpt>
      <trkpt lat="41.681080336" lon="2.533151476">
        <ele>254.90</ele>
        <time>2013-06-30T09:07:29Z</time>
      </trkpt>
      <trkpt lat="41.681085784" lon="2.533145189">
        <ele>254.90</ele>
        <time>2013-06-30T09:07:30Z</time>
      </trkpt>
      <trkpt lat="41.681062566" lon="2.533087857">
        <ele>255.40</ele>
        <time>2013-06-30T09:07:34Z</time>
      </trkpt>
      <trkpt lat="41.681035157" lon="2.533012588">
        <ele>255.90</ele>
        <time>2013-06-30T09:07:39Z</time>
      </trkpt>
      <trkpt lat="41.680965839" lon="2.532976462">
        <ele>254.40</ele>
        <time>2013-06-30T09:07:45Z</time>
      </trkpt>
      <trkpt lat="41.680985201" lon="2.533011666">
        <ele>254.40</ele>
        <time>2013-06-30T09:07:53Z</time>
      </trkpt>
      <trkpt lat="41.680976484" lon="2.533005212">
        <ele>254.40</ele>
        <time>2013-06-30T09:08:07Z</time>
      </trkpt>
      <trkpt lat="41.680977322" lon="2.533004793">
        <ele>254.40</ele>
        <time>2013-06-30T09:08:21Z</time>
      </trkpt>
      <trkpt lat="41.680965504" lon="2.532995572">
        <ele>254.40</ele>
        <time>2013-06-30T09:08:40Z</time>
      </trkpt>
      <trkpt lat="41.680958128" lon="2.532952825">
        <ele>254.40</ele>
        <time>2013-06-30T09:08:57Z</time>
      </trkpt>
      <trkpt lat="41.680956870" lon="2.532936061">
        <ele>254.40</ele>
        <time>2013-06-30T09:09:10Z</time>
      </trkpt>
      <trkpt lat="41.680947986" lon="2.532957770">
        <ele>253.90</ele>
        <time>2013-06-30T09:09:29Z</time>
      </trkpt>
      <trkpt lat="41.680949830" lon="2.533021053">
        <ele>253.90</ele>
        <time>2013-06-30T09:09:51Z</time>
      </trkpt>
      <trkpt lat="41.680961229" lon="2.532995740">
        <ele>254.40</ele>
        <time>2013-06-30T09:10:12Z</time>
      </trkpt>
      <trkpt lat="41.680968018" lon="2.532978222">
        <ele>254.40</ele>
        <time>2013-06-30T09:10:26Z</time>
      </trkpt>
      <trkpt lat="41.680977993" lon="2.532972187">
        <ele>254.40</ele>
        <time>2013-06-30T09:10:41Z</time>
      </trkpt>
      <trkpt lat="41.680956535" lon="2.532972522">
        <ele>254.40</ele>
        <time>2013-06-30T09:10:56Z</time>
      </trkpt>
      <trkpt lat="41.680952260" lon="2.532977216">
        <ele>254.40</ele>
        <time>2013-06-30T09:11:12Z</time>
      </trkpt>
      <trkpt lat="41.680971706" lon="2.532999344">
        <ele>254.40</ele>
        <time>2013-06-30T09:11:30Z</time>
      </trkpt>
      <trkpt lat="41.680990817" lon="2.533005212">
        <ele>254.90</ele>
        <time>2013-06-30T09:11:52Z</time>
      </trkpt>
      <trkpt lat="41.680980172" lon="2.533007978">
        <ele>254.90</ele>
        <time>2013-06-30T09:12:06Z</time>
      </trkpt>
      <trkpt lat="41.680976400" lon="2.533012420">
        <ele>254.90</ele>
        <time>2013-06-30T09:12:22Z</time>
      </trkpt>
      <trkpt lat="41.680969946" lon="2.533011833">
        <ele>254.90</ele>
        <time>2013-06-30T09:12:39Z</time>
      </trkpt>
      <trkpt lat="41.680968940" lon="2.533011163">
        <ele>254.90</ele>
        <time>2013-06-30T09:12:59Z</time>
      </trkpt>
      <trkpt lat="41.680966007" lon="2.533031028">
        <ele>254.90</ele>
        <time>2013-06-30T09:13:16Z</time>
      </trkpt>
      <trkpt lat="41.680952596" lon="2.533023317">
        <ele>254.90</ele>
        <time>2013-06-30T09:13:30Z</time>
      </trkpt>
      <trkpt lat="41.680938849" lon="2.533027843">
        <ele>254.90</ele>
        <time>2013-06-30T09:13:45Z</time>
      </trkpt>
      <trkpt lat="41.680981849" lon="2.533027424">
        <ele>254.90</ele>
        <time>2013-06-30T09:13:51Z</time>
      </trkpt>
      <trkpt lat="41.681008084" lon="2.532993393">
        <ele>256.30</ele>
        <time>2013-06-30T09:13:59Z</time>
      </trkpt>
      <trkpt lat="41.681006156" lon="2.532981491">
        <ele>256.30</ele>
        <time>2013-06-30T09:14:01Z</time>
      </trkpt>
      <trkpt lat="41.680992494" lon="2.532946706">
        <ele>256.80</ele>
        <time>2013-06-30T09:14:04Z</time>
      </trkpt>
      <trkpt lat="41.680948824" lon="2.532698266">
        <ele>256.80</ele>
        <time>2013-06-30T09:14:12Z</time>
      </trkpt>
      <trkpt lat="41.680937676" lon="2.532482516">
        <ele>256.80</ele>
        <time>2013-06-30T09:14:19Z</time>
      </trkpt>
      <trkpt lat="41.680947483" lon="2.532313034">
        <ele>256.80</ele>
        <time>2013-06-30T09:14:26Z</time>
      </trkpt>
      <trkpt lat="41.680909429" lon="2.532100888">
        <ele>258.30</ele>
        <time>2013-06-30T09:14:33Z</time>
      </trkpt>
      <trkpt lat="41.680884786" lon="2.531952109">
        <ele>259.20</ele>
        <time>2013-06-30T09:14:38Z</time>
      </trkpt>
      <trkpt lat="41.680805409" lon="2.531766450">
        <ele>260.70</ele>
        <time>2013-06-30T09:14:47Z</time>
      </trkpt>
      <trkpt lat="41.680785293" lon="2.531626305">
        <ele>262.10</ele>
        <time>2013-06-30T09:14:55Z</time>
      </trkpt>
      <trkpt lat="41.680710275" lon="2.531497223">
        <ele>264.00</ele>
        <time>2013-06-30T09:15:05Z</time>
      </trkpt>
      <trkpt lat="41.680689152" lon="2.531460343">
        <ele>264.50</ele>
        <time>2013-06-30T09:15:08Z</time>
      </trkpt>
      <trkpt lat="41.680646405" lon="2.531346684">
        <ele>265.50</ele>
        <time>2013-06-30T09:15:17Z</time>
      </trkpt>
      <trkpt lat="41.680594688" lon="2.531179382">
        <ele>266.90</ele>
        <time>2013-06-30T09:15:28Z</time>
      </trkpt>
      <trkpt lat="41.680558646" lon="2.531044014">
        <ele>267.90</ele>
        <time>2013-06-30T09:15:37Z</time>
      </trkpt>
      <trkpt lat="41.680523023" lon="2.530909568">
        <ele>269.30</ele>
        <time>2013-06-30T09:15:47Z</time>
      </trkpt>
      <trkpt lat="41.680502990" lon="2.530852487">
        <ele>269.80</ele>
        <time>2013-06-30T09:15:51Z</time>
      </trkpt>
      <trkpt lat="41.680425290" lon="2.530734470">
        <ele>271.70</ele>
        <time>2013-06-30T09:16:00Z</time>
      </trkpt>
      <trkpt lat="41.680327557" lon="2.530587871">
        <ele>271.70</ele>
        <time>2013-06-30T09:16:08Z</time>
      </trkpt>
      <trkpt lat="41.680247007" lon="2.530461220">
        <ele>271.70</ele>
        <time>2013-06-30T09:16:16Z</time>
      </trkpt>
      <trkpt lat="41.680147179" lon="2.530352675">
        <ele>272.20</ele>
        <time>2013-06-30T09:16:25Z</time>
      </trkpt>
      <trkpt lat="41.680074508" lon="2.530216972">
        <ele>273.60</ele>
        <time>2013-06-30T09:16:35Z</time>
      </trkpt>
      <trkpt lat="41.680068473" lon="2.530195430">
        <ele>274.10</ele>
        <time>2013-06-30T09:16:37Z</time>
      </trkpt>
      <trkpt lat="41.680000914" lon="2.530096272">
        <ele>276.00</ele>
        <time>2013-06-30T09:16:45Z</time>
      </trkpt>
      <trkpt lat="41.679948528" lon="2.530021506">
        <ele>277.50</ele>
        <time>2013-06-30T09:16:52Z</time>
      </trkpt>
      <trkpt lat="41.679919191" lon="2.529909020">
        <ele>279.40</ele>
        <time>2013-06-30T09:17:01Z</time>
      </trkpt>
      <trkpt lat="41.679857584" lon="2.529808270">
        <ele>280.80</ele>
        <time>2013-06-30T09:17:09Z</time>
      </trkpt>
      <trkpt lat="41.679858841" lon="2.529769546">
        <ele>281.30</ele>
        <time>2013-06-30T09:17:12Z</time>
      </trkpt>
      <trkpt lat="41.679891782" lon="2.529735012">
        <ele>282.30</ele>
        <time>2013-06-30T09:17:16Z</time>
      </trkpt>
      <trkpt lat="41.679973338" lon="2.529768204">
        <ele>283.30</ele>
        <time>2013-06-30T09:17:23Z</time>
      </trkpt>
      <trkpt lat="41.680098899" lon="2.529845486">
        <ele>284.20</ele>
        <time>2013-06-30T09:17:33Z</time>
      </trkpt>
      <trkpt lat="41.680143407" lon="2.529857388">
        <ele>284.70</ele>
        <time>2013-06-30T09:17:36Z</time>
      </trkpt>
      <trkpt lat="41.680192944" lon="2.529795446">
        <ele>285.70</ele>
        <time>2013-06-30T09:17:44Z</time>
      </trkpt>
      <trkpt lat="41.680145418" lon="2.529678518">
        <ele>286.60</ele>
        <time>2013-06-30T09:17:51Z</time>
      </trkpt>
      <trkpt lat="41.680111807" lon="2.529581623">
        <ele>289.50</ele>
        <time>2013-06-30T09:17:59Z</time>
      </trkpt>
      <trkpt lat="41.680098228" lon="2.529538959">
        <ele>290.50</ele>
        <time>2013-06-30T09:18:02Z</time>
      </trkpt>
      <trkpt lat="41.680022707" lon="2.529421948">
        <ele>292.40</ele>
        <time>2013-06-30T09:18:11Z</time>
      </trkpt>
      <trkpt lat="41.679933943" lon="2.529324131">
        <ele>293.30</ele>
        <time>2013-06-30T09:18:20Z</time>
      </trkpt>
      <trkpt lat="41.679860518" lon="2.529241653">
        <ele>295.70</ele>
        <time>2013-06-30T09:18:28Z</time>
      </trkpt>
      <trkpt lat="41.679789942" lon="2.529129252">
        <ele>297.20</ele>
        <time>2013-06-30T09:18:38Z</time>
      </trkpt>
      <trkpt lat="41.679748619" lon="2.529029004">
        <ele>297.70</ele>
        <time>2013-06-30T09:18:46Z</time>
      </trkpt>
      <trkpt lat="41.679711403" lon="2.528930014">
        <ele>298.60</ele>
        <time>2013-06-30T09:18:53Z</time>
      </trkpt>
      <trkpt lat="41.679662705" lon="2.528784337">
        <ele>300.10</ele>
        <time>2013-06-30T09:19:03Z</time>
      </trkpt>
      <trkpt lat="41.679653820" lon="2.528745445">
        <ele>300.60</ele>
        <time>2013-06-30T09:19:06Z</time>
      </trkpt>
      <trkpt lat="41.679624232" lon="2.528636648">
        <ele>301.50</ele>
        <time>2013-06-30T09:19:13Z</time>
      </trkpt>
      <trkpt lat="41.679576790" lon="2.528512344">
        <ele>302.50</ele>
        <time>2013-06-30T09:19:21Z</time>
      </trkpt>
      <trkpt lat="41.679518536" lon="2.528358536">
        <ele>303.00</ele>
        <time>2013-06-30T09:19:30Z</time>
      </trkpt>
      <trkpt lat="41.679461287" lon="2.528231969">
        <ele>303.40</ele>
        <time>2013-06-30T09:19:38Z</time>
      </trkpt>
      <trkpt lat="41.679443099" lon="2.528208835">
        <ele>303.40</ele>
        <time>2013-06-30T09:19:40Z</time>
      </trkpt>
      <trkpt lat="41.679407559" lon="2.528056368">
        <ele>303.90</ele>
        <time>2013-06-30T09:19:50Z</time>
      </trkpt>
      <trkpt lat="41.679400100" lon="2.527929550">
        <ele>305.40</ele>
        <time>2013-06-30T09:19:58Z</time>
      </trkpt>
      <trkpt lat="41.679377720" lon="2.527774233">
        <ele>307.80</ele>
        <time>2013-06-30T09:20:06Z</time>
      </trkpt>
      <trkpt lat="41.679338074" lon="2.527635848">
        <ele>309.70</ele>
        <time>2013-06-30T09:20:16Z</time>
      </trkpt>
      <trkpt lat="41.679289794" lon="2.527505174">
        <ele>311.60</ele>
        <time>2013-06-30T09:20:24Z</time>
      </trkpt>
      <trkpt lat="41.679251237" lon="2.527365448">
        <ele>314.00</ele>
        <time>2013-06-30T09:20:33Z</time>
      </trkpt>
      <trkpt lat="41.679222487" lon="2.527258746">
        <ele>315.90</ele>
        <time>2013-06-30T09:20:41Z</time>
      </trkpt>
      <trkpt lat="41.679191306" lon="2.527182471">
        <ele>317.90</ele>
        <time>2013-06-30T09:20:47Z</time>
      </trkpt>
      <trkpt lat="41.679137578" lon="2.527048109">
        <ele>320.30</ele>
        <time>2013-06-30T09:20:57Z</time>
      </trkpt>
      <trkpt lat="41.679119054" lon="2.526958926">
        <ele>321.70</ele>
        <time>2013-06-30T09:21:03Z</time>
      </trkpt>
      <trkpt lat="41.679097261" lon="2.526898325">
        <ele>321.70</ele>
        <time>2013-06-30T09:21:07Z</time>
      </trkpt>
      <trkpt lat="41.679016628" lon="2.526757592">
        <ele>322.70</ele>
        <time>2013-06-30T09:21:17Z</time>
      </trkpt>
      <trkpt lat="41.678959714" lon="2.526678886">
        <ele>323.60</ele>
        <time>2013-06-30T09:21:24Z</time>
      </trkpt>
      <trkpt lat="41.678909088" lon="2.526612502">
        <ele>325.50</ele>
        <time>2013-06-30T09:21:30Z</time>
      </trkpt>
      <trkpt lat="41.678891486" lon="2.526596157">
        <ele>326.00</ele>
        <time>2013-06-30T09:21:32Z</time>
      </trkpt>
      <trkpt lat="41.678828119" lon="2.526539076">
        <ele>327.50</ele>
        <time>2013-06-30T09:21:39Z</time>
      </trkpt>
      <trkpt lat="41.678739354" lon="2.526490629">
        <ele>329.40</ele>
        <time>2013-06-30T09:21:47Z</time>
      </trkpt>
      <trkpt lat="41.678695684" lon="2.526435141">
        <ele>330.40</ele>
        <time>2013-06-30T09:21:53Z</time>
      </trkpt>
      <trkpt lat="41.678681938" lon="2.526414102">
        <ele>330.40</ele>
        <time>2013-06-30T09:21:55Z</time>
      </trkpt>
      <trkpt lat="41.678552102" lon="2.526348220">
        <ele>331.80</ele>
        <time>2013-06-30T09:22:06Z</time>
      </trkpt>
      <trkpt lat="41.678432828" lon="2.526276304">
        <ele>332.30</ele>
        <time>2013-06-30T09:22:16Z</time>
      </trkpt>
      <trkpt lat="41.678325540" lon="2.526215535">
        <ele>333.20</ele>
        <time>2013-06-30T09:22:24Z</time>
      </trkpt>
      <trkpt lat="41.678250522" lon="2.526162477">
        <ele>333.70</ele>
        <time>2013-06-30T09:22:30Z</time>
      </trkpt>
      <trkpt lat="41.678136863" lon="2.526108498">
        <ele>334.70</ele>
        <time>2013-06-30T09:22:39Z</time>
      </trkpt>
      <trkpt lat="41.678112388" lon="2.526099278">
        <ele>334.70</ele>
        <time>2013-06-30T09:22:41Z</time>
      </trkpt>
      <trkpt lat="41.678063605" lon="2.526080251">
        <ele>335.20</ele>
        <time>2013-06-30T09:22:48Z</time>
      </trkpt>
      <trkpt lat="41.678070394" lon="2.526088130">
        <ele>335.20</ele>
        <time>2013-06-30T09:23:01Z</time>
      </trkpt>
      <trkpt lat="41.678050110" lon="2.526087878">
        <ele>335.20</ele>
        <time>2013-06-30T09:23:12Z</time>
      </trkpt>
      <trkpt lat="41.678123787" lon="2.526067594">
        <ele>336.10</ele>
        <time>2013-06-30T09:23:18Z</time>
      </trkpt>
      <trkpt lat="41.678262256" lon="2.526061056">
        <ele>337.60</ele>
        <time>2013-06-30T09:23:28Z</time>
      </trkpt>
      <trkpt lat="41.678360660" lon="2.526073210">
        <ele>339.50</ele>
        <time>2013-06-30T09:23:36Z</time>
      </trkpt>
      <trkpt lat="41.678431487" lon="2.526096596">
        <ele>340.90</ele>
        <time>2013-06-30T09:23:42Z</time>
      </trkpt>
      <trkpt lat="41.678569453" lon="2.526096847">
        <ele>342.90</ele>
        <time>2013-06-30T09:23:52Z</time>
      </trkpt>
      <trkpt lat="41.678714544" lon="2.526081005">
        <ele>344.30</ele>
        <time>2013-06-30T09:24:02Z</time>
      </trkpt>
      <trkpt lat="41.678825688" lon="2.526011435">
        <ele>345.70</ele>
        <time>2013-06-30T09:24:12Z</time>
      </trkpt>
      <trkpt lat="41.678910345" lon="2.525964245">
        <ele>347.70</ele>
        <time>2013-06-30T09:24:19Z</time>
      </trkpt>
      <trkpt lat="41.678946303" lon="2.525934825">
        <ele>348.60</ele>
        <time>2013-06-30T09:24:22Z</time>
      </trkpt>
      <trkpt lat="41.678985531" lon="2.525932143">
        <ele>349.60</ele>
        <time>2013-06-30T09:24:25Z</time>
      </trkpt>
      <trkpt lat="41.679038420" lon="2.525903812">
        <ele>350.10</ele>
        <time>2013-06-30T09:24:29Z</time>
      </trkpt>
      <trkpt lat="41.679175968" lon="2.525799457">
        <ele>352.00</ele>
        <time>2013-06-30T09:24:39Z</time>
      </trkpt>
      <trkpt lat="41.679272527" lon="2.525671633">
        <ele>353.40</ele>
        <time>2013-06-30T09:24:49Z</time>
      </trkpt>
      <trkpt lat="41.679347461" lon="2.525560824">
        <ele>354.90</ele>
        <time>2013-06-30T09:24:57Z</time>
      </trkpt>
      <trkpt lat="41.679413594" lon="2.525407687">
        <ele>355.80</ele>
        <time>2013-06-30T09:25:06Z</time>
      </trkpt>
      <trkpt lat="41.679455755" lon="2.525262764">
        <ele>356.80</ele>
        <time>2013-06-30T09:25:14Z</time>
      </trkpt>
      <trkpt lat="41.679465059" lon="2.525031256">
        <ele>356.80</ele>
        <time>2013-06-30T09:25:22Z</time>
      </trkpt>
      <trkpt lat="41.679462377" lon="2.524811985">
        <ele>356.80</ele>
        <time>2013-06-30T09:25:28Z</time>
      </trkpt>
      <trkpt lat="41.679466317" lon="2.524768148">
        <ele>356.80</ele>
        <time>2013-06-30T09:25:29Z</time>
      </trkpt>
      <trkpt lat="41.679633284" lon="2.524606964">
        <ele>353.40</ele>
        <time>2013-06-30T09:25:34Z</time>
      </trkpt>
      <trkpt lat="41.679693466" lon="2.524596319">
        <ele>353.40</ele>
        <time>2013-06-30T09:25:35Z</time>
      </trkpt>
      <trkpt lat="41.679914581" lon="2.524441254">
        <ele>351.00</ele>
        <time>2013-06-30T09:25:39Z</time>
      </trkpt>
      <trkpt lat="41.679955987" lon="2.524374198">
        <ele>351.00</ele>
        <time>2013-06-30T09:25:40Z</time>
      </trkpt>
      <trkpt lat="41.680002172" lon="2.524227766">
        <ele>351.00</ele>
        <time>2013-06-30T09:25:42Z</time>
      </trkpt>
      <trkpt lat="41.680079788" lon="2.523861561">
        <ele>352.50</ele>
        <time>2013-06-30T09:25:49Z</time>
      </trkpt>
      <trkpt lat="41.680084650" lon="2.523827447">
        <ele>352.50</ele>
        <time>2013-06-30T09:25:50Z</time>
      </trkpt>
      <trkpt lat="41.680120105" lon="2.523612954">
        <ele>354.90</ele>
        <time>2013-06-30T09:25:57Z</time>
      </trkpt>
      <trkpt lat="41.680134606" lon="2.523443136">
        <ele>356.30</ele>
        <time>2013-06-30T09:26:04Z</time>
      </trkpt>
      <trkpt lat="41.680087667" lon="2.523183214">
        <ele>356.30</ele>
        <time>2013-06-30T09:26:10Z</time>
      </trkpt>
      <trkpt lat="41.680089008" lon="2.522956148">
        <ele>356.80</ele>
        <time>2013-06-30T09:26:17Z</time>
      </trkpt>
      <trkpt lat="41.680119015" lon="2.522759006">
        <ele>358.20</ele>
        <time>2013-06-30T09:26:24Z</time>
      </trkpt>
      <trkpt lat="41.680127230" lon="2.522637468">
        <ele>359.70</ele>
        <time>2013-06-30T09:26:30Z</time>
      </trkpt>
      <trkpt lat="41.680101330" lon="2.522446361">
        <ele>362.60</ele>
        <time>2013-06-30T09:26:39Z</time>
      </trkpt>
      <trkpt lat="41.680068389" lon="2.522297917">
        <ele>364.50</ele>
        <time>2013-06-30T09:26:47Z</time>
      </trkpt>
      <trkpt lat="41.680021199" lon="2.522160119">
        <ele>365.90</ele>
        <time>2013-06-30T09:26:55Z</time>
      </trkpt>
      <trkpt lat="41.679915587" lon="2.522000946">
        <ele>368.30</ele>
        <time>2013-06-30T09:27:05Z</time>
      </trkpt>
      <trkpt lat="41.679851968" lon="2.521911595">
        <ele>369.30</ele>
        <time>2013-06-30T09:27:13Z</time>
      </trkpt>
      <trkpt lat="41.679791283" lon="2.521740688">
        <ele>369.30</ele>
        <time>2013-06-30T09:27:19Z</time>
      </trkpt>
      <trkpt lat="41.679769406" lon="2.521457212">
        <ele>369.30</ele>
        <time>2013-06-30T09:27:25Z</time>
      </trkpt>
      <trkpt lat="41.679761192" lon="2.521287898">
        <ele>369.30</ele>
        <time>2013-06-30T09:27:32Z</time>
      </trkpt>
      <trkpt lat="41.679770831" lon="2.521120511">
        <ele>370.70</ele>
        <time>2013-06-30T09:27:40Z</time>
      </trkpt>
      <trkpt lat="41.679754906" lon="2.520873748">
        <ele>372.20</ele>
        <time>2013-06-30T09:27:50Z</time>
      </trkpt>
      <trkpt lat="41.679721629" lon="2.520756485">
        <ele>372.20</ele>
        <time>2013-06-30T09:27:53Z</time>
      </trkpt>
      <trkpt lat="41.679539239" lon="2.520560516">
        <ele>370.20</ele>
        <time>2013-06-30T09:27:58Z</time>
      </trkpt>
      <trkpt lat="41.679506382" lon="2.520406960">
        <ele>369.30</ele>
        <time>2013-06-30T09:28:01Z</time>
      </trkpt>
      <trkpt lat="41.679537898" lon="2.520284416">
        <ele>368.80</ele>
        <time>2013-06-30T09:28:03Z</time>
      </trkpt>
      <trkpt lat="41.679515435" lon="2.519818131">
        <ele>367.40</ele>
        <time>2013-06-30T09:28:10Z</time>
      </trkpt>
      <trkpt lat="41.679488026" lon="2.519484028">
        <ele>366.90</ele>
        <time>2013-06-30T09:28:16Z</time>
      </trkpt>
      <trkpt lat="41.679483332" lon="2.519424601">
        <ele>368.30</ele>
        <time>2013-06-30T09:28:19Z</time>
      </trkpt>
      <trkpt lat="41.679479644" lon="2.519316558">
        <ele>370.20</ele>
        <time>2013-06-30T09:28:24Z</time>
      </trkpt>
      <trkpt lat="41.679448715" lon="2.519095359">
        <ele>373.10</ele>
        <time>2013-06-30T09:28:33Z</time>
      </trkpt>
      <trkpt lat="41.679432789" lon="2.518878184">
        <ele>374.10</ele>
        <time>2013-06-30T09:28:41Z</time>
      </trkpt>
      <trkpt lat="41.679447290" lon="2.518628655">
        <ele>375.10</ele>
        <time>2013-06-30T09:28:50Z</time>
      </trkpt>
      <trkpt lat="41.679409823" lon="2.518443164">
        <ele>374.10</ele>
        <time>2013-06-30T09:28:56Z</time>
      </trkpt>
      <trkpt lat="41.679403620" lon="2.518208554">
        <ele>370.70</ele>
        <time>2013-06-30T09:29:01Z</time>
      </trkpt>
      <trkpt lat="41.679403201" lon="2.517996660">
        <ele>369.80</ele>
        <time>2013-06-30T09:29:04Z</time>
      </trkpt>
      <trkpt lat="41.679441590" lon="2.517634897">
        <ele>366.90</ele>
        <time>2013-06-30T09:29:08Z</time>
      </trkpt>
      <trkpt lat="41.679421306" lon="2.517318228">
        <ele>365.90</ele>
        <time>2013-06-30T09:29:13Z</time>
      </trkpt>
      <trkpt lat="41.679390880" lon="2.517163498">
        <ele>365.40</ele>
        <time>2013-06-30T09:29:15Z</time>
      </trkpt>
      <trkpt lat="41.679360788" lon="2.516828977">
        <ele>362.60</ele>
        <time>2013-06-30T09:29:19Z</time>
      </trkpt>
      <trkpt lat="41.679363890" lon="2.516681707">
        <ele>362.10</ele>
        <time>2013-06-30T09:29:21Z</time>
      </trkpt>
      <trkpt lat="41.679359783" lon="2.516517840">
        <ele>362.10</ele>
        <time>2013-06-30T09:29:25Z</time>
      </trkpt>
      <trkpt lat="41.679362800" lon="2.516449360">
        <ele>362.10</ele>
        <time>2013-06-30T09:29:29Z</time>
      </trkpt>
      <trkpt lat="41.679290129" lon="2.516201591">
        <ele>361.60</ele>
        <time>2013-06-30T09:29:35Z</time>
      </trkpt>
      <trkpt lat="41.679202371" lon="2.515830273">
        <ele>361.10</ele>
        <time>2013-06-30T09:29:41Z</time>
      </trkpt>
      <trkpt lat="41.679210417" lon="2.515501870">
        <ele>361.10</ele>
        <time>2013-06-30T09:29:49Z</time>
      </trkpt>
      <trkpt lat="41.679247298" lon="2.515221328">
        <ele>360.20</ele>
        <time>2013-06-30T09:29:55Z</time>
      </trkpt>
      <trkpt lat="41.679262217" lon="2.515150752">
        <ele>359.70</ele>
        <time>2013-06-30T09:29:56Z</time>
      </trkpt>
      <trkpt lat="41.679276969" lon="2.515007254">
        <ele>358.70</ele>
        <time>2013-06-30T09:29:58Z</time>
      </trkpt>
      <trkpt lat="41.679279903" lon="2.514934415">
        <ele>357.80</ele>
        <time>2013-06-30T09:29:59Z</time>
      </trkpt>
      <trkpt lat="41.679305384" lon="2.514709780">
        <ele>354.90</ele>
        <time>2013-06-30T09:30:05Z</time>
      </trkpt>
      <trkpt lat="41.679309072" lon="2.514648760">
        <ele>354.40</ele>
        <time>2013-06-30T09:30:11Z</time>
      </trkpt>
      <trkpt lat="41.679310497" lon="2.514629230">
        <ele>354.40</ele>
        <time>2013-06-30T09:30:20Z</time>
      </trkpt>
      <trkpt lat="41.679298846" lon="2.514641384">
        <ele>354.40</ele>
        <time>2013-06-30T09:30:34Z</time>
      </trkpt>
      <trkpt lat="41.679303205" lon="2.514664434">
        <ele>354.40</ele>
        <time>2013-06-30T09:30:40Z</time>
      </trkpt>
      <trkpt lat="41.679302870" lon="2.514744984">
        <ele>355.30</ele>
        <time>2013-06-30T09:30:49Z</time>
      </trkpt>
      <trkpt lat="41.679292811" lon="2.514792174">
        <ele>355.30</ele>
        <time>2013-06-30T09:30:56Z</time>
      </trkpt>
      <trkpt lat="41.679292057" lon="2.514803909">
        <ele>355.80</ele>
        <time>2013-06-30T09:30:57Z</time>
      </trkpt>
      <trkpt lat="41.679280155" lon="2.514976660">
        <ele>356.80</ele>
        <time>2013-06-30T09:31:05Z</time>
      </trkpt>
      <trkpt lat="41.679255679" lon="2.515130300">
        <ele>358.70</ele>
        <time>2013-06-30T09:31:12Z</time>
      </trkpt>
      <trkpt lat="41.679233300" lon="2.515226860">
        <ele>359.70</ele>
        <time>2013-06-30T09:31:17Z</time>
      </trkpt>
      <trkpt lat="41.679211004" lon="2.515403802">
        <ele>361.60</ele>
        <time>2013-06-30T09:31:26Z</time>
      </trkpt>
      <trkpt lat="41.679204801" lon="2.515475467">
        <ele>362.10</ele>
        <time>2013-06-30T09:31:29Z</time>
      </trkpt>
      <trkpt lat="41.679219134" lon="2.515884169">
        <ele>362.10</ele>
        <time>2013-06-30T09:31:40Z</time>
      </trkpt>
      <trkpt lat="41.679311251" lon="2.516199244">
        <ele>360.60</ele>
        <time>2013-06-30T09:31:47Z</time>
      </trkpt>
      <trkpt lat="41.679365901" lon="2.516376438">
        <ele>362.60</ele>
        <time>2013-06-30T09:31:54Z</time>
      </trkpt>
      <trkpt lat="41.679380402" lon="2.516529994">
        <ele>362.60</ele>
        <time>2013-06-30T09:32:00Z</time>
      </trkpt>
      <trkpt lat="41.679344192" lon="2.516743649">
        <ele>362.60</ele>
        <time>2013-06-30T09:32:05Z</time>
      </trkpt>
      <trkpt lat="41.679323154" lon="2.516831743">
        <ele>361.10</ele>
        <time>2013-06-30T09:32:07Z</time>
      </trkpt>
      <trkpt lat="41.679229947" lon="2.517100634">
        <ele>357.80</ele>
        <time>2013-06-30T09:32:13Z</time>
      </trkpt>
      <trkpt lat="41.679198263" lon="2.517194931">
        <ele>356.80</ele>
        <time>2013-06-30T09:32:15Z</time>
      </trkpt>
      <trkpt lat="41.679151660" lon="2.517492069">
        <ele>352.90</ele>
        <time>2013-06-30T09:32:20Z</time>
      </trkpt>
      <trkpt lat="41.679139925" lon="2.517553592">
        <ele>352.00</ele>
        <time>2013-06-30T09:32:21Z</time>
      </trkpt>
      <trkpt lat="41.678972455" lon="2.517740425">
        <ele>350.10</ele>
        <time>2013-06-30T09:32:25Z</time>
      </trkpt>
      <trkpt lat="41.678849241" lon="2.517745454">
        <ele>349.10</ele>
        <time>2013-06-30T09:32:27Z</time>
      </trkpt>
      <trkpt lat="41.678667605" lon="2.517700611">
        <ele>347.20</ele>
        <time>2013-06-30T09:32:30Z</time>
      </trkpt>
      <trkpt lat="41.678443305" lon="2.517576391">
        <ele>344.80</ele>
        <time>2013-06-30T09:32:34Z</time>
      </trkpt>
      <trkpt lat="41.678231578" lon="2.517583851">
        <ele>342.90</ele>
        <time>2013-06-30T09:32:38Z</time>
      </trkpt>
      <trkpt lat="41.678114483" lon="2.517627185">
        <ele>342.40</ele>
        <time>2013-06-30T09:32:40Z</time>
      </trkpt>
      <trkpt lat="41.677933602" lon="2.517671945">
        <ele>340.90</ele>
        <time>2013-06-30T09:32:43Z</time>
      </trkpt>
      <trkpt lat="41.677642750" lon="2.517532554">
        <ele>339.00</ele>
        <time>2013-06-30T09:32:48Z</time>
      </trkpt>
      <trkpt lat="41.677530684" lon="2.517399365">
        <ele>338.00</ele>
        <time>2013-06-30T09:32:50Z</time>
      </trkpt>
      <trkpt lat="41.677347539" lon="2.516978845">
        <ele>335.60</ele>
        <time>2013-06-30T09:32:57Z</time>
      </trkpt>
      <trkpt lat="41.677367656" lon="2.516693190">
        <ele>335.20</ele>
        <time>2013-06-30T09:33:03Z</time>
      </trkpt>
      <trkpt lat="41.677328848" lon="2.516455479">
        <ele>335.20</ele>
        <time>2013-06-30T09:33:09Z</time>
      </trkpt>
      <trkpt lat="41.677209741" lon="2.516235370">
        <ele>332.80</ele>
        <time>2013-06-30T09:33:15Z</time>
      </trkpt>
      <trkpt lat="41.677165484" lon="2.516092543">
        <ele>328.90</ele>
        <time>2013-06-30T09:33:19Z</time>
      </trkpt>
      <trkpt lat="41.677127598" lon="2.515950972">
        <ele>325.50</ele>
        <time>2013-06-30T09:33:23Z</time>
      </trkpt>
      <trkpt lat="41.677099519" lon="2.515848294">
        <ele>323.60</ele>
        <time>2013-06-30T09:33:26Z</time>
      </trkpt>
      <trkpt lat="41.677052580" lon="2.515669508">
        <ele>320.30</ele>
        <time>2013-06-30T09:33:31Z</time>
      </trkpt>
      <trkpt lat="41.677033134" lon="2.515577559">
        <ele>319.30</ele>
        <time>2013-06-30T09:33:33Z</time>
      </trkpt>
      <trkpt lat="41.676925343" lon="2.515260890">
        <ele>317.90</ele>
        <time>2013-06-30T09:33:39Z</time>
      </trkpt>
      <trkpt lat="41.676860802" lon="2.514995435">
        <ele>317.90</ele>
        <time>2013-06-30T09:33:45Z</time>
      </trkpt>
      <trkpt lat="41.676781928" lon="2.514837856">
        <ele>317.90</ele>
        <time>2013-06-30T09:33:49Z</time>
      </trkpt>
      <trkpt lat="41.676684279" lon="2.514718078">
        <ele>316.40</ele>
        <time>2013-06-30T09:33:52Z</time>
      </trkpt>
      <trkpt lat="41.676514797" lon="2.514424460">
        <ele>313.10</ele>
        <time>2013-06-30T09:33:58Z</time>
      </trkpt>
      <trkpt lat="41.676465009" lon="2.514326224">
        <ele>313.10</ele>
        <time>2013-06-30T09:34:00Z</time>
      </trkpt>
      <trkpt lat="41.676286725" lon="2.514014166">
        <ele>308.70</ele>
        <time>2013-06-30T09:34:06Z</time>
      </trkpt>
      <trkpt lat="41.676228723" lon="2.513923977">
        <ele>307.30</ele>
        <time>2013-06-30T09:34:10Z</time>
      </trkpt>
      <trkpt lat="41.676080614" lon="2.513857341">
        <ele>303.90</ele>
        <time>2013-06-30T09:34:16Z</time>
      </trkpt>
      <trkpt lat="41.676044488" lon="2.513854072">
        <ele>303.90</ele>
        <time>2013-06-30T09:34:17Z</time>
      </trkpt>
      <trkpt lat="41.675910210" lon="2.513764637">
        <ele>302.00</ele>
        <time>2013-06-30T09:34:22Z</time>
      </trkpt>
      <trkpt lat="41.675905600" lon="2.513749717">
        <ele>302.00</ele>
        <time>2013-06-30T09:34:28Z</time>
      </trkpt>
      <trkpt lat="41.675899482" lon="2.513725577">
        <ele>302.00</ele>
        <time>2013-06-30T09:34:43Z</time>
      </trkpt>
      <trkpt lat="41.675900152" lon="2.513727505">
        <ele>301.50</ele>
        <time>2013-06-30T09:35:03Z</time>
      </trkpt>
      <trkpt lat="41.675892357" lon="2.513720213">
        <ele>301.50</ele>
        <time>2013-06-30T09:35:14Z</time>
      </trkpt>
      <trkpt lat="41.675884143" lon="2.513718704">
        <ele>301.50</ele>
        <time>2013-06-30T09:35:28Z</time>
      </trkpt>
      <trkpt lat="41.675886825" lon="2.513723230">
        <ele>301.50</ele>
        <time>2013-06-30T09:35:44Z</time>
      </trkpt>
      <trkpt lat="41.675883388" lon="2.513706382">
        <ele>301.50</ele>
        <time>2013-06-30T09:35:57Z</time>
      </trkpt>
      <trkpt lat="41.675835947" lon="2.513601693">
        <ele>301.50</ele>
        <time>2013-06-30T09:36:05Z</time>
      </trkpt>
      <trkpt lat="41.675790936" lon="2.513439922">
        <ele>303.90</ele>
        <time>2013-06-30T09:36:14Z</time>
      </trkpt>
      <trkpt lat="41.675781045" lon="2.513279492">
        <ele>305.40</ele>
        <time>2013-06-30T09:36:21Z</time>
      </trkpt>
      <trkpt lat="41.675767131" lon="2.513119649">
        <ele>306.80</ele>
        <time>2013-06-30T09:36:29Z</time>
      </trkpt>
      <trkpt lat="41.675726060" lon="2.512953352">
        <ele>308.70</ele>
        <time>2013-06-30T09:36:37Z</time>
      </trkpt>
      <trkpt lat="41.675656574" lon="2.512808178">
        <ele>308.70</ele>
        <time>2013-06-30T09:36:44Z</time>
      </trkpt>
      <trkpt lat="41.675571162" lon="2.512659734">
        <ele>309.70</ele>
        <time>2013-06-30T09:36:52Z</time>
      </trkpt>
      <trkpt lat="41.675525062" lon="2.512582369">
        <ele>310.60</ele>
        <time>2013-06-30T09:36:57Z</time>
      </trkpt>
      <trkpt lat="41.675402770" lon="2.512465945">
        <ele>311.10</ele>
        <time>2013-06-30T09:37:05Z</time>
      </trkpt>
      <trkpt lat="41.675365135" lon="2.512450438">
        <ele>309.70</ele>
        <time>2013-06-30T09:37:06Z</time>
      </trkpt>
      <trkpt lat="41.675265726" lon="2.512422694">
        <ele>308.20</ele>
        <time>2013-06-30T09:37:08Z</time>
      </trkpt>
      <trkpt lat="41.675137818" lon="2.512304425">
        <ele>307.80</ele>
        <time>2013-06-30T09:37:11Z</time>
      </trkpt>
      <trkpt lat="41.674986022" lon="2.512223624">
        <ele>307.80</ele>
        <time>2013-06-30T09:37:16Z</time>
      </trkpt>
      <trkpt lat="41.674905807" lon="2.512201328">
        <ele>308.70</ele>
        <time>2013-06-30T09:37:20Z</time>
      </trkpt>
      <trkpt lat="41.674774965" lon="2.512151791">
        <ele>311.60</ele>
        <time>2013-06-30T09:37:28Z</time>
      </trkpt>
      <trkpt lat="41.674654182" lon="2.512099488">
        <ele>314.00</ele>
        <time>2013-06-30T09:37:37Z</time>
      </trkpt>
      <trkpt lat="41.674620571" lon="2.512090687">
        <ele>314.50</ele>
        <time>2013-06-30T09:37:39Z</time>
      </trkpt>
      <trkpt lat="41.674491992" lon="2.511996893">
        <ele>315.50</ele>
        <time>2013-06-30T09:37:47Z</time>
      </trkpt>
      <trkpt lat="41.674384201" lon="2.511888683">
        <ele>312.10</ele>
        <time>2013-06-30T09:37:51Z</time>
      </trkpt>
      <trkpt lat="41.674323851" lon="2.511810061">
        <ele>311.10</ele>
        <time>2013-06-30T09:37:53Z</time>
      </trkpt>
      <trkpt lat="41.674292335" lon="2.511765050">
        <ele>309.70</ele>
        <time>2013-06-30T09:37:54Z</time>
      </trkpt>
      <trkpt lat="41.674219748" lon="2.511598669">
        <ele>307.80</ele>
        <time>2013-06-30T09:37:57Z</time>
      </trkpt>
      <trkpt lat="41.674194519" lon="2.511537062">
        <ele>307.80</ele>
        <time>2013-06-30T09:37:58Z</time>
      </trkpt>
      <trkpt lat="41.674086560" lon="2.511343356">
        <ele>306.80</ele>
        <time>2013-06-30T09:38:01Z</time>
      </trkpt>
      <trkpt lat="41.673934596" lon="2.511075219">
        <ele>306.30</ele>
        <time>2013-06-30T09:38:07Z</time>
      </trkpt>
      <trkpt lat="41.673823703" lon="2.510928117">
        <ele>308.70</ele>
        <time>2013-06-30T09:38:15Z</time>
      </trkpt>
      <trkpt lat="41.673720187" lon="2.510792917">
        <ele>310.60</ele>
        <time>2013-06-30T09:38:23Z</time>
      </trkpt>
      <trkpt lat="41.673698394" lon="2.510758467">
        <ele>311.10</ele>
        <time>2013-06-30T09:38:25Z</time>
      </trkpt>
      <trkpt lat="41.673620861" lon="2.510616142">
        <ele>313.10</ele>
        <time>2013-06-30T09:38:33Z</time>
      </trkpt>
      <trkpt lat="41.673536875" lon="2.510470213">
        <ele>315.50</ele>
        <time>2013-06-30T09:38:41Z</time>
      </trkpt>
      <trkpt lat="41.673475016" lon="2.510288829">
        <ele>317.90</ele>
        <time>2013-06-30T09:38:50Z</time>
      </trkpt>
      <trkpt lat="41.673457833" lon="2.510037121">
        <ele>319.30</ele>
        <time>2013-06-30T09:39:00Z</time>
      </trkpt>
      <trkpt lat="41.673477614" lon="2.509799494">
        <ele>319.30</ele>
        <time>2013-06-30T09:39:08Z</time>
      </trkpt>
      <trkpt lat="41.673487673" lon="2.509577541">
        <ele>319.30</ele>
        <time>2013-06-30T09:39:16Z</time>
      </trkpt>
      <trkpt lat="41.673474346" lon="2.509296496">
        <ele>320.70</ele>
        <time>2013-06-30T09:39:26Z</time>
      </trkpt>
      <trkpt lat="41.673442494" lon="2.509121733">
        <ele>322.70</ele>
        <time>2013-06-30T09:39:34Z</time>
      </trkpt>
      <trkpt lat="41.673440650" lon="2.509078901">
        <ele>323.10</ele>
        <time>2013-06-30T09:39:36Z</time>
      </trkpt>
      <trkpt lat="41.673454648" lon="2.509021821">
        <ele>323.60</ele>
        <time>2013-06-30T09:39:39Z</time>
      </trkpt>
      <trkpt lat="41.673496138" lon="2.508978905">
        <ele>324.60</ele>
        <time>2013-06-30T09:39:43Z</time>
      </trkpt>
      <trkpt lat="41.673664782" lon="2.508860218">
        <ele>324.60</ele>
        <time>2013-06-30T09:39:51Z</time>
      </trkpt>
      <trkpt lat="41.673777351" lon="2.508718563">
        <ele>324.60</ele>
        <time>2013-06-30T09:39:58Z</time>
      </trkpt>
      <trkpt lat="41.673849687" lon="2.508611107">
        <ele>324.60</ele>
        <time>2013-06-30T09:40:03Z</time>
      </trkpt>
      <trkpt lat="41.673881203" lon="2.508583866">
        <ele>324.60</ele>
        <time>2013-06-30T09:40:05Z</time>
      </trkpt>
      <trkpt lat="41.673951443" lon="2.508513291">
        <ele>325.10</ele>
        <time>2013-06-30T09:40:09Z</time>
      </trkpt>
      <trkpt lat="41.674128385" lon="2.508334253">
        <ele>322.70</ele>
        <time>2013-06-30T09:40:15Z</time>
      </trkpt>
      <trkpt lat="41.674225699" lon="2.508039042">
        <ele>322.20</ele>
        <time>2013-06-30T09:40:21Z</time>
      </trkpt>
      <trkpt lat="41.674320080" lon="2.507795632">
        <ele>322.70</ele>
        <time>2013-06-30T09:40:27Z</time>
      </trkpt>
      <trkpt lat="41.674360397" lon="2.507707538">
        <ele>322.20</ele>
        <time>2013-06-30T09:40:30Z</time>
      </trkpt>
      <trkpt lat="41.674428458" lon="2.507660600">
        <ele>321.20</ele>
        <time>2013-06-30T09:40:33Z</time>
      </trkpt>
      <trkpt lat="41.674569609" lon="2.507531183">
        <ele>318.80</ele>
        <time>2013-06-30T09:40:39Z</time>
      </trkpt>
      <trkpt lat="41.674688967" lon="2.507405622">
        <ele>316.40</ele>
        <time>2013-06-30T09:40:45Z</time>
      </trkpt>
      <trkpt lat="41.674763734" lon="2.507248126">
        <ele>314.00</ele>
        <time>2013-06-30T09:40:52Z</time>
      </trkpt>
      <trkpt lat="41.674789550" lon="2.507156428">
        <ele>312.10</ele>
        <time>2013-06-30T09:40:55Z</time>
      </trkpt>
      <trkpt lat="41.674816372" lon="2.507019468">
        <ele>308.20</ele>
        <time>2013-06-30T09:40:58Z</time>
      </trkpt>
      <trkpt lat="41.674855180" lon="2.506858284">
        <ele>304.40</ele>
        <time>2013-06-30T09:41:02Z</time>
      </trkpt>
      <trkpt lat="41.674856354" lon="2.506597104">
        <ele>303.00</ele>
        <time>2013-06-30T09:41:07Z</time>
      </trkpt>
      <trkpt lat="41.674914021" lon="2.506348161">
        <ele>303.00</ele>
        <time>2013-06-30T09:41:14Z</time>
      </trkpt>
      <trkpt lat="41.674915530" lon="2.506324859">
        <ele>303.00</ele>
        <time>2013-06-30T09:41:15Z</time>
      </trkpt>
      <trkpt lat="41.674950818" lon="2.506198544">
        <ele>304.40</ele>
        <time>2013-06-30T09:41:20Z</time>
      </trkpt>
      <trkpt lat="41.674955176" lon="2.506169375">
        <ele>304.90</ele>
        <time>2013-06-30T09:41:21Z</time>
      </trkpt>
      <trkpt lat="41.674955679" lon="2.505893443">
        <ele>306.30</ele>
        <time>2013-06-30T09:41:30Z</time>
      </trkpt>
      <trkpt lat="41.674901784" lon="2.505722452">
        <ele>306.30</ele>
        <time>2013-06-30T09:41:37Z</time>
      </trkpt>
      <trkpt lat="41.674861048" lon="2.505634442">
        <ele>304.90</ele>
        <time>2013-06-30T09:41:40Z</time>
      </trkpt>
      <trkpt lat="41.674859874" lon="2.505443586">
        <ele>304.90</ele>
        <time>2013-06-30T09:41:45Z</time>
      </trkpt>
      <trkpt lat="41.674857276" lon="2.505162038">
        <ele>303.90</ele>
        <time>2013-06-30T09:41:53Z</time>
      </trkpt>
      <trkpt lat="41.674833220" lon="2.504954334">
        <ele>300.60</ele>
        <time>2013-06-30T09:41:59Z</time>
      </trkpt>
      <trkpt lat="41.674788628" lon="2.504730454">
        <ele>297.20</ele>
        <time>2013-06-30T09:42:05Z</time>
      </trkpt>
      <trkpt lat="41.674733727" lon="2.504538341">
        <ele>293.30</ele>
        <time>2013-06-30T09:42:10Z</time>
      </trkpt>
      <trkpt lat="41.674700870" lon="2.504400123">
        <ele>290.90</ele>
        <time>2013-06-30T09:42:14Z</time>
      </trkpt>
      <trkpt lat="41.674664492" lon="2.504255787">
        <ele>287.60</ele>
        <time>2013-06-30T09:42:19Z</time>
      </trkpt>
      <trkpt lat="41.674633228" lon="2.504061662">
        <ele>284.20</ele>
        <time>2013-06-30T09:42:24Z</time>
      </trkpt>
      <trkpt lat="41.674624427" lon="2.503857730">
        <ele>282.30</ele>
        <time>2013-06-30T09:42:28Z</time>
      </trkpt>
      <trkpt lat="41.674628869" lon="2.503468810">
        <ele>278.90</ele>
        <time>2013-06-30T09:42:35Z</time>
      </trkpt>
      <trkpt lat="41.674621577" lon="2.503370406">
        <ele>278.00</ele>
        <time>2013-06-30T09:42:37Z</time>
      </trkpt>
      <trkpt lat="41.674603807" lon="2.503111741">
        <ele>274.60</ele>
        <time>2013-06-30T09:42:43Z</time>
      </trkpt>
      <trkpt lat="41.674531639" lon="2.502875706">
        <ele>271.20</ele>
        <time>2013-06-30T09:42:49Z</time>
      </trkpt>
      <trkpt lat="41.674405827" lon="2.502660040">
        <ele>267.90</ele>
        <time>2013-06-30T09:42:55Z</time>
      </trkpt>
      <trkpt lat="41.674324690" lon="2.502565827">
        <ele>267.40</ele>
        <time>2013-06-30T09:42:58Z</time>
      </trkpt>
      <trkpt lat="41.674205499" lon="2.502485948">
        <ele>267.40</ele>
        <time>2013-06-30T09:43:02Z</time>
      </trkpt>
      <trkpt lat="41.674052781" lon="2.502532216">
        <ele>266.40</ele>
        <time>2013-06-30T09:43:09Z</time>
      </trkpt>
      <trkpt lat="41.674030820" lon="2.502535652">
        <ele>266.40</ele>
        <time>2013-06-30T09:43:26Z</time>
      </trkpt>
      <trkpt lat="41.674026462" lon="2.502564067">
        <ele>265.90</ele>
        <time>2013-06-30T09:43:37Z</time>
      </trkpt>
      <trkpt lat="41.674012296" lon="2.502553254">
        <ele>265.90</ele>
        <time>2013-06-30T09:43:54Z</time>
      </trkpt>
      <trkpt lat="41.674012129" lon="2.502537329">
        <ele>265.90</ele>
        <time>2013-06-30T09:44:09Z</time>
      </trkpt>
      <trkpt lat="41.673995281" lon="2.502548728">
        <ele>265.90</ele>
        <time>2013-06-30T09:44:19Z</time>
      </trkpt>
      <trkpt lat="41.674002322" lon="2.502572700">
        <ele>265.90</ele>
        <time>2013-06-30T09:44:35Z</time>
      </trkpt>
      <trkpt lat="41.673989246" lon="2.502545375">
        <ele>265.90</ele>
        <time>2013-06-30T09:44:47Z</time>
      </trkpt>
      <trkpt lat="41.673916072" lon="2.502567588">
        <ele>265.50</ele>
        <time>2013-06-30T09:44:54Z</time>
      </trkpt>
      <trkpt lat="41.673830660" lon="2.502588375">
        <ele>265.50</ele>
        <time>2013-06-30T09:45:01Z</time>
      </trkpt>
      <trkpt lat="41.673752373" lon="2.502591476">
        <ele>264.00</ele>
        <time>2013-06-30T09:45:05Z</time>
      </trkpt>
      <trkpt lat="41.673665202" lon="2.502560798">
        <ele>262.60</ele>
        <time>2013-06-30T09:45:11Z</time>
      </trkpt>
      <trkpt lat="41.673545089" lon="2.502438087">
        <ele>261.10</ele>
        <time>2013-06-30T09:45:19Z</time>
      </trkpt>
      <trkpt lat="41.673420701" lon="2.502263157">
        <ele>259.20</ele>
        <time>2013-06-30T09:45:26Z</time>
      </trkpt>
      <trkpt lat="41.673280724" lon="2.502100799">
        <ele>257.30</ele>
        <time>2013-06-30T09:45:33Z</time>
      </trkpt>
      <trkpt lat="41.673239988" lon="2.502050256">
        <ele>256.30</ele>
        <time>2013-06-30T09:45:36Z</time>
      </trkpt>
      <trkpt lat="41.673160779" lon="2.501896616">
        <ele>255.90</ele>
        <time>2013-06-30T09:45:45Z</time>
      </trkpt>
      <trkpt lat="41.673052820" lon="2.501680866">
        <ele>253.90</ele>
        <time>2013-06-30T09:45:52Z</time>
      </trkpt>
      <trkpt lat="41.672957769" lon="2.501484729">
        <ele>251.50</ele>
        <time>2013-06-30T09:45:58Z</time>
      </trkpt>
      <trkpt lat="41.672901359" lon="2.501345003">
        <ele>250.60</ele>
        <time>2013-06-30T09:46:01Z</time>
      </trkpt>
      <trkpt lat="41.672753753" lon="2.501153644">
        <ele>246.70</ele>
        <time>2013-06-30T09:46:05Z</time>
      </trkpt>
      <trkpt lat="41.672613943" lon="2.500920460">
        <ele>243.40</ele>
        <time>2013-06-30T09:46:09Z</time>
      </trkpt>
      <trkpt lat="41.672591647" lon="2.500865810">
        <ele>241.90</ele>
        <time>2013-06-30T09:46:10Z</time>
      </trkpt>
      <trkpt lat="41.672551582" lon="2.500739411">
        <ele>241.00</ele>
        <time>2013-06-30T09:46:12Z</time>
      </trkpt>
      <trkpt lat="41.672453933" lon="2.500421066">
        <ele>239.00</ele>
        <time>2013-06-30T09:46:16Z</time>
      </trkpt>
      <trkpt lat="41.672489304" lon="2.500147816">
        <ele>237.60</ele>
        <time>2013-06-30T09:46:20Z</time>
      </trkpt>
      <trkpt lat="41.672517970" lon="2.500102805">
        <ele>237.10</ele>
        <time>2013-06-30T09:46:21Z</time>
      </trkpt>
      <trkpt lat="41.672656104" lon="2.499770714">
        <ele>233.70</ele>
        <time>2013-06-30T09:46:26Z</time>
      </trkpt>
      <trkpt lat="41.672674293" lon="2.499591509">
        <ele>232.30</ele>
        <time>2013-06-30T09:46:28Z</time>
      </trkpt>
      <trkpt lat="41.672684603" lon="2.499412639">
        <ele>231.80</ele>
        <time>2013-06-30T09:46:30Z</time>
      </trkpt>
      <trkpt lat="41.672698684" lon="2.499197811">
        <ele>229.90</ele>
        <time>2013-06-30T09:46:33Z</time>
      </trkpt>
      <trkpt lat="41.672647722" lon="2.499001172">
        <ele>228.50</ele>
        <time>2013-06-30T09:46:37Z</time>
      </trkpt>
      <trkpt lat="41.672600951" lon="2.498642845">
        <ele>226.50</ele>
        <time>2013-06-30T09:46:42Z</time>
      </trkpt>
      <trkpt lat="41.672582930" lon="2.498379486">
        <ele>225.10</ele>
        <time>2013-06-30T09:46:45Z</time>
      </trkpt>
      <trkpt lat="41.672639508" lon="2.498186618">
        <ele>222.70</ele>
        <time>2013-06-30T09:46:49Z</time>
      </trkpt>
      <trkpt lat="41.672709245" lon="2.498031134">
        <ele>221.20</ele>
        <time>2013-06-30T09:46:52Z</time>
      </trkpt>
      <trkpt lat="41.672858862" lon="2.497733744">
        <ele>217.40</ele>
        <time>2013-06-30T09:46:57Z</time>
      </trkpt>
      <trkpt lat="41.672868334" lon="2.497629892">
        <ele>216.40</ele>
        <time>2013-06-30T09:47:02Z</time>
      </trkpt>
      <trkpt lat="41.672742354" lon="2.497529477">
        <ele>213.10</ele>
        <time>2013-06-30T09:47:10Z</time>
      </trkpt>
      <trkpt lat="41.672583349" lon="2.497528723">
        <ele>209.20</ele>
        <time>2013-06-30T09:47:15Z</time>
      </trkpt>
      <trkpt lat="41.672451586" lon="2.497538865">
        <ele>206.30</ele>
        <time>2013-06-30T09:47:21Z</time>
      </trkpt>
      <trkpt lat="41.672442617" lon="2.497533919">
        <ele>206.30</ele>
        <time>2013-06-30T09:47:29Z</time>
      </trkpt>
      <trkpt lat="41.672436079" lon="2.497527633">
        <ele>206.30</ele>
        <time>2013-06-30T09:47:30Z</time>
      </trkpt>
      <trkpt lat="41.672452592" lon="2.497427385">
        <ele>205.40</ele>
        <time>2013-06-30T09:47:35Z</time>
      </trkpt>
      <trkpt lat="41.672555521" lon="2.497223705">
        <ele>204.40</ele>
        <time>2013-06-30T09:47:43Z</time>
      </trkpt>
      <trkpt lat="41.672680076" lon="2.496977277">
        <ele>203.50</ele>
        <time>2013-06-30T09:47:50Z</time>
      </trkpt>
      <trkpt lat="41.672806140" lon="2.496846268">
        <ele>202.00</ele>
        <time>2013-06-30T09:47:53Z</time>
      </trkpt>
      <trkpt lat="41.673070422" lon="2.496578969">
        <ele>198.70</ele>
        <time>2013-06-30T09:47:58Z</time>
      </trkpt>
      <trkpt lat="41.673172681" lon="2.496483667">
        <ele>196.70</ele>
        <time>2013-06-30T09:48:00Z</time>
      </trkpt>
      <trkpt lat="41.673422126" lon="2.496409487">
        <ele>194.80</ele>
        <time>2013-06-30T09:48:04Z</time>
      </trkpt>
      <trkpt lat="41.673648605" lon="2.496335810">
        <ele>190.00</ele>
        <time>2013-06-30T09:48:09Z</time>
      </trkpt>
      <trkpt lat="41.673679283" lon="2.496320555">
        <ele>190.00</ele>
        <time>2013-06-30T09:48:10Z</time>
      </trkpt>
      <trkpt lat="41.673918251" lon="2.496264145">
        <ele>188.60</ele>
        <time>2013-06-30T09:48:16Z</time>
      </trkpt>
      <trkpt lat="41.674238188" lon="2.496174878">
        <ele>187.60</ele>
        <time>2013-06-30T09:48:22Z</time>
      </trkpt>
      <trkpt lat="41.674340029" lon="2.496005312">
        <ele>187.60</ele>
        <time>2013-06-30T09:48:27Z</time>
      </trkpt>
      <trkpt lat="41.674344303" lon="2.495960385">
        <ele>187.60</ele>
        <time>2013-06-30T09:48:35Z</time>
      </trkpt>
      <trkpt lat="41.674335921" lon="2.495950494">
        <ele>187.60</ele>
        <time>2013-06-30T09:48:48Z</time>
      </trkpt>
      <trkpt lat="41.674237602" lon="2.495831387">
        <ele>187.60</ele>
        <time>2013-06-30T09:48:55Z</time>
      </trkpt>
      <trkpt lat="41.674182700" lon="2.495752765">
        <ele>187.10</ele>
        <time>2013-06-30T09:49:00Z</time>
      </trkpt>
      <trkpt lat="41.674107766" lon="2.495667772">
        <ele>187.10</ele>
        <time>2013-06-30T09:49:06Z</time>
      </trkpt>
      <trkpt lat="41.673973823" lon="2.495563250">
        <ele>187.10</ele>
        <time>2013-06-30T09:49:13Z</time>
      </trkpt>
      <trkpt lat="41.673858237" lon="2.495435678">
        <ele>187.10</ele>
        <time>2013-06-30T09:49:20Z</time>
      </trkpt>
      <trkpt lat="41.673848849" lon="2.495332496">
        <ele>186.60</ele>
        <time>2013-06-30T09:49:39Z</time>
      </trkpt>
      <trkpt lat="41.673787661" lon="2.495287737">
        <ele>186.60</ele>
        <time>2013-06-30T09:49:49Z</time>
      </trkpt>
      <trkpt lat="41.673691018" lon="2.495226549">
        <ele>186.60</ele>
        <time>2013-06-30T09:49:55Z</time>
      </trkpt>
      <trkpt lat="41.673538467" lon="2.495115992">
        <ele>188.10</ele>
        <time>2013-06-30T09:50:02Z</time>
      </trkpt>
      <trkpt lat="41.673457833" lon="2.495043488">
        <ele>189.50</ele>
        <time>2013-06-30T09:50:07Z</time>
      </trkpt>
      <trkpt lat="41.673367141" lon="2.495027227">
        <ele>190.00</ele>
        <time>2013-06-30T09:50:11Z</time>
      </trkpt>
      <trkpt lat="41.673168825" lon="2.495102162">
        <ele>190.00</ele>
        <time>2013-06-30T09:50:17Z</time>
      </trkpt>
      <trkpt lat="41.672924744" lon="2.495344734">
        <ele>190.00</ele>
        <time>2013-06-30T09:50:24Z</time>
      </trkpt>
      <trkpt lat="41.672729949" lon="2.495577499">
        <ele>190.00</ele>
        <time>2013-06-30T09:50:31Z</time>
      </trkpt>
      <trkpt lat="41.672578153" lon="2.495753771">
        <ele>190.00</ele>
        <time>2013-06-30T09:50:38Z</time>
      </trkpt>
      <trkpt lat="41.672474217" lon="2.495892156">
        <ele>189.50</ele>
        <time>2013-06-30T09:50:43Z</time>
      </trkpt>
      <trkpt lat="41.672321582" lon="2.495930964">
        <ele>189.50</ele>
        <time>2013-06-30T09:50:48Z</time>
      </trkpt>
      <trkpt lat="41.672037687" lon="2.496034145">
        <ele>189.00</ele>
        <time>2013-06-30T09:50:56Z</time>
      </trkpt>
      <trkpt lat="41.671854208" lon="2.496114528">
        <ele>188.60</ele>
        <time>2013-06-30T09:51:02Z</time>
      </trkpt>
      <trkpt lat="41.671664609" lon="2.496188121">
        <ele>190.00</ele>
        <time>2013-06-30T09:51:08Z</time>
      </trkpt>
      <trkpt lat="41.671563104" lon="2.496265737">
        <ele>190.00</ele>
        <time>2013-06-30T09:51:13Z</time>
      </trkpt>
      <trkpt lat="41.671468975" lon="2.496337570">
        <ele>190.00</ele>
        <time>2013-06-30T09:51:18Z</time>
      </trkpt>
      <trkpt lat="41.671295135" lon="2.496472184">
        <ele>191.00</ele>
        <time>2013-06-30T09:51:25Z</time>
      </trkpt>
      <trkpt lat="41.671210142" lon="2.496584669">
        <ele>191.40</ele>
        <time>2013-06-30T09:51:29Z</time>
      </trkpt>
      <trkpt lat="41.671092125" lon="2.496783152">
        <ele>192.40</ele>
        <time>2013-06-30T09:51:35Z</time>
      </trkpt>
      <trkpt lat="41.671013838" lon="2.496992113">
        <ele>192.40</ele>
        <time>2013-06-30T09:51:41Z</time>
      </trkpt>
      <trkpt lat="41.670904370" lon="2.497309620">
        <ele>192.40</ele>
        <time>2013-06-30T09:51:48Z</time>
      </trkpt>
      <trkpt lat="41.670788784" lon="2.497545486">
        <ele>192.90</ele>
        <time>2013-06-30T09:51:55Z</time>
      </trkpt>
      <trkpt lat="41.670692979" lon="2.497743132">
        <ele>192.90</ele>
        <time>2013-06-30T09:52:01Z</time>
      </trkpt>
      <trkpt lat="41.670594491" lon="2.497903478">
        <ele>192.90</ele>
        <time>2013-06-30T09:52:06Z</time>
      </trkpt>
      <trkpt lat="41.670576219" lon="2.497929713">
        <ele>193.40</ele>
        <time>2013-06-30T09:52:07Z</time>
      </trkpt>
      <trkpt lat="41.670463985" lon="2.497981178">
        <ele>193.80</ele>
        <time>2013-06-30T09:52:13Z</time>
      </trkpt>
      <trkpt lat="41.670284277" lon="2.498070194">
        <ele>194.80</ele>
        <time>2013-06-30T09:52:20Z</time>
      </trkpt>
      <trkpt lat="41.670100210" lon="2.498152755">
        <ele>194.80</ele>
        <time>2013-06-30T09:52:26Z</time>
      </trkpt>
      <trkpt lat="41.670079507" lon="2.498179158">
        <ele>194.80</ele>
        <time>2013-06-30T09:52:27Z</time>
      </trkpt>
      <trkpt lat="41.669929136" lon="2.498233641">
        <ele>194.80</ele>
        <time>2013-06-30T09:52:33Z</time>
      </trkpt>
      <trkpt lat="41.669718080" lon="2.498296589">
        <ele>194.80</ele>
        <time>2013-06-30T09:52:40Z</time>
      </trkpt>
      <trkpt lat="41.669564355" lon="2.498310419">
        <ele>194.80</ele>
        <time>2013-06-30T09:52:45Z</time>
      </trkpt>
      <trkpt lat="41.669376601" lon="2.498312431">
        <ele>194.80</ele>
        <time>2013-06-30T09:52:52Z</time>
      </trkpt>
      <trkpt lat="41.669208963" lon="2.498344114">
        <ele>194.80</ele>
        <time>2013-06-30T09:52:59Z</time>
      </trkpt>
      <trkpt lat="41.668959769" lon="2.498411588">
        <ele>195.28</ele>
        <time>2013-06-30T09:53:07Z</time>
      </trkpt>
      <trkpt lat="41.668819456" lon="2.498489037">
        <ele>195.28</ele>
        <time>2013-06-30T09:53:13Z</time>
      </trkpt>
      <trkpt lat="41.668692637" lon="2.498550309">
        <ele>195.28</ele>
        <time>2013-06-30T09:53:18Z</time>
      </trkpt>
      <trkpt lat="41.668563724" lon="2.498605713">
        <ele>196.73</ele>
        <time>2013-06-30T09:53:23Z</time>
      </trkpt>
      <trkpt lat="41.668382423" lon="2.498746781">
        <ele>196.73</ele>
        <time>2013-06-30T09:53:31Z</time>
      </trkpt>
      <trkpt lat="41.668298269" lon="2.498807969">
        <ele>196.73</ele>
        <time>2013-06-30T09:53:35Z</time>
      </trkpt>
      <trkpt lat="41.668175977" lon="2.498887848">
        <ele>196.73</ele>
        <time>2013-06-30T09:53:40Z</time>
      </trkpt>
      <trkpt lat="41.668138929" lon="2.498920789">
        <ele>197.21</ele>
        <time>2013-06-30T09:53:42Z</time>
      </trkpt>
      <trkpt lat="41.668114370" lon="2.498984240">
        <ele>197.21</ele>
        <time>2013-06-30T09:53:46Z</time>
      </trkpt>
      <trkpt lat="41.668121830" lon="2.499085913">
        <ele>197.21</ele>
        <time>2013-06-30T09:53:50Z</time>
      </trkpt>
      <trkpt lat="41.668142366" lon="2.499368299">
        <ele>195.77</ele>
        <time>2013-06-30T09:53:56Z</time>
      </trkpt>
      <trkpt lat="41.668137672" lon="2.499703910">
        <ele>197.21</ele>
        <time>2013-06-30T09:54:04Z</time>
      </trkpt>
      <trkpt lat="41.668199027" lon="2.500072044">
        <ele>197.69</ele>
        <time>2013-06-30T09:54:13Z</time>
      </trkpt>
      <trkpt lat="41.668201542" lon="2.500401452">
        <ele>197.69</ele>
        <time>2013-06-30T09:54:21Z</time>
      </trkpt>
      <trkpt lat="41.668232303" lon="2.500750475">
        <ele>198.65</ele>
        <time>2013-06-30T09:54:30Z</time>
      </trkpt>
      <trkpt lat="41.668301957" lon="2.501126571">
        <ele>199.13</ele>
        <time>2013-06-30T09:54:39Z</time>
      </trkpt>
      <trkpt lat="41.668378987" lon="2.501520688">
        <ele>199.61</ele>
        <time>2013-06-30T09:54:48Z</time>
      </trkpt>
      <trkpt lat="41.668478228" lon="2.501930311">
        <ele>199.61</ele>
        <time>2013-06-30T09:54:57Z</time>
      </trkpt>
      <trkpt lat="41.668554085" lon="2.502321746">
        <ele>200.09</ele>
        <time>2013-06-30T09:55:05Z</time>
      </trkpt>
      <trkpt lat="41.668663301" lon="2.502760455">
        <ele>200.09</ele>
        <time>2013-06-30T09:55:14Z</time>
      </trkpt>
      <trkpt lat="41.668751981" lon="2.503134372">
        <ele>201.05</ele>
        <time>2013-06-30T09:55:23Z</time>
      </trkpt>
      <trkpt lat="41.668864131" lon="2.503559586">
        <ele>201.05</ele>
        <time>2013-06-30T09:55:32Z</time>
      </trkpt>
      <trkpt lat="41.668873770" lon="2.503614403">
        <ele>201.05</ele>
        <time>2013-06-30T09:55:33Z</time>
      </trkpt>
      <trkpt lat="41.668842757" lon="2.503990080">
        <ele>201.05</ele>
        <time>2013-06-30T09:55:40Z</time>
      </trkpt>
      <trkpt lat="41.668739408" lon="2.504419820">
        <ele>202.01</ele>
        <time>2013-06-30T09:55:49Z</time>
      </trkpt>
      <trkpt lat="41.668742510" lon="2.504697513">
        <ele>204.42</ele>
        <time>2013-06-30T09:55:56Z</time>
      </trkpt>
      <trkpt lat="41.668787856" lon="2.504926004">
        <ele>207.30</ele>
        <time>2013-06-30T09:56:03Z</time>
      </trkpt>
      <trkpt lat="41.668821719" lon="2.505093977">
        <ele>208.74</ele>
        <time>2013-06-30T09:56:09Z</time>
      </trkpt>
      <trkpt lat="41.668816019" lon="2.505309308">
        <ele>210.67</ele>
        <time>2013-06-30T09:56:16Z</time>
      </trkpt>
      <trkpt lat="41.668823144" lon="2.505621366">
        <ele>212.59</ele>
        <time>2013-06-30T09:56:25Z</time>
      </trkpt>
      <trkpt lat="41.668849714" lon="2.505888330">
        <ele>214.03</ele>
        <time>2013-06-30T09:56:33Z</time>
      </trkpt>
      <trkpt lat="41.668880476" lon="2.506127298">
        <ele>214.99</ele>
        <time>2013-06-30T09:56:40Z</time>
      </trkpt>
      <trkpt lat="41.668872178" lon="2.506305246">
        <ele>216.91</ele>
        <time>2013-06-30T09:56:47Z</time>
      </trkpt>
      <trkpt lat="41.668804368" lon="2.506547902">
        <ele>217.40</ele>
        <time>2013-06-30T09:56:54Z</time>
      </trkpt>
      <trkpt lat="41.668847954" lon="2.506808495">
        <ele>215.47</ele>
        <time>2013-06-30T09:56:58Z</time>
      </trkpt>
      <trkpt lat="41.669004109" lon="2.507073447">
        <ele>215.47</ele>
        <time>2013-06-30T09:57:05Z</time>
      </trkpt>
      <trkpt lat="41.669054819" lon="2.507291880">
        <ele>214.51</ele>
        <time>2013-06-30T09:57:11Z</time>
      </trkpt>
      <trkpt lat="41.669023052" lon="2.507522466">
        <ele>213.07</ele>
        <time>2013-06-30T09:57:16Z</time>
      </trkpt>
      <trkpt lat="41.668943424" lon="2.507919433">
        <ele>212.11</ele>
        <time>2013-06-30T09:57:23Z</time>
      </trkpt>
      <trkpt lat="41.668959852" lon="2.508137530">
        <ele>212.11</ele>
        <time>2013-06-30T09:57:28Z</time>
      </trkpt>
      <trkpt lat="41.669078205" lon="2.508454030">
        <ele>211.63</ele>
        <time>2013-06-30T09:57:35Z</time>
      </trkpt>
      <trkpt lat="41.669116594" lon="2.508745469">
        <ele>211.63</ele>
        <time>2013-06-30T09:57:42Z</time>
      </trkpt>
      <trkpt lat="41.669161270" lon="2.508979995">
        <ele>210.67</ele>
        <time>2013-06-30T09:57:48Z</time>
      </trkpt>
      <trkpt lat="41.669144757" lon="2.509150148">
        <ele>210.67</ele>
        <time>2013-06-30T09:57:54Z</time>
      </trkpt>
      <trkpt lat="41.669116091" lon="2.509380063">
        <ele>213.07</ele>
        <time>2013-06-30T09:58:02Z</time>
      </trkpt>
      <trkpt lat="41.669106536" lon="2.509635711">
        <ele>214.03</ele>
        <time>2013-06-30T09:58:10Z</time>
      </trkpt>
      <trkpt lat="41.669105195" lon="2.509783819">
        <ele>214.51</ele>
        <time>2013-06-30T09:58:16Z</time>
      </trkpt>
      <trkpt lat="41.669011317" lon="2.509853222">
        <ele>214.99</ele>
        <time>2013-06-30T09:58:22Z</time>
      </trkpt>
      <trkpt lat="41.668946441" lon="2.509920109">
        <ele>215.47</ele>
        <time>2013-06-30T09:58:26Z</time>
      </trkpt>
      <trkpt lat="41.668830352" lon="2.510120856">
        <ele>216.91</ele>
        <time>2013-06-30T09:58:36Z</time>
      </trkpt>
      <trkpt lat="41.668655589" lon="2.510276172">
        <ele>218.84</ele>
        <time>2013-06-30T09:58:44Z</time>
      </trkpt>
      <trkpt lat="41.668527765" lon="2.510359991">
        <ele>219.80</ele>
        <time>2013-06-30T09:58:50Z</time>
      </trkpt>
      <trkpt lat="41.668345124" lon="2.510492090">
        <ele>221.24</ele>
        <time>2013-06-30T09:58:58Z</time>
      </trkpt>
      <trkpt lat="41.668154435" lon="2.510581525">
        <ele>222.68</ele>
        <time>2013-06-30T09:59:06Z</time>
      </trkpt>
      <trkpt lat="41.668041364" lon="2.510628631">
        <ele>223.64</ele>
        <time>2013-06-30T09:59:12Z</time>
      </trkpt>
      <trkpt lat="41.667930136" lon="2.510645982">
        <ele>224.12</ele>
        <time>2013-06-30T09:59:17Z</time>
      </trkpt>
      <trkpt lat="41.667721426" lon="2.510758635">
        <ele>225.09</ele>
        <time>2013-06-30T09:59:26Z</time>
      </trkpt>
      <trkpt lat="41.667656047" lon="2.510831390">
        <ele>225.09</ele>
        <time>2013-06-30T09:59:28Z</time>
      </trkpt>
      <trkpt lat="41.667630734" lon="2.510965752">
        <ele>223.64</ele>
        <time>2013-06-30T09:59:31Z</time>
      </trkpt>
      <trkpt lat="41.667618916" lon="2.511060635">
        <ele>225.09</ele>
        <time>2013-06-30T09:59:34Z</time>
      </trkpt>
      <trkpt lat="41.667573653" lon="2.511201954">
        <ele>227.49</ele>
        <time>2013-06-30T09:59:41Z</time>
      </trkpt>
      <trkpt lat="41.667463264" lon="2.511453746">
        <ele>227.97</ele>
        <time>2013-06-30T09:59:49Z</time>
      </trkpt>
      <trkpt lat="41.667351114" lon="2.511656504">
        <ele>228.93</ele>
        <time>2013-06-30T09:59:56Z</time>
      </trkpt>
      <trkpt lat="41.667264445" lon="2.511840236">
        <ele>231.33</ele>
        <time>2013-06-30T10:00:03Z</time>
      </trkpt>
      <trkpt lat="41.667176770" lon="2.512036456">
        <ele>231.81</ele>
        <time>2013-06-30T10:00:10Z</time>
      </trkpt>
      <trkpt lat="41.667146847" lon="2.512255894">
        <ele>232.30</ele>
        <time>2013-06-30T10:00:16Z</time>
      </trkpt>
      <trkpt lat="41.667094041" lon="2.512379108">
        <ele>232.78</ele>
        <time>2013-06-30T10:00:22Z</time>
      </trkpt>
      <trkpt lat="41.667062441" lon="2.512437111">
        <ele>233.26</ele>
        <time>2013-06-30T10:00:26Z</time>
      </trkpt>
      <trkpt lat="41.667041486" lon="2.512516907">
        <ele>231.81</ele>
        <time>2013-06-30T10:00:31Z</time>
      </trkpt>
      <trkpt lat="41.666992704" lon="2.512528977">
        <ele>230.37</ele>
        <time>2013-06-30T10:00:34Z</time>
      </trkpt>
      <trkpt lat="41.666800926" lon="2.512632493">
        <ele>229.89</ele>
        <time>2013-06-30T10:00:43Z</time>
      </trkpt>
      <trkpt lat="41.666730350" lon="2.512664847">
        <ele>229.41</ele>
        <time>2013-06-30T10:00:48Z</time>
      </trkpt>
      <trkpt lat="41.666703193" lon="2.512646658">
        <ele>229.41</ele>
        <time>2013-06-30T10:00:55Z</time>
      </trkpt>
      <trkpt lat="41.666658349" lon="2.512644395">
        <ele>229.41</ele>
        <time>2013-06-30T10:01:00Z</time>
      </trkpt>
      <trkpt lat="41.666636305" lon="2.512652358">
        <ele>229.41</ele>
        <time>2013-06-30T10:01:02Z</time>
      </trkpt>
      <trkpt lat="41.666589534" lon="2.512688400">
        <ele>227.01</ele>
        <time>2013-06-30T10:01:05Z</time>
      </trkpt>
      <trkpt lat="41.666511666" lon="2.512680689">
        <ele>226.53</ele>
        <time>2013-06-30T10:01:09Z</time>
      </trkpt>
      <trkpt lat="41.666252917" lon="2.512533922">
        <ele>227.97</ele>
        <time>2013-06-30T10:01:20Z</time>
      </trkpt>
      <trkpt lat="41.666122411" lon="2.512447002">
        <ele>229.41</ele>
        <time>2013-06-30T10:01:28Z</time>
      </trkpt>
      <trkpt lat="41.666052338" lon="2.512385814">
        <ele>229.89</ele>
        <time>2013-06-30T10:01:33Z</time>
      </trkpt>
      <trkpt lat="41.665947313" lon="2.512393860">
        <ele>231.33</ele>
        <time>2013-06-30T10:01:41Z</time>
      </trkpt>
      <trkpt lat="41.665905906" lon="2.512380365">
        <ele>231.33</ele>
        <time>2013-06-30T10:01:44Z</time>
      </trkpt>
      <trkpt lat="41.665781183" lon="2.512405595">
        <ele>233.74</ele>
        <time>2013-06-30T10:01:51Z</time>
      </trkpt>
      <trkpt lat="41.665732820" lon="2.512469297">
        <ele>235.66</ele>
        <time>2013-06-30T10:01:59Z</time>
      </trkpt>
      <trkpt lat="41.665735418" lon="2.512480948">
        <ele>235.66</ele>
        <time>2013-06-30T10:02:00Z</time>
      </trkpt>
      <trkpt lat="41.665798618" lon="2.512613131">
        <ele>239.02</ele>
        <time>2013-06-30T10:02:10Z</time>
      </trkpt>
      <trkpt lat="41.665812615" lon="2.512692843">
        <ele>240.95</ele>
        <time>2013-06-30T10:02:17Z</time>
      </trkpt>
      <trkpt lat="41.665750003" lon="2.512655292">
        <ele>241.91</ele>
        <time>2013-06-30T10:02:23Z</time>
      </trkpt>
      <trkpt lat="41.665644726" lon="2.512580609">
        <ele>243.35</ele>
        <time>2013-06-30T10:02:32Z</time>
      </trkpt>
      <trkpt lat="41.665565768" lon="2.512519840">
        <ele>244.31</ele>
        <time>2013-06-30T10:02:39Z</time>
      </trkpt>
      <trkpt lat="41.665525871" lon="2.512569713">
        <ele>245.27</ele>
        <time>2013-06-30T10:02:45Z</time>
      </trkpt>
      <trkpt lat="41.665514806" lon="2.512653867">
        <ele>245.75</ele>
        <time>2013-06-30T10:02:51Z</time>
      </trkpt>
      <trkpt lat="41.665464599" lon="2.512716815">
        <ele>245.75</ele>
        <time>2013-06-30T10:02:57Z</time>
      </trkpt>
      <trkpt lat="41.665455714" lon="2.512750929">
        <ele>245.75</ele>
        <time>2013-06-30T10:03:05Z</time>
      </trkpt>
      <trkpt lat="41.665477004" lon="2.512724107">
        <ele>245.75</ele>
        <time>2013-06-30T10:03:14Z</time>
      </trkpt>
      <trkpt lat="41.665475747" lon="2.512718408">
        <ele>245.75</ele>
        <time>2013-06-30T10:03:24Z</time>
      </trkpt>
      <trkpt lat="41.665477842" lon="2.512731232">
        <ele>245.75</ele>
        <time>2013-06-30T10:03:30Z</time>
      </trkpt>
      <trkpt lat="41.665477507" lon="2.512736764">
        <ele>245.75</ele>
        <time>2013-06-30T10:03:31Z</time>
      </trkpt>
      <trkpt lat="41.665506927" lon="2.512808178">
        <ele>245.75</ele>
        <time>2013-06-30T10:03:35Z</time>
      </trkpt>
      <trkpt lat="41.665552274" lon="2.512869449">
        <ele>244.79</ele>
        <time>2013-06-30T10:03:38Z</time>
      </trkpt>
      <trkpt lat="41.665596530" lon="2.512950335">
        <ele>243.83</ele>
        <time>2013-06-30T10:03:43Z</time>
      </trkpt>
      <trkpt lat="41.665586556" lon="2.513042871">
        <ele>243.35</ele>
        <time>2013-06-30T10:03:50Z</time>
      </trkpt>
      <trkpt lat="41.665575240" lon="2.513050834">
        <ele>243.35</ele>
        <time>2013-06-30T10:03:57Z</time>
      </trkpt>
      <trkpt lat="41.665581359" lon="2.513065083">
        <ele>243.83</ele>
        <time>2013-06-30T10:04:05Z</time>
      </trkpt>
      <trkpt lat="41.665570546" lon="2.513049828">
        <ele>243.83</ele>
        <time>2013-06-30T10:04:18Z</time>
      </trkpt>
      <trkpt lat="41.665596530" lon="2.513007416">
        <ele>243.35</ele>
        <time>2013-06-30T10:04:26Z</time>
      </trkpt>
      <trkpt lat="41.665618155" lon="2.512989143">
        <ele>243.35</ele>
        <time>2013-06-30T10:04:42Z</time>
      </trkpt>
      <trkpt lat="41.665614551" lon="2.513000542">
        <ele>243.35</ele>
        <time>2013-06-30T10:04:56Z</time>
      </trkpt>
      <trkpt lat="41.665610109" lon="2.513024515">
        <ele>243.35</ele>
        <time>2013-06-30T10:05:09Z</time>
      </trkpt>
      <trkpt lat="41.665610109" lon="2.513017809">
        <ele>243.35</ele>
        <time>2013-06-30T10:05:21Z</time>
      </trkpt>
      <trkpt lat="41.665622011" lon="2.513005572">
        <ele>243.35</ele>
        <time>2013-06-30T10:05:30Z</time>
      </trkpt>
      <trkpt lat="41.665632991" lon="2.512998531">
        <ele>243.35</ele>
        <time>2013-06-30T10:05:42Z</time>
      </trkpt>
      <trkpt lat="41.665625615" lon="2.512990903">
        <ele>243.35</ele>
        <time>2013-06-30T10:05:53Z</time>
      </trkpt>
      <trkpt lat="41.665615054" lon="2.512995849">
        <ele>244.79</ele>
        <time>2013-06-30T10:06:09Z</time>
      </trkpt>
      <trkpt lat="41.665630309" lon="2.512980258">
        <ele>244.79</ele>
        <time>2013-06-30T10:06:24Z</time>
      </trkpt>
      <trkpt lat="41.665631566" lon="2.512983024">
        <ele>244.79</ele>
        <time>2013-06-30T10:06:40Z</time>
      </trkpt>
      <trkpt lat="41.665641373" lon="2.512999117">
        <ele>244.79</ele>
        <time>2013-06-30T10:06:50Z</time>
      </trkpt>
      <trkpt lat="41.665640870" lon="2.512979755">
        <ele>244.79</ele>
        <time>2013-06-30T10:06:58Z</time>
      </trkpt>
      <trkpt lat="41.665643050" lon="2.512987550">
        <ele>244.31</ele>
        <time>2013-06-30T10:07:13Z</time>
      </trkpt>
      <trkpt lat="41.665618826" lon="2.513007835">
        <ele>244.31</ele>
        <time>2013-06-30T10:07:25Z</time>
      </trkpt>
      <trkpt lat="41.665609019" lon="2.513021330">
        <ele>244.31</ele>
        <time>2013-06-30T10:07:46Z</time>
      </trkpt>
      <trkpt lat="41.665646235" lon="2.512996854">
        <ele>244.31</ele>
        <time>2013-06-30T10:08:07Z</time>
      </trkpt>
      <trkpt lat="41.665643050" lon="2.512993502">
        <ele>244.31</ele>
        <time>2013-06-30T10:08:22Z</time>
      </trkpt>
      <trkpt lat="41.665634584" lon="2.513011187">
        <ele>244.31</ele>
        <time>2013-06-30T10:08:41Z</time>
      </trkpt>
      <trkpt lat="41.665619161" lon="2.513009343">
        <ele>244.31</ele>
        <time>2013-06-30T10:08:54Z</time>
      </trkpt>
      <trkpt lat="41.665628549" lon="2.513002973">
        <ele>244.31</ele>
        <time>2013-06-30T10:09:06Z</time>
      </trkpt>
      <trkpt lat="41.665629806" lon="2.513018731">
        <ele>244.31</ele>
        <time>2013-06-30T10:09:21Z</time>
      </trkpt>
      <trkpt lat="41.665628968" lon="2.513019569">
        <ele>244.31</ele>
        <time>2013-06-30T10:09:31Z</time>
      </trkpt>
      <trkpt lat="41.665614216" lon="2.513006074">
        <ele>244.31</ele>
        <time>2013-06-30T10:09:42Z</time>
      </trkpt>
      <trkpt lat="41.665588735" lon="2.513010601">
        <ele>244.31</ele>
        <time>2013-06-30T10:10:01Z</time>
      </trkpt>
      <trkpt lat="41.665589908" lon="2.513018731">
        <ele>244.79</ele>
        <time>2013-06-30T10:10:18Z</time>
      </trkpt>
      <trkpt lat="41.665593596" lon="2.512993753">
        <ele>244.31</ele>
        <time>2013-06-30T10:10:38Z</time>
      </trkpt>
      <trkpt lat="41.665591501" lon="2.512999620">
        <ele>244.31</ele>
        <time>2013-06-30T10:10:56Z</time>
      </trkpt>
      <trkpt lat="41.665589992" lon="2.512994172">
        <ele>244.31</ele>
        <time>2013-06-30T10:11:14Z</time>
      </trkpt>
      <trkpt lat="41.665585634" lon="2.513003560">
        <ele>244.31</ele>
        <time>2013-06-30T10:11:41Z</time>
      </trkpt>
      <trkpt lat="41.665596027" lon="2.513003560">
        <ele>244.31</ele>
        <time>2013-06-30T10:11:56Z</time>
      </trkpt>
      <trkpt lat="41.665598542" lon="2.513007918">
        <ele>244.31</ele>
        <time>2013-06-30T10:12:16Z</time>
      </trkpt>
      <trkpt lat="41.665590998" lon="2.513016636">
        <ele>244.31</ele>
        <time>2013-06-30T10:12:34Z</time>
      </trkpt>
      <trkpt lat="41.665594267" lon="2.513014708">
        <ele>244.31</ele>
        <time>2013-06-30T10:12:53Z</time>
      </trkpt>
      <trkpt lat="41.665611534" lon="2.513021581">
        <ele>244.31</ele>
        <time>2013-06-30T10:13:15Z</time>
      </trkpt>
      <trkpt lat="41.665609857" lon="2.513027951">
        <ele>244.31</ele>
        <time>2013-06-30T10:13:31Z</time>
      </trkpt>
      <trkpt lat="41.665619496" lon="2.513014289">
        <ele>244.31</ele>
        <time>2013-06-30T10:13:49Z</time>
      </trkpt>
      <trkpt lat="41.665608935" lon="2.513031053">
        <ele>244.31</ele>
        <time>2013-06-30T10:14:12Z</time>
      </trkpt>
      <trkpt lat="41.665600637" lon="2.513029209">
        <ele>244.31</ele>
        <time>2013-06-30T10:14:24Z</time>
      </trkpt>
      <trkpt lat="41.665583203" lon="2.513028454">
        <ele>244.31</ele>
        <time>2013-06-30T10:14:40Z</time>
      </trkpt>
      <trkpt lat="41.665573144" lon="2.513032310">
        <ele>244.31</ele>
        <time>2013-06-30T10:14:59Z</time>
      </trkpt>
      <trkpt lat="41.665584963" lon="2.513043458">
        <ele>244.31</ele>
        <time>2013-06-30T10:15:19Z</time>
      </trkpt>
      <trkpt lat="41.665599715" lon="2.513080757">
        <ele>244.31</ele>
        <time>2013-06-30T10:15:36Z</time>
      </trkpt>
      <trkpt lat="41.665597033" lon="2.513078578">
        <ele>244.31</ele>
        <time>2013-06-30T10:15:54Z</time>
      </trkpt>
      <trkpt lat="41.665593177" lon="2.513058713">
        <ele>244.31</ele>
        <time>2013-06-30T10:16:19Z</time>
      </trkpt>
      <trkpt lat="41.665607594" lon="2.513037674">
        <ele>244.31</ele>
        <time>2013-06-30T10:16:40Z</time>
      </trkpt>
      <trkpt lat="41.665604493" lon="2.513035663">
        <ele>244.31</ele>
        <time>2013-06-30T10:16:52Z</time>
      </trkpt>
      <trkpt lat="41.665612707" lon="2.513027867">
        <ele>244.31</ele>
        <time>2013-06-30T10:17:12Z</time>
      </trkpt>
      <trkpt lat="41.665601894" lon="2.513019569">
        <ele>244.31</ele>
        <time>2013-06-30T10:17:37Z</time>
      </trkpt>
      <trkpt lat="41.665618658" lon="2.513016384">
        <ele>244.31</ele>
        <time>2013-06-30T10:17:53Z</time>
      </trkpt>
      <trkpt lat="41.665623101" lon="2.513015714">
        <ele>244.31</ele>
        <time>2013-06-30T10:18:05Z</time>
      </trkpt>
      <trkpt lat="41.665619413" lon="2.512980845">
        <ele>244.31</ele>
        <time>2013-06-30T10:18:29Z</time>
      </trkpt>
      <trkpt lat="41.665627711" lon="2.513000962">
        <ele>244.31</ele>
        <time>2013-06-30T10:18:48Z</time>
      </trkpt>
      <trkpt lat="41.665608013" lon="2.513027532">
        <ele>244.31</ele>
        <time>2013-06-30T10:19:15Z</time>
      </trkpt>
      <trkpt lat="41.665596111" lon="2.513027532">
        <ele>244.31</ele>
        <time>2013-06-30T10:19:37Z</time>
      </trkpt>
      <trkpt lat="41.665596781" lon="2.513025856">
        <ele>244.31</ele>
        <time>2013-06-30T10:19:58Z</time>
      </trkpt>
      <trkpt lat="41.665585047" lon="2.513050499">
        <ele>244.31</ele>
        <time>2013-06-30T10:20:20Z</time>
      </trkpt>
      <trkpt lat="41.665590998" lon="2.513052091">
        <ele>244.31</ele>
        <time>2013-06-30T10:20:33Z</time>
      </trkpt>
      <trkpt lat="41.665591668" lon="2.513063658">
        <ele>244.31</ele>
        <time>2013-06-30T10:20:50Z</time>
      </trkpt>
      <trkpt lat="41.665601643" lon="2.513031388">
        <ele>244.31</ele>
        <time>2013-06-30T10:21:11Z</time>
      </trkpt>
      <trkpt lat="41.665604828" lon="2.513026275">
        <ele>244.31</ele>
        <time>2013-06-30T10:21:40Z</time>
      </trkpt>
      <trkpt lat="41.665614803" lon="2.513030885">
        <ele>244.31</ele>
        <time>2013-06-30T10:22:05Z</time>
      </trkpt>
      <trkpt lat="41.665610025" lon="2.513061814">
        <ele>244.31</ele>
        <time>2013-06-30T10:22:24Z</time>
      </trkpt>
      <trkpt lat="41.665607594" lon="2.513086625">
        <ele>244.79</ele>
        <time>2013-06-30T10:22:47Z</time>
      </trkpt>
      <trkpt lat="41.665597871" lon="2.513059048">
        <ele>244.79</ele>
        <time>2013-06-30T10:23:12Z</time>
      </trkpt>
      <trkpt lat="41.665606169" lon="2.513072794">
        <ele>244.79</ele>
        <time>2013-06-30T10:23:31Z</time>
      </trkpt>
      <trkpt lat="41.665608348" lon="2.513038429">
        <ele>244.79</ele>
        <time>2013-06-30T10:23:44Z</time>
      </trkpt>
      <trkpt lat="41.665610193" lon="2.512977995">
        <ele>244.79</ele>
        <time>2013-06-30T10:23:53Z</time>
      </trkpt>
      <trkpt lat="41.665595357" lon="2.512918316">
        <ele>245.27</ele>
        <time>2013-06-30T10:24:02Z</time>
      </trkpt>
      <trkpt lat="41.665580940" lon="2.512903145">
        <ele>245.27</ele>
        <time>2013-06-30T10:24:04Z</time>
      </trkpt>
      <trkpt lat="41.665540790" lon="2.512866516">
        <ele>245.27</ele>
        <time>2013-06-30T10:24:08Z</time>
      </trkpt>
      <trkpt lat="41.665509191" lon="2.512839861">
        <ele>246.23</ele>
        <time>2013-06-30T10:24:12Z</time>
      </trkpt>
      <trkpt lat="41.665513214" lon="2.512728550">
        <ele>246.72</ele>
        <time>2013-06-30T10:24:18Z</time>
      </trkpt>
      <trkpt lat="41.665539030" lon="2.512669457">
        <ele>246.72</ele>
        <time>2013-06-30T10:24:21Z</time>
      </trkpt>
      <trkpt lat="41.665505335" lon="2.512576250">
        <ele>246.72</ele>
        <time>2013-06-30T10:24:28Z</time>
      </trkpt>
      <trkpt lat="41.665492427" lon="2.512588404">
        <ele>246.72</ele>
        <time>2013-06-30T10:24:38Z</time>
      </trkpt>
      <trkpt lat="41.665477758" lon="2.512564935">
        <ele>246.72</ele>
        <time>2013-06-30T10:24:49Z</time>
      </trkpt>
      <trkpt lat="41.665470215" lon="2.512552111">
        <ele>246.72</ele>
        <time>2013-06-30T10:25:09Z</time>
      </trkpt>
      <trkpt lat="41.665462503" lon="2.512544399">
        <ele>246.72</ele>
        <time>2013-06-30T10:25:16Z</time>
      </trkpt>
      <trkpt lat="41.665454373" lon="2.512476338">
        <ele>246.72</ele>
        <time>2013-06-30T10:25:20Z</time>
      </trkpt>
      <trkpt lat="41.665431323" lon="2.512311885">
        <ele>246.72</ele>
        <time>2013-06-30T10:25:28Z</time>
      </trkpt>
      <trkpt lat="41.665360999" lon="2.512183474">
        <ele>247.20</ele>
        <time>2013-06-30T10:25:35Z</time>
      </trkpt>
      <trkpt lat="41.665264774" lon="2.512048777">
        <ele>248.64</ele>
        <time>2013-06-30T10:25:43Z</time>
      </trkpt>
      <trkpt lat="41.665251866" lon="2.512033858">
        <ele>248.64</ele>
        <time>2013-06-30T10:25:44Z</time>
      </trkpt>
      <trkpt lat="41.665144913" lon="2.511885079">
        <ele>250.56</ele>
        <time>2013-06-30T10:25:53Z</time>
      </trkpt>
      <trkpt lat="41.665018095" lon="2.511737306">
        <ele>252.48</ele>
        <time>2013-06-30T10:26:01Z</time>
      </trkpt>
      <trkpt lat="41.664856408" lon="2.511594646">
        <ele>253.44</ele>
        <time>2013-06-30T10:26:09Z</time>
      </trkpt>
      <trkpt lat="41.664712910" lon="2.511475790">
        <ele>254.89</ele>
        <time>2013-06-30T10:26:16Z</time>
      </trkpt>
      <trkpt lat="41.664573519" lon="2.511321563">
        <ele>256.33</ele>
        <time>2013-06-30T10:26:24Z</time>
      </trkpt>
      <trkpt lat="41.664438570" lon="2.511103718">
        <ele>258.73</ele>
        <time>2013-06-30T10:26:35Z</time>
      </trkpt>
      <trkpt lat="41.664349973" lon="2.510964327">
        <ele>260.17</ele>
        <time>2013-06-30T10:26:42Z</time>
      </trkpt>
      <trkpt lat="41.664338825" lon="2.510949407">
        <ele>260.65</ele>
        <time>2013-06-30T10:26:43Z</time>
      </trkpt>
      <trkpt lat="41.664273447" lon="2.510845890">
        <ele>262.10</ele>
        <time>2013-06-30T10:26:51Z</time>
      </trkpt>
      <trkpt lat="41.664220557" lon="2.510755869">
        <ele>263.06</ele>
        <time>2013-06-30T10:26:58Z</time>
      </trkpt>
      <trkpt lat="41.664133972" lon="2.510591667">
        <ele>264.98</ele>
        <time>2013-06-30T10:27:08Z</time>
      </trkpt>
      <trkpt lat="41.664074460" lon="2.510485552">
        <ele>266.42</ele>
        <time>2013-06-30T10:27:15Z</time>
      </trkpt>
      <trkpt lat="41.664015368" lon="2.510370469">
        <ele>267.38</ele>
        <time>2013-06-30T10:27:23Z</time>
      </trkpt>
      <trkpt lat="41.663977985" lon="2.510272484">
        <ele>268.35</ele>
        <time>2013-06-30T10:27:29Z</time>
      </trkpt>
      <trkpt lat="41.663944625" lon="2.510205513">
        <ele>269.31</ele>
        <time>2013-06-30T10:27:33Z</time>
      </trkpt>
      <trkpt lat="41.663923083" lon="2.510125131">
        <ele>269.79</ele>
        <time>2013-06-30T10:27:37Z</time>
      </trkpt>
      <trkpt lat="41.663898273" lon="2.510001330">
        <ele>271.23</ele>
        <time>2013-06-30T10:27:43Z</time>
      </trkpt>
      <trkpt lat="41.663861392" lon="2.509934694">
        <ele>272.19</ele>
        <time>2013-06-30T10:27:47Z</time>
      </trkpt>
      <trkpt lat="41.663834989" lon="2.509861520">
        <ele>272.19</ele>
        <time>2013-06-30T10:27:51Z</time>
      </trkpt>
      <trkpt lat="41.663757373" lon="2.509690110">
        <ele>273.63</ele>
        <time>2013-06-30T10:28:01Z</time>
      </trkpt>
      <trkpt lat="41.663692245" lon="2.509556083">
        <ele>275.56</ele>
        <time>2013-06-30T10:28:10Z</time>
      </trkpt>
      <trkpt lat="41.663609432" lon="2.509421051">
        <ele>277.48</ele>
        <time>2013-06-30T10:28:20Z</time>
      </trkpt>
      <trkpt lat="41.663541120" lon="2.509314265">
        <ele>278.92</ele>
        <time>2013-06-30T10:28:28Z</time>
      </trkpt>
      <trkpt lat="41.663459731" lon="2.509172611">
        <ele>281.32</ele>
        <time>2013-06-30T10:28:36Z</time>
      </trkpt>
      <trkpt lat="41.663418576" lon="2.509109579">
        <ele>282.28</ele>
        <time>2013-06-30T10:28:40Z</time>
      </trkpt>
      <trkpt lat="41.663377337" lon="2.509011343">
        <ele>282.77</ele>
        <time>2013-06-30T10:28:45Z</time>
      </trkpt>
      <trkpt lat="41.663346240" lon="2.508823589">
        <ele>283.73</ele>
        <time>2013-06-30T10:28:54Z</time>
      </trkpt>
      <trkpt lat="41.663328219" lon="2.508629967">
        <ele>284.69</ele>
        <time>2013-06-30T10:29:03Z</time>
      </trkpt>
      <trkpt lat="41.663284382" lon="2.508429639">
        <ele>286.61</ele>
        <time>2013-06-30T10:29:13Z</time>
      </trkpt>
      <trkpt lat="41.663261667" lon="2.508254457">
        <ele>287.09</ele>
        <time>2013-06-30T10:29:20Z</time>
      </trkpt>
      <trkpt lat="41.663271474" lon="2.508053124">
        <ele>287.57</ele>
        <time>2013-06-30T10:29:29Z</time>
      </trkpt>
      <trkpt lat="41.663276671" lon="2.507851455">
        <ele>289.01</ele>
        <time>2013-06-30T10:29:37Z</time>
      </trkpt>
      <trkpt lat="41.663211376" lon="2.507689936">
        <ele>290.46</ele>
        <time>2013-06-30T10:29:45Z</time>
      </trkpt>
      <trkpt lat="41.663120348" lon="2.507526321">
        <ele>292.38</ele>
        <time>2013-06-30T10:29:54Z</time>
      </trkpt>
      <trkpt lat="41.663034434" lon="2.507359941">
        <ele>294.78</ele>
        <time>2013-06-30T10:30:03Z</time>
      </trkpt>
      <trkpt lat="41.663002750" lon="2.507204121">
        <ele>295.74</ele>
        <time>2013-06-30T10:30:11Z</time>
      </trkpt>
      <trkpt lat="41.662953967" lon="2.507049475">
        <ele>297.18</ele>
        <time>2013-06-30T10:30:19Z</time>
      </trkpt>
      <trkpt lat="41.662922619" lon="2.506846633">
        <ele>298.63</ele>
        <time>2013-06-30T10:30:28Z</time>
      </trkpt>
      <trkpt lat="41.662895546" lon="2.506698944">
        <ele>301.03</ele>
        <time>2013-06-30T10:30:36Z</time>
      </trkpt>
      <trkpt lat="41.662919350" lon="2.506511524">
        <ele>301.51</ele>
        <time>2013-06-30T10:30:44Z</time>
      </trkpt>
      <trkpt lat="41.662967295" lon="2.506343635">
        <ele>302.47</ele>
        <time>2013-06-30T10:30:52Z</time>
      </trkpt>
      <trkpt lat="41.662868556" lon="2.506237017">
        <ele>303.43</ele>
        <time>2013-06-30T10:31:00Z</time>
      </trkpt>
      <trkpt lat="41.662690440" lon="2.506217152">
        <ele>303.91</ele>
        <time>2013-06-30T10:31:09Z</time>
      </trkpt>
      <trkpt lat="41.662533699" lon="2.506202484">
        <ele>304.88</ele>
        <time>2013-06-30T10:31:17Z</time>
      </trkpt>
      <trkpt lat="41.662328677" lon="2.506248919">
        <ele>304.88</ele>
        <time>2013-06-30T10:31:26Z</time>
      </trkpt>
      <trkpt lat="41.662250642" lon="2.506240621">
        <ele>304.88</ele>
        <time>2013-06-30T10:31:29Z</time>
      </trkpt>
      <trkpt lat="41.662110496" lon="2.506118748">
        <ele>304.88</ele>
        <time>2013-06-30T10:31:36Z</time>
      </trkpt>
      <trkpt lat="41.662033551" lon="2.505941136">
        <ele>304.88</ele>
        <time>2013-06-30T10:31:43Z</time>
      </trkpt>
      <trkpt lat="41.661950151" lon="2.505716166">
        <ele>304.88</ele>
        <time>2013-06-30T10:31:51Z</time>
      </trkpt>
      <trkpt lat="41.661850155" lon="2.505543750">
        <ele>305.36</ele>
        <time>2013-06-30T10:31:58Z</time>
      </trkpt>
      <trkpt lat="41.661721409" lon="2.505389439">
        <ele>306.32</ele>
        <time>2013-06-30T10:32:05Z</time>
      </trkpt>
      <trkpt lat="41.661539186" lon="2.505215515">
        <ele>307.76</ele>
        <time>2013-06-30T10:32:14Z</time>
      </trkpt>
      <trkpt lat="41.661453020" lon="2.505162289">
        <ele>309.20</ele>
        <time>2013-06-30T10:32:18Z</time>
      </trkpt>
      <trkpt lat="41.661275407" lon="2.505144520">
        <ele>309.20</ele>
        <time>2013-06-30T10:32:25Z</time>
      </trkpt>
      <trkpt lat="41.661038451" lon="2.505145023">
        <ele>309.20</ele>
        <time>2013-06-30T10:32:32Z</time>
      </trkpt>
      <trkpt lat="41.660878441" lon="2.505098000">
        <ele>309.20</ele>
        <time>2013-06-30T10:32:38Z</time>
      </trkpt>
      <trkpt lat="41.660656907" lon="2.505047709">
        <ele>309.20</ele>
        <time>2013-06-30T10:32:46Z</time>
      </trkpt>
      <trkpt lat="41.660463453" lon="2.505072016">
        <ele>309.20</ele>
        <time>2013-06-30T10:32:53Z</time>
      </trkpt>
      <trkpt lat="41.660247702" lon="2.505122811">
        <ele>309.20</ele>
        <time>2013-06-30T10:33:01Z</time>
      </trkpt>
      <trkpt lat="41.660010746" lon="2.505128175">
        <ele>309.68</ele>
        <time>2013-06-30T10:33:10Z</time>
      </trkpt>
      <trkpt lat="41.659794828" lon="2.505116273">
        <ele>310.64</ele>
        <time>2013-06-30T10:33:18Z</time>
      </trkpt>
      <trkpt lat="41.659613779" lon="2.505220460">
        <ele>311.12</ele>
        <time>2013-06-30T10:33:25Z</time>
      </trkpt>
      <trkpt lat="41.659472712" lon="2.505413244">
        <ele>311.60</ele>
        <time>2013-06-30T10:33:33Z</time>
      </trkpt>
      <trkpt lat="41.659360226" lon="2.505580463">
        <ele>312.57</ele>
        <time>2013-06-30T10:33:40Z</time>
      </trkpt>
      <trkpt lat="41.659202479" lon="2.505591611">
        <ele>312.57</ele>
        <time>2013-06-30T10:33:46Z</time>
      </trkpt>
      <trkpt lat="41.658960410" lon="2.505510138">
        <ele>313.05</ele>
        <time>2013-06-30T10:33:55Z</time>
      </trkpt>
      <trkpt lat="41.658826970" lon="2.505403185">
        <ele>313.53</ele>
        <time>2013-06-30T10:34:01Z</time>
      </trkpt>
      <trkpt lat="41.658704510" lon="2.505308973">
        <ele>314.49</ele>
        <time>2013-06-30T10:34:07Z</time>
      </trkpt>
      <trkpt lat="41.658559336" lon="2.505164134">
        <ele>314.49</ele>
        <time>2013-06-30T10:34:14Z</time>
      </trkpt>
      <trkpt lat="41.658446348" lon="2.505024323">
        <ele>314.97</ele>
        <time>2013-06-30T10:34:19Z</time>
      </trkpt>
      <trkpt lat="41.658336293" lon="2.504946791">
        <ele>314.01</ele>
        <time>2013-06-30T10:34:22Z</time>
      </trkpt>
      <trkpt lat="41.657803036" lon="2.504849142">
        <ele>312.09</ele>
        <time>2013-06-30T10:34:31Z</time>
      </trkpt>
      <trkpt lat="41.657500617" lon="2.504874036">
        <ele>311.60</ele>
        <time>2013-06-30T10:34:36Z</time>
      </trkpt>
      <trkpt lat="41.657256117" lon="2.505038489">
        <ele>310.64</ele>
        <time>2013-06-30T10:34:41Z</time>
      </trkpt>
      <trkpt lat="41.656946238" lon="2.505533859">
        <ele>308.72</ele>
        <time>2013-06-30T10:34:49Z</time>
      </trkpt>
      <trkpt lat="41.656799136" lon="2.505887659">
        <ele>306.32</ele>
        <time>2013-06-30T10:34:53Z</time>
      </trkpt>
      <trkpt lat="41.656699056" lon="2.506070469">
        <ele>305.36</ele>
        <time>2013-06-30T10:34:55Z</time>
      </trkpt>
      <trkpt lat="41.656465871" lon="2.506332990">
        <ele>302.47</ele>
        <time>2013-06-30T10:34:58Z</time>
      </trkpt>
      <trkpt lat="41.656375095" lon="2.506414797">
        <ele>301.51</ele>
        <time>2013-06-30T10:34:59Z</time>
      </trkpt>
      <trkpt lat="41.656070665" lon="2.506587129">
        <ele>299.59</ele>
        <time>2013-06-30T10:35:02Z</time>
      </trkpt>
      <trkpt lat="41.655965304" lon="2.506624596">
        <ele>299.59</ele>
        <time>2013-06-30T10:35:03Z</time>
      </trkpt>
      <trkpt lat="41.655506898" lon="2.506649826">
        <ele>300.07</ele>
        <time>2013-06-30T10:35:08Z</time>
      </trkpt>
      <trkpt lat="41.655334314" lon="2.506630128">
        <ele>301.99</ele>
        <time>2013-06-30T10:35:11Z</time>
      </trkpt>
      <trkpt lat="41.655248735" lon="2.506607916">
        <ele>302.47</ele>
        <time>2013-06-30T10:35:13Z</time>
      </trkpt>
      <trkpt lat="41.655147650" lon="2.506578496">
        <ele>303.91</ele>
        <time>2013-06-30T10:35:16Z</time>
      </trkpt>
      <trkpt lat="41.654902563" lon="2.506468525">
        <ele>304.88</ele>
        <time>2013-06-30T10:35:25Z</time>
      </trkpt>
      <trkpt lat="41.654756801" lon="2.506532479">
        <ele>304.88</ele>
        <time>2013-06-30T10:35:31Z</time>
      </trkpt>
      <trkpt lat="41.654680191" lon="2.506781338">
        <ele>304.88</ele>
        <time>2013-06-30T10:35:37Z</time>
      </trkpt>
      <trkpt lat="41.654626547" lon="2.506919723">
        <ele>303.43</ele>
        <time>2013-06-30T10:35:40Z</time>
      </trkpt>
      <trkpt lat="41.654568795" lon="2.507126086">
        <ele>302.95</ele>
        <time>2013-06-30T10:35:44Z</time>
      </trkpt>
      <trkpt lat="41.654506853" lon="2.507318953">
        <ele>302.47</ele>
        <time>2013-06-30T10:35:48Z</time>
      </trkpt>
      <trkpt lat="41.654554127" lon="2.507432109">
        <ele>301.51</ele>
        <time>2013-06-30T10:35:52Z</time>
      </trkpt>
      <trkpt lat="41.654604921" lon="2.507440826">
        <ele>303.43</ele>
        <time>2013-06-30T10:35:54Z</time>
      </trkpt>
      <trkpt lat="41.654742301" lon="2.507489106">
        <ele>305.36</ele>
        <time>2013-06-30T10:36:01Z</time>
      </trkpt>
      <trkpt lat="41.654919829" lon="2.507469660">
        <ele>306.80</ele>
        <time>2013-06-30T10:36:10Z</time>
      </trkpt>
      <trkpt lat="41.655131053" lon="2.507346865">
        <ele>304.88</ele>
        <time>2013-06-30T10:36:15Z</time>
      </trkpt>
      <trkpt lat="41.655351665" lon="2.507289952">
        <ele>304.39</ele>
        <time>2013-06-30T10:36:20Z</time>
      </trkpt>
      <trkpt lat="41.655470437" lon="2.507454991">
        <ele>302.95</ele>
        <time>2013-06-30T10:36:24Z</time>
      </trkpt>
      <trkpt lat="41.655566158" lon="2.507779706">
        <ele>301.99</ele>
        <time>2013-06-30T10:36:30Z</time>
      </trkpt>
      <trkpt lat="41.655787105" lon="2.508001408">
        <ele>300.55</ele>
        <time>2013-06-30T10:36:36Z</time>
      </trkpt>
      <trkpt lat="41.655925490" lon="2.507938543">
        <ele>300.07</ele>
        <time>2013-06-30T10:36:39Z</time>
      </trkpt>
      <trkpt lat="41.656021966" lon="2.507809211">
        <ele>298.63</ele>
        <time>2013-06-30T10:36:42Z</time>
      </trkpt>
      <trkpt lat="41.656215001" lon="2.507543672">
        <ele>297.67</ele>
        <time>2013-06-30T10:36:48Z</time>
      </trkpt>
      <trkpt lat="41.656373251" lon="2.507567560">
        <ele>297.18</ele>
        <time>2013-06-30T10:36:51Z</time>
      </trkpt>
      <trkpt lat="41.656623619" lon="2.507875344">
        <ele>295.26</ele>
        <time>2013-06-30T10:36:57Z</time>
      </trkpt>
      <trkpt lat="41.656681286" lon="2.508122694">
        <ele>293.82</ele>
        <time>2013-06-30T10:37:00Z</time>
      </trkpt>
      <trkpt lat="41.656683885" lon="2.508603564">
        <ele>289.97</ele>
        <time>2013-06-30T10:37:06Z</time>
      </trkpt>
      <trkpt lat="41.656685729" lon="2.508808250">
        <ele>288.53</ele>
        <time>2013-06-30T10:37:10Z</time>
      </trkpt>
      <trkpt lat="41.656719089" lon="2.509141347">
        <ele>285.65</ele>
        <time>2013-06-30T10:37:16Z</time>
      </trkpt>
      <trkpt lat="41.656558408" lon="2.509225166">
        <ele>283.73</ele>
        <time>2013-06-30T10:37:20Z</time>
      </trkpt>
      <trkpt lat="41.656379789" lon="2.509209324">
        <ele>282.28</ele>
        <time>2013-06-30T10:37:23Z</time>
      </trkpt>
      <trkpt lat="41.656192538" lon="2.509050403">
        <ele>278.92</ele>
        <time>2013-06-30T10:37:27Z</time>
      </trkpt>
      <trkpt lat="41.656111987" lon="2.508826019">
        <ele>277.00</ele>
        <time>2013-06-30T10:37:31Z</time>
      </trkpt>
      <trkpt lat="41.656040490" lon="2.508797018">
        <ele>276.04</ele>
        <time>2013-06-30T10:37:33Z</time>
      </trkpt>
      <trkpt lat="41.655938901" lon="2.508798024">
        <ele>275.07</ele>
        <time>2013-06-30T10:37:35Z</time>
      </trkpt>
      <trkpt lat="41.655581581" lon="2.508876981">
        <ele>271.23</ele>
        <time>2013-06-30T10:37:40Z</time>
      </trkpt>
      <trkpt lat="41.655447889" lon="2.509075884">
        <ele>269.31</ele>
        <time>2013-06-30T10:37:44Z</time>
      </trkpt>
      <trkpt lat="41.655436993" lon="2.509215526">
        <ele>269.31</ele>
        <time>2013-06-30T10:37:46Z</time>
      </trkpt>
      <trkpt lat="41.655302799" lon="2.509542840">
        <ele>267.86</ele>
        <time>2013-06-30T10:37:52Z</time>
      </trkpt>
      <trkpt lat="41.655081516" lon="2.509580474">
        <ele>266.90</ele>
        <time>2013-06-30T10:37:57Z</time>
      </trkpt>
      <trkpt lat="41.654896779" lon="2.509665216">
        <ele>266.90</ele>
        <time>2013-06-30T10:38:02Z</time>
      </trkpt>
      <trkpt lat="41.654634174" lon="2.509815335">
        <ele>265.94</ele>
        <time>2013-06-30T10:38:08Z</time>
      </trkpt>
      <trkpt lat="41.654586062" lon="2.509802511">
        <ele>265.46</ele>
        <time>2013-06-30T10:38:09Z</time>
      </trkpt>
      <trkpt lat="41.654408533" lon="2.509733947">
        <ele>264.98</ele>
        <time>2013-06-30T10:38:14Z</time>
      </trkpt>
      <trkpt lat="41.654283811" lon="2.509827908">
        <ele>264.50</ele>
        <time>2013-06-30T10:38:18Z</time>
      </trkpt>
      <trkpt lat="41.654267047" lon="2.509928575">
        <ele>264.50</ele>
        <time>2013-06-30T10:38:20Z</time>
      </trkpt>
      <trkpt lat="41.654222036" lon="2.510110295">
        <ele>263.06</ele>
        <time>2013-06-30T10:38:23Z</time>
      </trkpt>
      <trkpt lat="41.653977703" lon="2.510557469">
        <ele>260.17</ele>
        <time>2013-06-30T10:38:29Z</time>
      </trkpt>
      <trkpt lat="41.653701101" lon="2.510896852">
        <ele>256.81</ele>
        <time>2013-06-30T10:38:34Z</time>
      </trkpt>
      <trkpt lat="41.653499348" lon="2.511188040">
        <ele>253.93</ele>
        <time>2013-06-30T10:38:38Z</time>
      </trkpt>
      <trkpt lat="41.653391808" lon="2.511285689">
        <ele>253.44</ele>
        <time>2013-06-30T10:38:40Z</time>
      </trkpt>
      <trkpt lat="41.653213525" lon="2.511376046">
        <ele>250.08</ele>
        <time>2013-06-30T10:38:43Z</time>
      </trkpt>
      <trkpt lat="41.652980173" lon="2.511392726">
        <ele>248.64</ele>
        <time>2013-06-30T10:38:47Z</time>
      </trkpt>
      <trkpt lat="41.652607765" lon="2.511250150">
        <ele>244.31</ele>
        <time>2013-06-30T10:38:52Z</time>
      </trkpt>
      <trkpt lat="41.652452449" lon="2.511221232">
        <ele>241.91</ele>
        <time>2013-06-30T10:38:54Z</time>
      </trkpt>
      <trkpt lat="41.652195627" lon="2.511176389">
        <ele>239.99</ele>
        <time>2013-06-30T10:38:57Z</time>
      </trkpt>
      <trkpt lat="41.651712494" lon="2.511079997">
        <ele>238.06</ele>
        <time>2013-06-30T10:39:03Z</time>
      </trkpt>
      <trkpt lat="41.651332040" lon="2.510979498">
        <ele>235.66</ele>
        <time>2013-06-30T10:39:08Z</time>
      </trkpt>
      <trkpt lat="41.651196672" lon="2.511062730">
        <ele>234.70</ele>
        <time>2013-06-30T10:39:10Z</time>
      </trkpt>
      <trkpt lat="41.650774392" lon="2.511249982">
        <ele>232.78</ele>
        <time>2013-06-30T10:39:16Z</time>
      </trkpt>
      <trkpt lat="41.650510697" lon="2.511074884">
        <ele>231.81</ele>
        <time>2013-06-30T10:39:20Z</time>
      </trkpt>
      <trkpt lat="41.650320176" lon="2.510903977">
        <ele>229.89</ele>
        <time>2013-06-30T10:39:23Z</time>
      </trkpt>
      <trkpt lat="41.649919857" lon="2.510773555">
        <ele>227.97</ele>
        <time>2013-06-30T10:39:28Z</time>
      </trkpt>
      <trkpt lat="41.649588101" lon="2.510647826">
        <ele>224.61</ele>
        <time>2013-06-30T10:39:32Z</time>
      </trkpt>
      <trkpt lat="41.649435215" lon="2.510568198">
        <ele>224.12</ele>
        <time>2013-06-30T10:39:34Z</time>
      </trkpt>
      <trkpt lat="41.649357012" lon="2.510525702">
        <ele>222.68</ele>
        <time>2013-06-30T10:39:35Z</time>
      </trkpt>
      <trkpt lat="41.649047049" lon="2.510504831">
        <ele>220.28</ele>
        <time>2013-06-30T10:39:40Z</time>
      </trkpt>
      <trkpt lat="41.648857115" lon="2.510735501">
        <ele>219.32</ele>
        <time>2013-06-30T10:39:45Z</time>
      </trkpt>
      <trkpt lat="41.648687046" lon="2.510796437">
        <ele>220.76</ele>
        <time>2013-06-30T10:39:49Z</time>
      </trkpt>
      <trkpt lat="41.648473140" lon="2.510710020">
        <ele>221.72</ele>
        <time>2013-06-30T10:39:57Z</time>
      </trkpt>
      <trkpt lat="41.648305921" lon="2.510552188">
        <ele>221.72</ele>
        <time>2013-06-30T10:40:04Z</time>
      </trkpt>
      <trkpt lat="41.648160411" lon="2.510447499">
        <ele>221.72</ele>
        <time>2013-06-30T10:40:09Z</time>
      </trkpt>
      <trkpt lat="41.648018170" lon="2.510396201">
        <ele>221.72</ele>
        <time>2013-06-30T10:40:14Z</time>
      </trkpt>
      <trkpt lat="41.647848940" lon="2.510272652">
        <ele>221.72</ele>
        <time>2013-06-30T10:40:20Z</time>
      </trkpt>
      <trkpt lat="41.647759756" lon="2.510225462">
        <ele>221.72</ele>
        <time>2013-06-30T10:40:24Z</time>
      </trkpt>
      <trkpt lat="41.647581473" lon="2.510382455">
        <ele>221.72</ele>
        <time>2013-06-30T10:40:31Z</time>
      </trkpt>
      <trkpt lat="41.647452057" lon="2.510524863">
        <ele>221.72</ele>
        <time>2013-06-30T10:40:39Z</time>
      </trkpt>
      <trkpt lat="41.647421546" lon="2.510545232">
        <ele>221.72</ele>
        <time>2013-06-30T10:40:45Z</time>
      </trkpt>
      <trkpt lat="41.647407381" lon="2.510543387">
        <ele>221.72</ele>
        <time>2013-06-30T10:41:00Z</time>
      </trkpt>
      <trkpt lat="41.647406543" lon="2.510527881">
        <ele>221.72</ele>
        <time>2013-06-30T10:41:21Z</time>
      </trkpt>
      <trkpt lat="41.647403106" lon="2.510526875">
        <ele>221.72</ele>
        <time>2013-06-30T10:41:39Z</time>
      </trkpt>
      <trkpt lat="41.647404699" lon="2.510533078">
        <ele>221.72</ele>
        <time>2013-06-30T10:41:59Z</time>
      </trkpt>
      <trkpt lat="41.647419116" lon="2.510529641">
        <ele>221.72</ele>
        <time>2013-06-30T10:42:18Z</time>
      </trkpt>
      <trkpt lat="41.647427246" lon="2.510524193">
        <ele>221.72</ele>
        <time>2013-06-30T10:42:31Z</time>
      </trkpt>
      <trkpt lat="41.647412745" lon="2.510530144">
        <ele>221.72</ele>
        <time>2013-06-30T10:42:34Z</time>
      </trkpt>
      <trkpt lat="41.647376117" lon="2.510595942">
        <ele>221.72</ele>
        <time>2013-06-30T10:42:38Z</time>
      </trkpt>
      <trkpt lat="41.647350636" lon="2.510582531">
        <ele>221.72</ele>
        <time>2013-06-30T10:42:42Z</time>
      </trkpt>
      <trkpt lat="41.647392797" lon="2.510506004">
        <ele>220.76</ele>
        <time>2013-06-30T10:42:49Z</time>
      </trkpt>
      <trkpt lat="41.647451302" lon="2.510382539">
        <ele>220.28</ele>
        <time>2013-06-30T10:42:56Z</time>
      </trkpt>
      <trkpt lat="41.647462534" lon="2.510359572">
        <ele>220.28</ele>
        <time>2013-06-30T10:42:57Z</time>
      </trkpt>
      <trkpt lat="41.647473850" lon="2.510239795">
        <ele>219.80</ele>
        <time>2013-06-30T10:43:02Z</time>
      </trkpt>
      <trkpt lat="41.647480052" lon="2.510158826">
        <ele>219.80</ele>
        <time>2013-06-30T10:43:05Z</time>
      </trkpt>
      <trkpt lat="41.647556244" lon="2.509990936">
        <ele>219.32</ele>
        <time>2013-06-30T10:43:12Z</time>
      </trkpt>
      <trkpt lat="41.647565799" lon="2.509973837">
        <ele>219.32</ele>
        <time>2013-06-30T10:43:13Z</time>
      </trkpt>
      <trkpt lat="41.647571247" lon="2.509938633">
        <ele>219.32</ele>
        <time>2013-06-30T10:43:21Z</time>
      </trkpt>
      <trkpt lat="41.647573343" lon="2.509925977">
        <ele>219.32</ele>
        <time>2013-06-30T10:43:27Z</time>
      </trkpt>
      <trkpt lat="41.647407465" lon="2.509771330">
        <ele>218.84</ele>
        <time>2013-06-30T10:43:36Z</time>
      </trkpt>
      <trkpt lat="41.647195738" lon="2.509600842">
        <ele>218.36</ele>
        <time>2013-06-30T10:43:45Z</time>
      </trkpt>
      <trkpt lat="41.647048887" lon="2.509482071">
        <ele>218.36</ele>
        <time>2013-06-30T10:43:52Z</time>
      </trkpt>
      <trkpt lat="41.646856522" lon="2.509323234">
        <ele>218.36</ele>
        <time>2013-06-30T10:44:01Z</time>
      </trkpt>
      <trkpt lat="41.646613531" lon="2.509174874">
        <ele>218.36</ele>
        <time>2013-06-30T10:44:10Z</time>
      </trkpt>
      <trkpt lat="41.646554439" lon="2.509133803">
        <ele>219.80</ele>
        <time>2013-06-30T10:44:12Z</time>
      </trkpt>
      <trkpt lat="41.646341706" lon="2.508988880">
        <ele>220.76</ele>
        <time>2013-06-30T10:44:20Z</time>
      </trkpt>
      <trkpt lat="41.646114053" lon="2.508834569">
        <ele>222.20</ele>
        <time>2013-06-30T10:44:30Z</time>
      </trkpt>
      <trkpt lat="41.645928646" lon="2.508688808">
        <ele>222.20</ele>
        <time>2013-06-30T10:44:38Z</time>
      </trkpt>
      <trkpt lat="41.645694120" lon="2.508502394">
        <ele>222.68</ele>
        <time>2013-06-30T10:44:47Z</time>
      </trkpt>
      <trkpt lat="41.645636955" lon="2.508446319">
        <ele>222.68</ele>
        <time>2013-06-30T10:44:49Z</time>
      </trkpt>
      <trkpt lat="41.645300087" lon="2.508169465">
        <ele>220.28</ele>
        <time>2013-06-30T10:44:58Z</time>
      </trkpt>
      <trkpt lat="41.645184500" lon="2.508105176">
        <ele>220.28</ele>
        <time>2013-06-30T10:45:03Z</time>
      </trkpt>
      <trkpt lat="41.645002697" lon="2.507967545">
        <ele>220.28</ele>
        <time>2013-06-30T10:45:11Z</time>
      </trkpt>
      <trkpt lat="41.644787450" lon="2.507857742">
        <ele>220.76</ele>
        <time>2013-06-30T10:45:19Z</time>
      </trkpt>
      <trkpt lat="41.644726429" lon="2.507840643">
        <ele>220.76</ele>
        <time>2013-06-30T10:45:22Z</time>
      </trkpt>
      <trkpt lat="41.644587625" lon="2.507776270">
        <ele>220.76</ele>
        <time>2013-06-30T10:45:30Z</time>
      </trkpt>
      <trkpt lat="41.644598773" lon="2.507779874">
        <ele>220.76</ele>
        <time>2013-06-30T10:45:41Z</time>
      </trkpt>
      <trkpt lat="41.644578824" lon="2.507734863">
        <ele>220.76</ele>
        <time>2013-06-30T10:45:57Z</time>
      </trkpt>
      <trkpt lat="41.644568514" lon="2.507708293">
        <ele>220.76</ele>
        <time>2013-06-30T10:45:59Z</time>
      </trkpt>
      <trkpt lat="41.644414203" lon="2.507646266">
        <ele>220.76</ele>
        <time>2013-06-30T10:46:06Z</time>
      </trkpt>
      <trkpt lat="41.644219073" lon="2.507504864">
        <ele>221.72</ele>
        <time>2013-06-30T10:46:14Z</time>
      </trkpt>
      <trkpt lat="41.644034587" lon="2.507341668">
        <ele>222.68</ele>
        <time>2013-06-30T10:46:22Z</time>
      </trkpt>
      <trkpt lat="41.643897711" lon="2.507220969">
        <ele>224.61</ele>
        <time>2013-06-30T10:46:29Z</time>
      </trkpt>
      <trkpt lat="41.643791763" lon="2.507216359">
        <ele>226.05</ele>
        <time>2013-06-30T10:46:35Z</time>
      </trkpt>
      <trkpt lat="41.643637955" lon="2.507224908">
        <ele>227.01</ele>
        <time>2013-06-30T10:46:43Z</time>
      </trkpt>
      <trkpt lat="41.643498061" lon="2.507248797">
        <ele>227.97</ele>
        <time>2013-06-30T10:46:50Z</time>
      </trkpt>
      <trkpt lat="41.643339811" lon="2.507265309">
        <ele>228.45</ele>
        <time>2013-06-30T10:46:57Z</time>
      </trkpt>
      <trkpt lat="41.643130934" lon="2.507278720">
        <ele>229.41</ele>
        <time>2013-06-30T10:47:06Z</time>
      </trkpt>
      <trkpt lat="41.642912585" lon="2.507324988">
        <ele>230.37</ele>
        <time>2013-06-30T10:47:15Z</time>
      </trkpt>
      <trkpt lat="41.642687112" lon="2.507316522">
        <ele>231.33</ele>
        <time>2013-06-30T10:47:24Z</time>
      </trkpt>
      <trkpt lat="41.642428111" lon="2.507298082">
        <ele>232.30</ele>
        <time>2013-06-30T10:47:34Z</time>
      </trkpt>
      <trkpt lat="41.642170871" lon="2.507290706">
        <ele>233.26</ele>
        <time>2013-06-30T10:47:44Z</time>
      </trkpt>
      <trkpt lat="41.641913379" lon="2.507249886">
        <ele>233.74</ele>
        <time>2013-06-30T10:47:54Z</time>
      </trkpt>
      <trkpt lat="41.641721266" lon="2.507213676">
        <ele>234.22</ele>
        <time>2013-06-30T10:48:02Z</time>
      </trkpt>
      <trkpt lat="41.641478609" lon="2.507170342">
        <ele>234.22</ele>
        <time>2013-06-30T10:48:10Z</time>
      </trkpt>
      <trkpt lat="41.641246766" lon="2.507225160">
        <ele>234.22</ele>
        <time>2013-06-30T10:48:18Z</time>
      </trkpt>
      <trkpt lat="41.641096227" lon="2.507297328">
        <ele>234.22</ele>
        <time>2013-06-30T10:48:24Z</time>
      </trkpt>
      <trkpt lat="41.640917525" lon="2.507365557">
        <ele>234.22</ele>
        <time>2013-06-30T10:48:31Z</time>
      </trkpt>
      <trkpt lat="41.640616112" lon="2.507355247">
        <ele>234.22</ele>
        <time>2013-06-30T10:48:40Z</time>
      </trkpt>
      <trkpt lat="41.640402708" lon="2.507399252">
        <ele>234.70</ele>
        <time>2013-06-30T10:48:47Z</time>
      </trkpt>
      <trkpt lat="41.640188970" lon="2.507468570">
        <ele>235.66</ele>
        <time>2013-06-30T10:48:55Z</time>
      </trkpt>
      <trkpt lat="41.639996270" lon="2.507518945">
        <ele>236.14</ele>
        <time>2013-06-30T10:49:02Z</time>
      </trkpt>
      <trkpt lat="41.639743639" lon="2.507569237">
        <ele>236.14</ele>
        <time>2013-06-30T10:49:10Z</time>
      </trkpt>
      <trkpt lat="41.639529985" lon="2.507607710">
        <ele>237.10</ele>
        <time>2013-06-30T10:49:17Z</time>
      </trkpt>
      <trkpt lat="41.639314989" lon="2.507631263">
        <ele>237.58</ele>
        <time>2013-06-30T10:49:24Z</time>
      </trkpt>
      <trkpt lat="41.639129749" lon="2.507635202">
        <ele>238.06</ele>
        <time>2013-06-30T10:49:31Z</time>
      </trkpt>
      <trkpt lat="41.638914501" lon="2.507630089">
        <ele>239.02</ele>
        <time>2013-06-30T10:49:39Z</time>
      </trkpt>
      <trkpt lat="41.638707636" lon="2.507645596">
        <ele>239.51</ele>
        <time>2013-06-30T10:49:47Z</time>
      </trkpt>
      <trkpt lat="41.638459364" lon="2.507644925">
        <ele>239.51</ele>
        <time>2013-06-30T10:49:56Z</time>
      </trkpt>
      <trkpt lat="41.638235316" lon="2.507620031">
        <ele>239.99</ele>
        <time>2013-06-30T10:50:05Z</time>
      </trkpt>
      <trkpt lat="41.638052339" lon="2.507569907">
        <ele>239.99</ele>
        <time>2013-06-30T10:50:12Z</time>
      </trkpt>
      <trkpt lat="41.638030211" lon="2.507559346">
        <ele>240.47</ele>
        <time>2013-06-30T10:50:13Z</time>
      </trkpt>
      <trkpt lat="41.637932645" lon="2.507639058">
        <ele>240.47</ele>
        <time>2013-06-30T10:50:19Z</time>
      </trkpt>
      <trkpt lat="41.637917809" lon="2.507766212">
        <ele>242.39</ele>
        <time>2013-06-30T10:50:26Z</time>
      </trkpt>
      <trkpt lat="41.637899118" lon="2.507807367">
        <ele>242.87</ele>
        <time>2013-06-30T10:50:29Z</time>
      </trkpt>
      <trkpt lat="41.637856789" lon="2.507858999">
        <ele>244.31</ele>
        <time>2013-06-30T10:50:33Z</time>
      </trkpt>
      <trkpt lat="41.637722008" lon="2.507983973">
        <ele>245.27</ele>
        <time>2013-06-30T10:50:42Z</time>
      </trkpt>
      <trkpt lat="41.637663251" lon="2.508036696">
        <ele>245.75</ele>
        <time>2013-06-30T10:50:46Z</time>
      </trkpt>
      <trkpt lat="41.637521429" lon="2.508216068">
        <ele>247.20</ele>
        <time>2013-06-30T10:50:56Z</time>
      </trkpt>
      <trkpt lat="41.637453117" lon="2.508316232">
        <ele>248.16</ele>
        <time>2013-06-30T10:51:02Z</time>
      </trkpt>
      <trkpt lat="41.637292519" lon="2.508340540">
        <ele>249.60</ele>
        <time>2013-06-30T10:51:11Z</time>
      </trkpt>
      <trkpt lat="41.637272990" lon="2.508336349">
        <ele>249.60</ele>
        <time>2013-06-30T10:51:12Z</time>
      </trkpt>
      <trkpt lat="41.637167713" lon="2.508349760">
        <ele>250.08</ele>
        <time>2013-06-30T10:51:18Z</time>
      </trkpt>
      <trkpt lat="41.637071740" lon="2.508428801">
        <ele>251.52</ele>
        <time>2013-06-30T10:51:25Z</time>
      </trkpt>
      <trkpt lat="41.636935450" lon="2.508514967">
        <ele>252.48</ele>
        <time>2013-06-30T10:51:34Z</time>
      </trkpt>
      <trkpt lat="41.636804944" lon="2.508580681">
        <ele>252.96</ele>
        <time>2013-06-30T10:51:42Z</time>
      </trkpt>
      <trkpt lat="41.636684496" lon="2.508688556">
        <ele>253.93</ele>
        <time>2013-06-30T10:51:49Z</time>
      </trkpt>
      <trkpt lat="41.636562204" lon="2.508764748">
        <ele>254.89</ele>
        <time>2013-06-30T10:51:56Z</time>
      </trkpt>
      <trkpt lat="41.636543680" lon="2.508770196">
        <ele>255.37</ele>
        <time>2013-06-30T10:51:57Z</time>
      </trkpt>
      <trkpt lat="41.636331283" lon="2.508774974">
        <ele>257.29</ele>
        <time>2013-06-30T10:52:07Z</time>
      </trkpt>
      <trkpt lat="41.636196669" lon="2.508761730">
        <ele>258.73</ele>
        <time>2013-06-30T10:52:14Z</time>
      </trkpt>
      <trkpt lat="41.636068510" lon="2.508737842">
        <ele>259.21</ele>
        <time>2013-06-30T10:52:20Z</time>
      </trkpt>
      <trkpt lat="41.635875810" lon="2.508708002">
        <ele>260.65</ele>
        <time>2013-06-30T10:52:28Z</time>
      </trkpt>
      <trkpt lat="41.635712698" lon="2.508679252">
        <ele>261.62</ele>
        <time>2013-06-30T10:52:36Z</time>
      </trkpt>
      <trkpt lat="41.635568110" lon="2.508676402">
        <ele>261.62</ele>
        <time>2013-06-30T10:52:40Z</time>
      </trkpt>
      <trkpt lat="41.635416063" lon="2.508776650">
        <ele>261.62</ele>
        <time>2013-06-30T10:52:44Z</time>
      </trkpt>
      <trkpt lat="41.635261920" lon="2.508969098">
        <ele>261.62</ele>
        <time>2013-06-30T10:52:51Z</time>
      </trkpt>
      <trkpt lat="41.635071818" lon="2.509159116">
        <ele>262.10</ele>
        <time>2013-06-30T10:53:00Z</time>
      </trkpt>
      <trkpt lat="41.634834694" lon="2.509370592">
        <ele>262.10</ele>
        <time>2013-06-30T10:53:09Z</time>
      </trkpt>
      <trkpt lat="41.634672169" lon="2.509497577">
        <ele>262.10</ele>
        <time>2013-06-30T10:53:15Z</time>
      </trkpt>
      <trkpt lat="41.634504866" lon="2.509523645">
        <ele>263.54</ele>
        <time>2013-06-30T10:53:22Z</time>
      </trkpt>
      <trkpt lat="41.634422472" lon="2.509515850">
        <ele>264.02</ele>
        <time>2013-06-30T10:53:26Z</time>
      </trkpt>
      <trkpt lat="41.634312920" lon="2.509487687">
        <ele>264.02</ele>
        <time>2013-06-30T10:53:31Z</time>
      </trkpt>
      <trkpt lat="41.634077892" lon="2.509457260">
        <ele>264.50</ele>
        <time>2013-06-30T10:53:40Z</time>
      </trkpt>
      <trkpt lat="41.633945709" lon="2.509467067">
        <ele>265.46</ele>
        <time>2013-06-30T10:53:46Z</time>
      </trkpt>
      <trkpt lat="41.633783603" lon="2.509463798">
        <ele>266.90</ele>
        <time>2013-06-30T10:53:55Z</time>
      </trkpt>
      <trkpt lat="41.633618061" lon="2.509460613">
        <ele>268.83</ele>
        <time>2013-06-30T10:54:04Z</time>
      </trkpt>
      <trkpt lat="41.633472299" lon="2.509516437">
        <ele>271.71</ele>
        <time>2013-06-30T10:54:14Z</time>
      </trkpt>
      <trkpt lat="41.633401305" lon="2.509532195">
        <ele>272.19</ele>
        <time>2013-06-30T10:54:18Z</time>
      </trkpt>
      <trkpt lat="41.633247748" lon="2.509550467">
        <ele>274.59</ele>
        <time>2013-06-30T10:54:29Z</time>
      </trkpt>
      <trkpt lat="41.633128138" lon="2.509546276">
        <ele>276.04</ele>
        <time>2013-06-30T10:54:38Z</time>
      </trkpt>
      <trkpt lat="41.632969050" lon="2.509552982">
        <ele>276.52</ele>
        <time>2013-06-30T10:54:46Z</time>
      </trkpt>
      <trkpt lat="41.632829659" lon="2.509553066">
        <ele>277.96</ele>
        <time>2013-06-30T10:54:54Z</time>
      </trkpt>
      <trkpt lat="41.632727148" lon="2.509530183">
        <ele>278.92</ele>
        <time>2013-06-30T10:55:02Z</time>
      </trkpt>
      <trkpt lat="41.632569401" lon="2.509488776">
        <ele>278.92</ele>
        <time>2013-06-30T10:55:10Z</time>
      </trkpt>
      <trkpt lat="41.632429088" lon="2.509510486">
        <ele>279.40</ele>
        <time>2013-06-30T10:55:18Z</time>
      </trkpt>
      <trkpt lat="41.632267485" lon="2.509522304">
        <ele>280.36</ele>
        <time>2013-06-30T10:55:28Z</time>
      </trkpt>
      <trkpt lat="41.632136392" lon="2.509544684">
        <ele>281.32</ele>
        <time>2013-06-30T10:55:36Z</time>
      </trkpt>
      <trkpt lat="41.632005550" lon="2.509557927">
        <ele>282.28</ele>
        <time>2013-06-30T10:55:44Z</time>
      </trkpt>
      <trkpt lat="41.631847132" lon="2.509496404">
        <ele>283.25</ele>
        <time>2013-06-30T10:55:53Z</time>
      </trkpt>
      <trkpt lat="41.631773874" lon="2.509430606">
        <ele>283.73</ele>
        <time>2013-06-30T10:56:00Z</time>
      </trkpt>
      <trkpt lat="41.631728612" lon="2.509404287">
        <ele>284.21</ele>
        <time>2013-06-30T10:56:04Z</time>
      </trkpt>
      <trkpt lat="41.631624425" lon="2.509343183">
        <ele>286.13</ele>
        <time>2013-06-30T10:56:12Z</time>
      </trkpt>
      <trkpt lat="41.631538678" lon="2.509304626">
        <ele>287.57</ele>
        <time>2013-06-30T10:56:19Z</time>
      </trkpt>
      <trkpt lat="41.631375063" lon="2.509279648">
        <ele>288.05</ele>
        <time>2013-06-30T10:56:28Z</time>
      </trkpt>
      <trkpt lat="41.631246820" lon="2.509238660">
        <ele>289.97</ele>
        <time>2013-06-30T10:56:36Z</time>
      </trkpt>
      <trkpt lat="41.631116063" lon="2.509174287">
        <ele>290.94</ele>
        <time>2013-06-30T10:56:44Z</time>
      </trkpt>
      <trkpt lat="41.631017072" lon="2.509045793">
        <ele>292.38</ele>
        <time>2013-06-30T10:56:53Z</time>
      </trkpt>
      <trkpt lat="41.630909113" lon="2.508962561">
        <ele>294.78</ele>
        <time>2013-06-30T10:57:01Z</time>
      </trkpt>
      <trkpt lat="41.630826300" lon="2.508875556">
        <ele>295.26</ele>
        <time>2013-06-30T10:57:08Z</time>
      </trkpt>
      <trkpt lat="41.630704343" lon="2.508779332">
        <ele>296.70</ele>
        <time>2013-06-30T10:57:16Z</time>
      </trkpt>
      <trkpt lat="41.630588506" lon="2.508584537">
        <ele>297.18</ele>
        <time>2013-06-30T10:57:25Z</time>
      </trkpt>
      <trkpt lat="41.630523294" lon="2.508415977">
        <ele>298.63</ele>
        <time>2013-06-30T10:57:34Z</time>
      </trkpt>
      <trkpt lat="41.630463531" lon="2.508296535">
        <ele>299.59</ele>
        <time>2013-06-30T10:57:43Z</time>
      </trkpt>
      <trkpt lat="41.630473003" lon="2.508275580">
        <ele>300.07</ele>
        <time>2013-06-30T10:57:44Z</time>
      </trkpt>
      <trkpt lat="41.630466214" lon="2.508190084">
        <ele>300.55</ele>
        <time>2013-06-30T10:57:49Z</time>
      </trkpt>
      <trkpt lat="41.630456239" lon="2.508076174">
        <ele>302.47</ele>
        <time>2013-06-30T10:57:56Z</time>
      </trkpt>
      <trkpt lat="41.630443163" lon="2.508040551">
        <ele>302.47</ele>
        <time>2013-06-30T10:57:58Z</time>
      </trkpt>
      <trkpt lat="41.630340066" lon="2.507960755">
        <ele>304.39</ele>
        <time>2013-06-30T10:58:06Z</time>
      </trkpt>
      <trkpt lat="41.630288266" lon="2.507909458">
        <ele>305.36</ele>
        <time>2013-06-30T10:58:11Z</time>
      </trkpt>
      <trkpt lat="41.630199921" lon="2.507800410">
        <ele>307.76</ele>
        <time>2013-06-30T10:58:21Z</time>
      </trkpt>
      <trkpt lat="41.630148204" lon="2.507712064">
        <ele>308.24</ele>
        <time>2013-06-30T10:58:29Z</time>
      </trkpt>
      <trkpt lat="41.630043514" lon="2.507622713">
        <ele>310.16</ele>
        <time>2013-06-30T10:58:38Z</time>
      </trkpt>
      <trkpt lat="41.629957181" lon="2.507567896">
        <ele>312.09</ele>
        <time>2013-06-30T10:58:46Z</time>
      </trkpt>
      <trkpt lat="41.629857352" lon="2.507508971">
        <ele>312.57</ele>
        <time>2013-06-30T10:58:53Z</time>
      </trkpt>
      <trkpt lat="41.629812677" lon="2.507468235">
        <ele>313.53</ele>
        <time>2013-06-30T10:58:59Z</time>
      </trkpt>
      <trkpt lat="41.629716369" lon="2.507404784">
        <ele>315.93</ele>
        <time>2013-06-30T10:59:07Z</time>
      </trkpt>
      <trkpt lat="41.629647302" lon="2.507328592">
        <ele>316.89</ele>
        <time>2013-06-30T10:59:15Z</time>
      </trkpt>
      <trkpt lat="41.629630286" lon="2.507306045">
        <ele>316.41</ele>
        <time>2013-06-30T10:59:17Z</time>
      </trkpt>
      <trkpt lat="41.629532889" lon="2.507189034">
        <ele>317.37</ele>
        <time>2013-06-30T10:59:25Z</time>
      </trkpt>
      <trkpt lat="41.629452255" lon="2.507158104">
        <ele>317.85</ele>
        <time>2013-06-30T10:59:30Z</time>
      </trkpt>
      <trkpt lat="41.629370615" lon="2.507059701">
        <ele>318.33</ele>
        <time>2013-06-30T10:59:38Z</time>
      </trkpt>
      <trkpt lat="41.629360976" lon="2.507050146">
        <ele>318.33</ele>
        <time>2013-06-30T10:59:39Z</time>
      </trkpt>
      <trkpt lat="41.629253101" lon="2.506930703">
        <ele>319.78</ele>
        <time>2013-06-30T10:59:47Z</time>
      </trkpt>
      <trkpt lat="41.629228207" lon="2.506894829">
        <ele>320.26</ele>
        <time>2013-06-30T10:59:49Z</time>
      </trkpt>
      <trkpt lat="41.629123265" lon="2.506801371">
        <ele>321.70</ele>
        <time>2013-06-30T10:59:57Z</time>
      </trkpt>
      <trkpt lat="41.629071884" lon="2.506764323">
        <ele>322.18</ele>
        <time>2013-06-30T11:00:01Z</time>
      </trkpt>
      <trkpt lat="41.628944647" lon="2.506783601">
        <ele>322.66</ele>
        <time>2013-06-30T11:00:09Z</time>
      </trkpt>
      <trkpt lat="41.628919250" lon="2.506853841">
        <ele>323.62</ele>
        <time>2013-06-30T11:00:17Z</time>
      </trkpt>
      <trkpt lat="41.628920255" lon="2.506892733">
        <ele>323.62</ele>
        <time>2013-06-30T11:00:20Z</time>
      </trkpt>
      <trkpt lat="41.628959650" lon="2.506985437">
        <ele>324.58</ele>
        <time>2013-06-30T11:00:29Z</time>
      </trkpt>
      <trkpt lat="41.629014384" lon="2.507088199">
        <ele>326.02</ele>
        <time>2013-06-30T11:00:36Z</time>
      </trkpt>
      <trkpt lat="41.629046906" lon="2.507132121">
        <ele>326.50</ele>
        <time>2013-06-30T11:00:39Z</time>
      </trkpt>
      <trkpt lat="41.629078590" lon="2.507213844">
        <ele>327.95</ele>
        <time>2013-06-30T11:00:46Z</time>
      </trkpt>
      <trkpt lat="41.629087893" lon="2.507231027">
        <ele>327.95</ele>
        <time>2013-06-30T11:00:47Z</time>
      </trkpt>
      <trkpt lat="41.629105244" lon="2.507328592">
        <ele>329.39</ele>
        <time>2013-06-30T11:00:52Z</time>
      </trkpt>
      <trkpt lat="41.629050594" lon="2.507373268">
        <ele>330.83</ele>
        <time>2013-06-30T11:00:58Z</time>
      </trkpt>
      <trkpt lat="41.628981192" lon="2.507332197">
        <ele>332.27</ele>
        <time>2013-06-30T11:01:06Z</time>
      </trkpt>
      <trkpt lat="41.628924279" lon="2.507290119">
        <ele>334.20</ele>
        <time>2013-06-30T11:01:13Z</time>
      </trkpt>
      <trkpt lat="41.628840879" lon="2.507242343">
        <ele>336.60</ele>
        <time>2013-06-30T11:01:22Z</time>
      </trkpt>
      <trkpt lat="41.628741553" lon="2.507184759">
        <ele>338.52</ele>
        <time>2013-06-30T11:01:31Z</time>
      </trkpt>
      <trkpt lat="41.628688160" lon="2.507092390">
        <ele>339.96</ele>
        <time>2013-06-30T11:01:39Z</time>
      </trkpt>
      <trkpt lat="41.628632588" lon="2.506960543">
        <ele>341.41</ele>
        <time>2013-06-30T11:01:48Z</time>
      </trkpt>
      <trkpt lat="41.628558409" lon="2.506857110">
        <ele>343.33</ele>
        <time>2013-06-30T11:01:55Z</time>
      </trkpt>
      <trkpt lat="41.628504429" lon="2.506783014">
        <ele>344.77</ele>
        <time>2013-06-30T11:02:01Z</time>
      </trkpt>
      <trkpt lat="41.628462017" lon="2.506701626">
        <ele>346.21</ele>
        <time>2013-06-30T11:02:09Z</time>
      </trkpt>
      <trkpt lat="41.628456569" lon="2.506692154">
        <ele>346.69</ele>
        <time>2013-06-30T11:02:10Z</time>
      </trkpt>
      <trkpt lat="41.628357997" lon="2.506653933">
        <ele>347.65</ele>
        <time>2013-06-30T11:02:19Z</time>
      </trkpt>
      <trkpt lat="41.628264036" lon="2.506611940">
        <ele>348.62</ele>
        <time>2013-06-30T11:02:27Z</time>
      </trkpt>
      <trkpt lat="41.628197652" lon="2.506543376">
        <ele>351.02</ele>
        <time>2013-06-30T11:02:35Z</time>
      </trkpt>
      <trkpt lat="41.628167309" lon="2.506532395">
        <ele>351.50</ele>
        <time>2013-06-30T11:02:38Z</time>
      </trkpt>
      <trkpt lat="41.628059266" lon="2.506481350">
        <ele>352.46</ele>
        <time>2013-06-30T11:02:47Z</time>
      </trkpt>
      <trkpt lat="41.627974609" lon="2.506425945">
        <ele>354.86</ele>
        <time>2013-06-30T11:02:56Z</time>
      </trkpt>
      <trkpt lat="41.627914595" lon="2.506374313">
        <ele>356.31</ele>
        <time>2013-06-30T11:03:03Z</time>
      </trkpt>
      <trkpt lat="41.627904955" lon="2.506368194">
        <ele>356.31</ele>
        <time>2013-06-30T11:03:04Z</time>
      </trkpt>
      <trkpt lat="41.627835721" lon="2.506290661">
        <ele>357.27</ele>
        <time>2013-06-30T11:03:11Z</time>
      </trkpt>
      <trkpt lat="41.627766654" lon="2.506252188">
        <ele>357.75</ele>
        <time>2013-06-30T11:03:17Z</time>
      </trkpt>
      <trkpt lat="41.627708400" lon="2.506235508">
        <ele>358.23</ele>
        <time>2013-06-30T11:03:21Z</time>
      </trkpt>
      <trkpt lat="41.627602536" lon="2.506208351">
        <ele>359.67</ele>
        <time>2013-06-30T11:03:29Z</time>
      </trkpt>
      <trkpt lat="41.627500612" lon="2.506202316">
        <ele>359.67</ele>
        <time>2013-06-30T11:03:35Z</time>
      </trkpt>
      <trkpt lat="41.627355522" lon="2.506183373">
        <ele>361.59</ele>
        <time>2013-06-30T11:03:46Z</time>
      </trkpt>
      <trkpt lat="41.627275223" lon="2.506176248">
        <ele>362.55</ele>
        <time>2013-06-30T11:03:52Z</time>
      </trkpt>
      <trkpt lat="41.627161313" lon="2.506192928">
        <ele>363.04</ele>
        <time>2013-06-30T11:03:59Z</time>
      </trkpt>
      <trkpt lat="41.627058048" lon="2.506243639">
        <ele>365.44</ele>
        <time>2013-06-30T11:04:07Z</time>
      </trkpt>
      <trkpt lat="41.626977163" lon="2.506336762">
        <ele>366.88</ele>
        <time>2013-06-30T11:04:16Z</time>
      </trkpt>
      <trkpt lat="41.626962830" lon="2.506350676">
        <ele>367.36</ele>
        <time>2013-06-30T11:04:18Z</time>
      </trkpt>
      <trkpt lat="41.626874317" lon="2.506424185">
        <ele>368.80</ele>
        <time>2013-06-30T11:04:26Z</time>
      </trkpt>
      <trkpt lat="41.626803573" lon="2.506446313">
        <ele>369.76</ele>
        <time>2013-06-30T11:04:31Z</time>
      </trkpt>
      <trkpt lat="41.626724448" lon="2.506387221">
        <ele>370.24</ele>
        <time>2013-06-30T11:04:39Z</time>
      </trkpt>
      <trkpt lat="41.626701985" lon="2.506353190">
        <ele>371.21</ele>
        <time>2013-06-30T11:04:42Z</time>
      </trkpt>
      <trkpt lat="41.626683377" lon="2.506267024">
        <ele>372.17</ele>
        <time>2013-06-30T11:04:48Z</time>
      </trkpt>
      <trkpt lat="41.626707517" lon="2.506134758">
        <ele>373.61</ele>
        <time>2013-06-30T11:04:56Z</time>
      </trkpt>
      <trkpt lat="41.626703913" lon="2.506121095">
        <ele>373.61</ele>
        <time>2013-06-30T11:04:57Z</time>
      </trkpt>
      <trkpt lat="41.626659824" lon="2.506051190">
        <ele>373.61</ele>
        <time>2013-06-30T11:05:02Z</time>
      </trkpt>
      <trkpt lat="41.626576927" lon="2.505944070">
        <ele>374.57</ele>
        <time>2013-06-30T11:05:09Z</time>
      </trkpt>
      <trkpt lat="41.626521271" lon="2.505888749">
        <ele>374.57</ele>
        <time>2013-06-30T11:05:13Z</time>
      </trkpt>
      <trkpt lat="41.626393112" lon="2.505779449">
        <ele>375.53</ele>
        <time>2013-06-30T11:05:21Z</time>
      </trkpt>
      <trkpt lat="41.626386825" lon="2.505767798">
        <ele>375.53</ele>
        <time>2013-06-30T11:05:22Z</time>
      </trkpt>
      <trkpt lat="41.626350615" lon="2.505699067">
        <ele>376.01</ele>
        <time>2013-06-30T11:05:27Z</time>
      </trkpt>
      <trkpt lat="41.626346341" lon="2.505618097">
        <ele>376.49</ele>
        <time>2013-06-30T11:05:31Z</time>
      </trkpt>
      <trkpt lat="41.626394453" lon="2.505471079">
        <ele>377.45</ele>
        <time>2013-06-30T11:05:40Z</time>
      </trkpt>
      <trkpt lat="41.626403421" lon="2.505460434">
        <ele>377.45</ele>
        <time>2013-06-30T11:05:41Z</time>
      </trkpt>
      <trkpt lat="41.626461843" lon="2.505273182">
        <ele>379.38</ele>
        <time>2013-06-30T11:05:51Z</time>
      </trkpt>
      <trkpt lat="41.626462514" lon="2.505247366">
        <ele>379.38</ele>
        <time>2013-06-30T11:05:52Z</time>
      </trkpt>
      <trkpt lat="41.626436781" lon="2.505148962">
        <ele>379.86</ele>
        <time>2013-06-30T11:05:57Z</time>
      </trkpt>
      <trkpt lat="41.626395291" lon="2.505177125">
        <ele>380.34</ele>
        <time>2013-06-30T11:06:01Z</time>
      </trkpt>
      <trkpt lat="41.626319602" lon="2.505287431">
        <ele>382.26</ele>
        <time>2013-06-30T11:06:10Z</time>
      </trkpt>
      <trkpt lat="41.626224049" lon="2.505312158">
        <ele>384.18</ele>
        <time>2013-06-30T11:06:18Z</time>
      </trkpt>
      <trkpt lat="41.626146432" lon="2.505318612">
        <ele>384.66</ele>
        <time>2013-06-30T11:06:24Z</time>
      </trkpt>
      <trkpt lat="41.626063787" lon="2.505390110">
        <ele>385.63</ele>
        <time>2013-06-30T11:06:32Z</time>
      </trkpt>
      <trkpt lat="41.626011986" lon="2.505459093">
        <ele>385.63</ele>
        <time>2013-06-30T11:06:36Z</time>
      </trkpt>
      <trkpt lat="41.626004694" lon="2.505583480">
        <ele>387.07</ele>
        <time>2013-06-30T11:06:44Z</time>
      </trkpt>
      <trkpt lat="41.626049789" lon="2.505678615">
        <ele>388.51</ele>
        <time>2013-06-30T11:06:51Z</time>
      </trkpt>
      <trkpt lat="41.626081053" lon="2.505822532">
        <ele>390.43</ele>
        <time>2013-06-30T11:07:00Z</time>
      </trkpt>
      <trkpt lat="41.626072839" lon="2.505995786">
        <ele>391.39</ele>
        <time>2013-06-30T11:07:08Z</time>
      </trkpt>
      <trkpt lat="41.626073510" lon="2.506141044">
        <ele>392.36</ele>
        <time>2013-06-30T11:07:16Z</time>
      </trkpt>
      <trkpt lat="41.626000503" lon="2.506246489">
        <ele>393.80</ele>
        <time>2013-06-30T11:07:25Z</time>
      </trkpt>
      <trkpt lat="41.625978794" lon="2.506273814">
        <ele>393.80</ele>
        <time>2013-06-30T11:07:27Z</time>
      </trkpt>
      <trkpt lat="41.625934538" lon="2.506441871">
        <ele>393.80</ele>
        <time>2013-06-30T11:07:35Z</time>
      </trkpt>
      <trkpt lat="41.625924144" lon="2.506480595">
        <ele>394.28</ele>
        <time>2013-06-30T11:07:37Z</time>
      </trkpt>
      <trkpt lat="41.625917690" lon="2.506612275">
        <ele>394.76</ele>
        <time>2013-06-30T11:07:44Z</time>
      </trkpt>
      <trkpt lat="41.625885504" lon="2.506788882">
        <ele>396.68</ele>
        <time>2013-06-30T11:07:53Z</time>
      </trkpt>
      <trkpt lat="41.625862118" lon="2.506928524">
        <ele>398.12</ele>
        <time>2013-06-30T11:08:01Z</time>
      </trkpt>
      <trkpt lat="41.625794057" lon="2.507054923">
        <ele>399.57</ele>
        <time>2013-06-30T11:08:10Z</time>
      </trkpt>
      <trkpt lat="41.625739491" lon="2.507224824">
        <ele>401.01</ele>
        <time>2013-06-30T11:08:18Z</time>
      </trkpt>
      <trkpt lat="41.625699425" lon="2.507401934">
        <ele>401.49</ele>
        <time>2013-06-30T11:08:25Z</time>
      </trkpt>
      <trkpt lat="41.625633124" lon="2.507596143">
        <ele>402.45</ele>
        <time>2013-06-30T11:08:34Z</time>
      </trkpt>
      <trkpt lat="41.625511671" lon="2.507790938">
        <ele>405.33</ele>
        <time>2013-06-30T11:08:45Z</time>
      </trkpt>
      <trkpt lat="41.625474455" lon="2.507849528">
        <ele>406.29</ele>
        <time>2013-06-30T11:08:50Z</time>
      </trkpt>
      <trkpt lat="41.625539750" lon="2.507905100">
        <ele>405.81</ele>
        <time>2013-06-30T11:08:57Z</time>
      </trkpt>
      <trkpt lat="41.625710070" lon="2.507920606">
        <ele>407.74</ele>
        <time>2013-06-30T11:09:09Z</time>
      </trkpt>
      <trkpt lat="41.625818281" lon="2.507931838">
        <ele>408.22</ele>
        <time>2013-06-30T11:09:16Z</time>
      </trkpt>
      <trkpt lat="41.625947865" lon="2.507925552">
        <ele>408.22</ele>
        <time>2013-06-30T11:09:25Z</time>
      </trkpt>
      <trkpt lat="41.626056494" lon="2.507902669">
        <ele>409.18</ele>
        <time>2013-06-30T11:09:33Z</time>
      </trkpt>
      <trkpt lat="41.626173757" lon="2.507868052">
        <ele>409.66</ele>
        <time>2013-06-30T11:09:40Z</time>
      </trkpt>
      <trkpt lat="41.626322285" lon="2.507820275">
        <ele>411.10</ele>
        <time>2013-06-30T11:09:49Z</time>
      </trkpt>
      <trkpt lat="41.626426388" lon="2.507796386">
        <ele>411.58</ele>
        <time>2013-06-30T11:09:55Z</time>
      </trkpt>
      <trkpt lat="41.626621770" lon="2.507810468">
        <ele>413.02</ele>
        <time>2013-06-30T11:10:04Z</time>
      </trkpt>
      <trkpt lat="41.626739536" lon="2.507870147">
        <ele>413.98</ele>
        <time>2013-06-30T11:10:10Z</time>
      </trkpt>
      <trkpt lat="41.626771387" lon="2.507998390">
        <ele>414.95</ele>
        <time>2013-06-30T11:10:16Z</time>
      </trkpt>
      <trkpt lat="41.626702404" lon="2.508191677">
        <ele>416.87</ele>
        <time>2013-06-30T11:10:26Z</time>
      </trkpt>
      <trkpt lat="41.626667787" lon="2.508385969">
        <ele>417.35</ele>
        <time>2013-06-30T11:10:35Z</time>
      </trkpt>
      <trkpt lat="41.626611879" lon="2.508549249">
        <ele>418.79</ele>
        <time>2013-06-30T11:10:43Z</time>
      </trkpt>
      <trkpt lat="41.626530240" lon="2.508697441">
        <ele>419.75</ele>
        <time>2013-06-30T11:10:52Z</time>
      </trkpt>
      <trkpt lat="41.626445918" lon="2.508865079">
        <ele>420.71</ele>
        <time>2013-06-30T11:11:00Z</time>
      </trkpt>
      <trkpt lat="41.626422951" lon="2.509103377">
        <ele>420.71</ele>
        <time>2013-06-30T11:11:08Z</time>
      </trkpt>
      <trkpt lat="41.626466034" lon="2.509369753">
        <ele>421.68</ele>
        <time>2013-06-30T11:11:17Z</time>
      </trkpt>
      <trkpt lat="41.626440637" lon="2.509590114">
        <ele>422.16</ele>
        <time>2013-06-30T11:11:25Z</time>
      </trkpt>
      <trkpt lat="41.626353046" lon="2.509820700">
        <ele>423.12</ele>
        <time>2013-06-30T11:11:35Z</time>
      </trkpt>
      <trkpt lat="41.626295714" lon="2.509974172">
        <ele>424.08</ele>
        <time>2013-06-30T11:11:42Z</time>
      </trkpt>
      <trkpt lat="41.626207201" lon="2.510217164">
        <ele>425.52</ele>
        <time>2013-06-30T11:11:52Z</time>
      </trkpt>
      <trkpt lat="41.626129836" lon="2.510446912">
        <ele>426.00</ele>
        <time>2013-06-30T11:12:01Z</time>
      </trkpt>
      <trkpt lat="41.626048196" lon="2.510679929">
        <ele>427.92</ele>
        <time>2013-06-30T11:12:11Z</time>
      </trkpt>
      <trkpt lat="41.625991954" lon="2.510866761">
        <ele>429.37</ele>
        <time>2013-06-30T11:12:20Z</time>
      </trkpt>
      <trkpt lat="41.625903525" lon="2.511083350">
        <ele>430.81</ele>
        <time>2013-06-30T11:12:30Z</time>
      </trkpt>
      <trkpt lat="41.625826243" lon="2.511312092">
        <ele>432.73</ele>
        <time>2013-06-30T11:12:41Z</time>
      </trkpt>
      <trkpt lat="41.625799924" lon="2.511509150">
        <ele>434.17</ele>
        <time>2013-06-30T11:12:50Z</time>
      </trkpt>
      <trkpt lat="41.625872344" lon="2.511662874">
        <ele>435.13</ele>
        <time>2013-06-30T11:12:58Z</time>
      </trkpt>
      <trkpt lat="41.626009891" lon="2.511708388">
        <ele>437.06</ele>
        <time>2013-06-30T11:13:06Z</time>
      </trkpt>
      <trkpt lat="41.626072001" lon="2.511728756">
        <ele>438.50</ele>
        <time>2013-06-30T11:13:10Z</time>
      </trkpt>
      <trkpt lat="41.626171075" lon="2.511807714">
        <ele>439.46</ele>
        <time>2013-06-30T11:13:17Z</time>
      </trkpt>
      <trkpt lat="41.626237041" lon="2.511947692">
        <ele>440.90</ele>
        <time>2013-06-30T11:13:25Z</time>
      </trkpt>
      <trkpt lat="41.626274256" lon="2.512089932">
        <ele>441.86</ele>
        <time>2013-06-30T11:13:32Z</time>
      </trkpt>
      <trkpt lat="41.626304934" lon="2.512228988">
        <ele>443.31</ele>
        <time>2013-06-30T11:13:40Z</time>
      </trkpt>
      <trkpt lat="41.626335025" lon="2.512397548">
        <ele>443.79</ele>
        <time>2013-06-30T11:13:48Z</time>
      </trkpt>
      <trkpt lat="41.626341563" lon="2.512447253">
        <ele>444.27</ele>
        <time>2013-06-30T11:13:50Z</time>
      </trkpt>
      <trkpt lat="41.626344077" lon="2.512687227">
        <ele>445.23</ele>
        <time>2013-06-30T11:13:59Z</time>
      </trkpt>
      <trkpt lat="41.626355561" lon="2.512811950">
        <ele>446.19</ele>
        <time>2013-06-30T11:14:04Z</time>
      </trkpt>
      <trkpt lat="41.626437200" lon="2.512910269">
        <ele>446.67</ele>
        <time>2013-06-30T11:14:10Z</time>
      </trkpt>
      <trkpt lat="41.626581369" lon="2.512908090">
        <ele>448.11</ele>
        <time>2013-06-30T11:14:18Z</time>
      </trkpt>
      <trkpt lat="41.626780272" lon="2.512934661">
        <ele>448.59</ele>
        <time>2013-06-30T11:14:27Z</time>
      </trkpt>
      <trkpt lat="41.626936175" lon="2.512997860">
        <ele>449.55</ele>
        <time>2013-06-30T11:14:35Z</time>
      </trkpt>
      <trkpt lat="41.627066514" lon="2.513135491">
        <ele>450.03</ele>
        <time>2013-06-30T11:14:43Z</time>
      </trkpt>
      <trkpt lat="41.627144968" lon="2.513292987">
        <ele>450.52</ele>
        <time>2013-06-30T11:14:50Z</time>
      </trkpt>
      <trkpt lat="41.627241947" lon="2.513497170">
        <ele>451.96</ele>
        <time>2013-06-30T11:14:59Z</time>
      </trkpt>
      <trkpt lat="41.627341105" lon="2.513694480">
        <ele>451.00</ele>
        <time>2013-06-30T11:15:04Z</time>
      </trkpt>
      <trkpt lat="41.627393576" lon="2.513796153">
        <ele>450.52</ele>
        <time>2013-06-30T11:15:06Z</time>
      </trkpt>
      <trkpt lat="41.627426936" lon="2.513994636">
        <ele>450.03</ele>
        <time>2013-06-30T11:15:09Z</time>
      </trkpt>
      <trkpt lat="41.627468929" lon="2.514285488">
        <ele>447.63</ele>
        <time>2013-06-30T11:15:13Z</time>
      </trkpt>
      <trkpt lat="41.627437748" lon="2.514756970">
        <ele>445.23</ele>
        <time>2013-06-30T11:15:19Z</time>
      </trkpt>
      <trkpt lat="41.627402628" lon="2.514884040">
        <ele>444.75</ele>
        <time>2013-06-30T11:15:21Z</time>
      </trkpt>
      <trkpt lat="41.627298189" lon="2.515124349">
        <ele>442.34</ele>
        <time>2013-06-30T11:15:25Z</time>
      </trkpt>
      <trkpt lat="41.627166677" lon="2.515294250">
        <ele>439.94</ele>
        <time>2013-06-30T11:15:30Z</time>
      </trkpt>
      <trkpt lat="41.627085457" lon="2.515386451">
        <ele>438.98</ele>
        <time>2013-06-30T11:15:35Z</time>
      </trkpt>
      <trkpt lat="41.627045643" lon="2.515407238">
        <ele>438.02</ele>
        <time>2013-06-30T11:15:38Z</time>
      </trkpt>
      <trkpt lat="41.626989652" lon="2.515446214">
        <ele>437.06</ele>
        <time>2013-06-30T11:15:47Z</time>
      </trkpt>
      <trkpt lat="41.626983868" lon="2.515453255">
        <ele>437.06</ele>
        <time>2013-06-30T11:15:56Z</time>
      </trkpt>
      <trkpt lat="41.626892170" lon="2.515510587">
        <ele>436.58</ele>
        <time>2013-06-30T11:16:00Z</time>
      </trkpt>
      <trkpt lat="41.626663512" lon="2.515620139">
        <ele>433.21</ele>
        <time>2013-06-30T11:16:05Z</time>
      </trkpt>
      <trkpt lat="41.626328152" lon="2.515802529">
        <ele>428.40</ele>
        <time>2013-06-30T11:16:11Z</time>
      </trkpt>
      <trkpt lat="41.626266629" lon="2.515835554">
        <ele>427.44</ele>
        <time>2013-06-30T11:16:12Z</time>
      </trkpt>
      <trkpt lat="41.626169231" lon="2.515912499">
        <ele>426.96</ele>
        <time>2013-06-30T11:16:14Z</time>
      </trkpt>
      <trkpt lat="41.626086837" lon="2.516059350">
        <ele>426.00</ele>
        <time>2013-06-30T11:16:17Z</time>
      </trkpt>
      <trkpt lat="41.626022799" lon="2.516251883">
        <ele>425.04</ele>
        <time>2013-06-30T11:16:21Z</time>
      </trkpt>
      <trkpt lat="41.625935963" lon="2.516265629">
        <ele>423.12</ele>
        <time>2013-06-30T11:16:26Z</time>
      </trkpt>
      <trkpt lat="41.625967395" lon="2.516153647">
        <ele>422.16</ele>
        <time>2013-06-30T11:16:34Z</time>
      </trkpt>
      <trkpt lat="41.626030510" lon="2.516010819">
        <ele>421.68</ele>
        <time>2013-06-30T11:16:40Z</time>
      </trkpt>
      <trkpt lat="41.626131596" lon="2.515723990">
        <ele>419.27</ele>
        <time>2013-06-30T11:16:45Z</time>
      </trkpt>
      <trkpt lat="41.626242070" lon="2.515522741">
        <ele>417.83</ele>
        <time>2013-06-30T11:16:48Z</time>
      </trkpt>
      <trkpt lat="41.626407445" lon="2.515198864">
        <ele>413.98</ele>
        <time>2013-06-30T11:16:52Z</time>
      </trkpt>
      <trkpt lat="41.626442565" lon="2.515124517">
        <ele>413.02</ele>
        <time>2013-06-30T11:16:53Z</time>
      </trkpt>
      <trkpt lat="41.626555469" lon="2.514943048">
        <ele>410.62</ele>
        <time>2013-06-30T11:16:56Z</time>
      </trkpt>
      <trkpt lat="41.626607604" lon="2.514644653">
        <ele>407.74</ele>
        <time>2013-06-30T11:17:00Z</time>
      </trkpt>
      <trkpt lat="41.626488581" lon="2.514450025">
        <ele>406.29</ele>
        <time>2013-06-30T11:17:03Z</time>
      </trkpt>
      <trkpt lat="41.626380287" lon="2.514331002">
        <ele>405.33</ele>
        <time>2013-06-30T11:17:05Z</time>
      </trkpt>
      <trkpt lat="41.626151042" lon="2.514187085">
        <ele>402.45</ele>
        <time>2013-06-30T11:17:09Z</time>
      </trkpt>
      <trkpt lat="41.626028080" lon="2.514201585">
        <ele>400.53</ele>
        <time>2013-06-30T11:17:11Z</time>
      </trkpt>
      <trkpt lat="41.625850635" lon="2.514133357">
        <ele>397.16</ele>
        <time>2013-06-30T11:17:14Z</time>
      </trkpt>
      <trkpt lat="41.625674615" lon="2.514047610">
        <ele>395.72</ele>
        <time>2013-06-30T11:17:17Z</time>
      </trkpt>
      <trkpt lat="41.625399940" lon="2.514032858">
        <ele>390.91</ele>
        <time>2013-06-30T11:17:21Z</time>
      </trkpt>
      <trkpt lat="41.625270020" lon="2.514033696">
        <ele>387.55</ele>
        <time>2013-06-30T11:17:23Z</time>
      </trkpt>
      <trkpt lat="41.625160804" lon="2.514060183">
        <ele>385.15</ele>
        <time>2013-06-30T11:17:25Z</time>
      </trkpt>
      <trkpt lat="41.624938600" lon="2.514078036">
        <ele>379.86</ele>
        <time>2013-06-30T11:17:29Z</time>
      </trkpt>
      <trkpt lat="41.624792084" lon="2.514031852">
        <ele>376.49</ele>
        <time>2013-06-30T11:17:34Z</time>
      </trkpt>
      <trkpt lat="41.624805411" lon="2.513965802">
        <ele>375.53</ele>
        <time>2013-06-30T11:17:39Z</time>
      </trkpt>
      <trkpt lat="41.624805328" lon="2.513958342">
        <ele>375.53</ele>
        <time>2013-06-30T11:17:43Z</time>
      </trkpt>
      <trkpt lat="41.624826450" lon="2.513796991">
        <ele>375.05</ele>
        <time>2013-06-30T11:17:49Z</time>
      </trkpt>
      <trkpt lat="41.624866348" lon="2.513662964">
        <ele>374.09</ele>
        <time>2013-06-30T11:17:52Z</time>
      </trkpt>
      <trkpt lat="41.624935331" lon="2.513509575">
        <ele>372.65</ele>
        <time>2013-06-30T11:17:55Z</time>
      </trkpt>
      <trkpt lat="41.624985622" lon="2.513337243">
        <ele>370.73</ele>
        <time>2013-06-30T11:17:58Z</time>
      </trkpt>
      <trkpt lat="41.624982521" lon="2.513035243">
        <ele>368.80</ele>
        <time>2013-06-30T11:18:03Z</time>
      </trkpt>
      <trkpt lat="41.624881687" lon="2.512772974">
        <ele>367.84</ele>
        <time>2013-06-30T11:18:08Z</time>
      </trkpt>
      <trkpt lat="41.624786636" lon="2.512706924">
        <ele>366.88</ele>
        <time>2013-06-30T11:18:10Z</time>
      </trkpt>
      <trkpt lat="41.624604581" lon="2.512641965">
        <ele>364.96</ele>
        <time>2013-06-30T11:18:13Z</time>
      </trkpt>
      <trkpt lat="41.624501148" lon="2.512601899">
        <ele>363.04</ele>
        <time>2013-06-30T11:18:15Z</time>
      </trkpt>
      <trkpt lat="41.624342982" lon="2.512571808">
        <ele>360.15</ele>
        <time>2013-06-30T11:18:20Z</time>
      </trkpt>
      <trkpt lat="41.624369972" lon="2.512666104">
        <ele>358.23</ele>
        <time>2013-06-30T11:18:24Z</time>
      </trkpt>
      <trkpt lat="41.624499640" lon="2.512779595">
        <ele>355.34</ele>
        <time>2013-06-30T11:18:30Z</time>
      </trkpt>
      <trkpt lat="41.624577424" lon="2.512854194">
        <ele>353.90</ele>
        <time>2013-06-30T11:18:33Z</time>
      </trkpt>
      <trkpt lat="41.624587314" lon="2.513071705">
        <ele>351.02</ele>
        <time>2013-06-30T11:18:37Z</time>
      </trkpt>
      <trkpt lat="41.624435015" lon="2.513246467">
        <ele>348.13</ele>
        <time>2013-06-30T11:18:41Z</time>
      </trkpt>
      <trkpt lat="41.624385981" lon="2.513269518">
        <ele>348.13</ele>
        <time>2013-06-30T11:18:42Z</time>
      </trkpt>
      <trkpt lat="41.624340719" lon="2.513285611">
        <ele>347.17</ele>
        <time>2013-06-30T11:18:43Z</time>
      </trkpt>
      <trkpt lat="41.624163274" lon="2.513324754">
        <ele>344.29</ele>
        <time>2013-06-30T11:18:47Z</time>
      </trkpt>
      <trkpt lat="41.623934448" lon="2.513436318">
        <ele>340.92</ele>
        <time>2013-06-30T11:18:52Z</time>
      </trkpt>
      <trkpt lat="41.623845097" lon="2.513516197">
        <ele>339.48</ele>
        <time>2013-06-30T11:18:54Z</time>
      </trkpt>
      <trkpt lat="41.623628844" lon="2.513614768">
        <ele>335.64</ele>
        <time>2013-06-30T11:18:59Z</time>
      </trkpt>
      <trkpt lat="41.623496493" lon="2.513650056">
        <ele>331.79</ele>
        <time>2013-06-30T11:19:03Z</time>
      </trkpt>
      <trkpt lat="41.623424074" lon="2.513681404">
        <ele>329.39</ele>
        <time>2013-06-30T11:19:05Z</time>
      </trkpt>
      <trkpt lat="41.623351570" lon="2.513592221">
        <ele>326.99</ele>
        <time>2013-06-30T11:19:09Z</time>
      </trkpt>
      <trkpt lat="41.623381158" lon="2.513520640">
        <ele>326.50</ele>
        <time>2013-06-30T11:19:11Z</time>
      </trkpt>
      <trkpt lat="41.623542762" lon="2.513255352">
        <ele>322.66</ele>
        <time>2013-06-30T11:19:18Z</time>
      </trkpt>
      <trkpt lat="41.623572098" lon="2.513162732">
        <ele>320.74</ele>
        <time>2013-06-30T11:19:20Z</time>
      </trkpt>
      <trkpt lat="41.623506216" lon="2.513100539">
        <ele>317.85</ele>
        <time>2013-06-30T11:19:24Z</time>
      </trkpt>
      <trkpt lat="41.623362467" lon="2.513208497">
        <ele>315.45</ele>
        <time>2013-06-30T11:19:28Z</time>
      </trkpt>
      <trkpt lat="41.623276804" lon="2.513211934">
        <ele>314.01</ele>
        <time>2013-06-30T11:19:30Z</time>
      </trkpt>
      <trkpt lat="41.623003805" lon="2.513271529">
        <ele>308.72</ele>
        <time>2013-06-30T11:19:35Z</time>
      </trkpt>
      <trkpt lat="41.622959381" lon="2.513300782">
        <ele>307.76</ele>
        <time>2013-06-30T11:19:36Z</time>
      </trkpt>
      <trkpt lat="41.622893751" lon="2.513351828">
        <ele>305.84</ele>
        <time>2013-06-30T11:19:38Z</time>
      </trkpt>
      <trkpt lat="41.622705661" lon="2.513449142">
        <ele>302.47</ele>
        <time>2013-06-30T11:19:42Z</time>
      </trkpt>
      <trkpt lat="41.622568701" lon="2.513642429">
        <ele>299.11</ele>
        <time>2013-06-30T11:19:47Z</time>
      </trkpt>
      <trkpt lat="41.622388071" lon="2.513832530">
        <ele>295.26</ele>
        <time>2013-06-30T11:19:52Z</time>
      </trkpt>
      <trkpt lat="41.622267204" lon="2.513870919">
        <ele>291.90</ele>
        <time>2013-06-30T11:19:56Z</time>
      </trkpt>
      <trkpt lat="41.622128986" lon="2.513907464">
        <ele>289.01</ele>
        <time>2013-06-30T11:20:00Z</time>
      </trkpt>
      <trkpt lat="41.621977609" lon="2.513987092">
        <ele>285.65</ele>
        <time>2013-06-30T11:20:04Z</time>
      </trkpt>
      <trkpt lat="41.621868057" lon="2.514061691">
        <ele>282.28</ele>
        <time>2013-06-30T11:20:07Z</time>
      </trkpt>
      <trkpt lat="41.621755824" lon="2.514131345">
        <ele>279.88</ele>
        <time>2013-06-30T11:20:10Z</time>
      </trkpt>
      <trkpt lat="41.621568991" lon="2.514174176">
        <ele>275.56</ele>
        <time>2013-06-30T11:20:15Z</time>
      </trkpt>
      <trkpt lat="41.621472515" lon="2.514194880">
        <ele>273.63</ele>
        <time>2013-06-30T11:20:18Z</time>
      </trkpt>
      <trkpt lat="41.621324910" lon="2.514428483">
        <ele>268.83</ele>
        <time>2013-06-30T11:20:23Z</time>
      </trkpt>
      <trkpt lat="41.621209072" lon="2.514633421">
        <ele>264.50</ele>
        <time>2013-06-30T11:20:27Z</time>
      </trkpt>
      <trkpt lat="41.621143777" lon="2.514743978">
        <ele>263.06</ele>
        <time>2013-06-30T11:20:29Z</time>
      </trkpt>
      <trkpt lat="41.621076638" lon="2.514819667">
        <ele>261.62</ele>
        <time>2013-06-30T11:20:31Z</time>
      </trkpt>
      <trkpt lat="41.620986533" lon="2.514968781">
        <ele>260.17</ele>
        <time>2013-06-30T11:20:34Z</time>
      </trkpt>
      <trkpt lat="41.620926015" lon="2.515087133">
        <ele>259.69</ele>
        <time>2013-06-30T11:20:36Z</time>
      </trkpt>
      <trkpt lat="41.620689646" lon="2.515443364">
        <ele>256.33</ele>
        <time>2013-06-30T11:20:42Z</time>
      </trkpt>
      <trkpt lat="41.620441374" lon="2.515711501">
        <ele>251.52</ele>
        <time>2013-06-30T11:20:47Z</time>
      </trkpt>
      <trkpt lat="41.620339869" lon="2.515830608">
        <ele>248.64</ele>
        <time>2013-06-30T11:20:49Z</time>
      </trkpt>
      <trkpt lat="41.620245237" lon="2.516012831">
        <ele>245.75</ele>
        <time>2013-06-30T11:20:52Z</time>
      </trkpt>
      <trkpt lat="41.620114060" lon="2.516187677">
        <ele>240.47</ele>
        <time>2013-06-30T11:20:56Z</time>
      </trkpt>
      <trkpt lat="41.620019429" lon="2.516222127">
        <ele>236.62</ele>
        <time>2013-06-30T11:20:59Z</time>
      </trkpt>
      <trkpt lat="41.619982045" lon="2.516221540">
        <ele>235.66</ele>
        <time>2013-06-30T11:21:00Z</time>
      </trkpt>
      <trkpt lat="41.619762188" lon="2.516192120">
        <ele>231.81</ele>
        <time>2013-06-30T11:21:06Z</time>
      </trkpt>
      <trkpt lat="41.619639058" lon="2.516295301">
        <ele>229.89</ele>
        <time>2013-06-30T11:21:10Z</time>
      </trkpt>
      <trkpt lat="41.619520705" lon="2.516398901">
        <ele>227.97</ele>
        <time>2013-06-30T11:21:16Z</time>
      </trkpt>
      <trkpt lat="41.619476533" lon="2.516403176">
        <ele>228.45</ele>
        <time>2013-06-30T11:21:25Z</time>
      </trkpt>
      <trkpt lat="41.619458512" lon="2.516414827">
        <ele>227.97</ele>
        <time>2013-06-30T11:21:26Z</time>
      </trkpt>
      <trkpt lat="41.619415512" lon="2.516596211">
        <ele>227.01</ele>
        <time>2013-06-30T11:21:32Z</time>
      </trkpt>
      <trkpt lat="41.619378800" lon="2.516724035">
        <ele>226.05</ele>
        <time>2013-06-30T11:21:37Z</time>
      </trkpt>
      <trkpt lat="41.619360527" lon="2.516751696">
        <ele>225.57</ele>
        <time>2013-06-30T11:21:38Z</time>
      </trkpt>
      <trkpt lat="41.619264471" lon="2.517012205">
        <ele>223.64</ele>
        <time>2013-06-30T11:21:45Z</time>
      </trkpt>
      <trkpt lat="41.619262040" lon="2.517195601">
        <ele>222.20</ele>
        <time>2013-06-30T11:21:51Z</time>
      </trkpt>
      <trkpt lat="41.619259358" lon="2.517340524">
        <ele>221.72</ele>
        <time>2013-06-30T11:21:55Z</time>
      </trkpt>
      <trkpt lat="41.619214850" lon="2.517490476">
        <ele>220.76</ele>
        <time>2013-06-30T11:21:59Z</time>
      </trkpt>
      <trkpt lat="41.619176041" lon="2.517674292">
        <ele>220.28</ele>
        <time>2013-06-30T11:22:05Z</time>
      </trkpt>
      <trkpt lat="41.619044278" lon="2.517964054">
        <ele>217.40</ele>
        <time>2013-06-30T11:22:13Z</time>
      </trkpt>
      <trkpt lat="41.618991304" lon="2.518049801">
        <ele>216.43</ele>
        <time>2013-06-30T11:22:20Z</time>
      </trkpt>
      <trkpt lat="41.618889967" lon="2.518159185">
        <ele>215.47</ele>
        <time>2013-06-30T11:22:25Z</time>
      </trkpt>
      <trkpt lat="41.618863145" lon="2.518194389">
        <ele>215.47</ele>
        <time>2013-06-30T11:22:26Z</time>
      </trkpt>
      <trkpt lat="41.618756108" lon="2.518611891">
        <ele>213.55</ele>
        <time>2013-06-30T11:22:34Z</time>
      </trkpt>
      <trkpt lat="41.618682012" lon="2.519031992">
        <ele>210.19</ele>
        <time>2013-06-30T11:22:39Z</time>
      </trkpt>
      <trkpt lat="41.618459053" lon="2.519408843">
        <ele>207.30</ele>
        <time>2013-06-30T11:22:45Z</time>
      </trkpt>
      <trkpt lat="41.618397866" lon="2.519440945">
        <ele>206.82</ele>
        <time>2013-06-30T11:22:46Z</time>
      </trkpt>
      <trkpt lat="41.617840804" lon="2.519547479">
        <ele>204.90</ele>
        <time>2013-06-30T11:22:54Z</time>
      </trkpt>
      <trkpt lat="41.617219873" lon="2.519634567">
        <ele>202.01</ele>
        <time>2013-06-30T11:23:02Z</time>
      </trkpt>
      <trkpt lat="41.616709583" lon="2.519751243">
        <ele>199.13</ele>
        <time>2013-06-30T11:23:09Z</time>
      </trkpt>
      <trkpt lat="41.616534736" lon="2.519831207">
        <ele>197.21</ele>
        <time>2013-06-30T11:23:12Z</time>
      </trkpt>
      <trkpt lat="41.616355866" lon="2.519961881">
        <ele>196.73</ele>
        <time>2013-06-30T11:23:18Z</time>
      </trkpt>
      <trkpt lat="41.616333235" lon="2.520002533">
        <ele>197.69</ele>
        <time>2013-06-30T11:23:21Z</time>
      </trkpt>
      <trkpt lat="41.616308090" lon="2.520031618">
        <ele>197.69</ele>
        <time>2013-06-30T11:23:24Z</time>
      </trkpt>
      <trkpt lat="41.616256038" lon="2.520059697">
        <ele>197.69</ele>
        <time>2013-06-30T11:23:31Z</time>
      </trkpt>
      <trkpt lat="41.616248327" lon="2.520086603">
        <ele>197.69</ele>
        <time>2013-06-30T11:23:45Z</time>
      </trkpt>
      <trkpt lat="41.616261989" lon="2.520093309">
        <ele>198.17</ele>
        <time>2013-06-30T11:24:02Z</time>
      </trkpt>
      <trkpt lat="41.616268108" lon="2.520104373">
        <ele>198.17</ele>
        <time>2013-06-30T11:24:16Z</time>
      </trkpt>
      <trkpt lat="41.616260648" lon="2.520115856">
        <ele>198.17</ele>
        <time>2013-06-30T11:24:24Z</time>
      </trkpt>
      <trkpt lat="41.616257882" lon="2.520149216">
        <ele>198.17</ele>
        <time>2013-06-30T11:24:31Z</time>
      </trkpt>
      <trkpt lat="41.616269617" lon="2.520165477">
        <ele>198.17</ele>
        <time>2013-06-30T11:24:48Z</time>
      </trkpt>
      <trkpt lat="41.616267018" lon="2.520168746">
        <ele>198.17</ele>
        <time>2013-06-30T11:25:06Z</time>
      </trkpt>
      <trkpt lat="41.616253523" lon="2.520179475">
        <ele>198.17</ele>
        <time>2013-06-30T11:25:17Z</time>
      </trkpt>
      <trkpt lat="41.616248494" lon="2.520180313">
        <ele>198.17</ele>
        <time>2013-06-30T11:25:34Z</time>
      </trkpt>
      <trkpt lat="41.616242627" lon="2.520179140">
        <ele>198.17</ele>
        <time>2013-06-30T11:25:43Z</time>
      </trkpt>
      <trkpt lat="41.616260480" lon="2.520159861">
        <ele>198.17</ele>
        <time>2013-06-30T11:25:58Z</time>
      </trkpt>
      <trkpt lat="41.616258552" lon="2.520151982">
        <ele>198.17</ele>
        <time>2013-06-30T11:26:13Z</time>
      </trkpt>
      <trkpt lat="41.616244136" lon="2.520136895">
        <ele>198.17</ele>
        <time>2013-06-30T11:26:26Z</time>
      </trkpt>
      <trkpt lat="41.616254864" lon="2.520132620">
        <ele>198.17</ele>
        <time>2013-06-30T11:26:39Z</time>
      </trkpt>
      <trkpt lat="41.616240699" lon="2.520140331">
        <ele>198.17</ele>
        <time>2013-06-30T11:26:53Z</time>
      </trkpt>
      <trkpt lat="41.616232149" lon="2.520146366">
        <ele>198.17</ele>
        <time>2013-06-30T11:27:04Z</time>
      </trkpt>
      <trkpt lat="41.616191330" lon="2.520235214">
        <ele>198.17</ele>
        <time>2013-06-30T11:27:09Z</time>
      </trkpt>
      <trkpt lat="41.616102733" lon="2.520467728">
        <ele>198.17</ele>
        <time>2013-06-30T11:27:17Z</time>
      </trkpt>
      <trkpt lat="41.615990583" lon="2.520791018">
        <ele>196.73</ele>
        <time>2013-06-30T11:27:25Z</time>
      </trkpt>
      <trkpt lat="41.615930820" lon="2.521150435">
        <ele>196.25</ele>
        <time>2013-06-30T11:27:32Z</time>
      </trkpt>
      <trkpt lat="41.615880193" lon="2.521541534">
        <ele>195.28</ele>
        <time>2013-06-30T11:27:39Z</time>
      </trkpt>
      <trkpt lat="41.615821855" lon="2.521788884">
        <ele>195.28</ele>
        <time>2013-06-30T11:27:44Z</time>
      </trkpt>
      <trkpt lat="41.615787657" lon="2.522039503">
        <ele>194.32</ele>
        <time>2013-06-30T11:27:48Z</time>
      </trkpt>
      <trkpt lat="41.615759578" lon="2.522192137">
        <ele>193.84</ele>
        <time>2013-06-30T11:27:50Z</time>
      </trkpt>
      <trkpt lat="41.615664443" lon="2.522881549">
        <ele>191.92</ele>
        <time>2013-06-30T11:27:58Z</time>
      </trkpt>
      <trkpt lat="41.615577774" lon="2.523592167">
        <ele>189.04</ele>
        <time>2013-06-30T11:28:06Z</time>
      </trkpt>
      <trkpt lat="41.615512647" lon="2.524255343">
        <ele>186.15</ele>
        <time>2013-06-30T11:28:13Z</time>
      </trkpt>
      <trkpt lat="41.615460595" lon="2.524994543">
        <ele>183.75</ele>
        <time>2013-06-30T11:28:20Z</time>
      </trkpt>
      <trkpt lat="41.615512395" lon="2.525709352">
        <ele>181.83</ele>
        <time>2013-06-30T11:28:27Z</time>
      </trkpt>
      <trkpt lat="41.615563357" lon="2.526224839">
        <ele>179.42</ele>
        <time>2013-06-30T11:28:33Z</time>
      </trkpt>
      <trkpt lat="41.615603591" lon="2.526784498">
        <ele>177.98</ele>
        <time>2013-06-30T11:28:40Z</time>
      </trkpt>
      <trkpt lat="41.615597136" lon="2.526956411">
        <ele>177.02</ele>
        <time>2013-06-30T11:28:42Z</time>
      </trkpt>
      <trkpt lat="41.615509546" lon="2.527532583">
        <ele>174.14</ele>
        <time>2013-06-30T11:28:49Z</time>
      </trkpt>
      <trkpt lat="41.615487585" lon="2.527576169">
        <ele>173.66</ele>
        <time>2013-06-30T11:28:50Z</time>
      </trkpt>
      <trkpt lat="41.615439138" lon="2.527681027">
        <ele>173.17</ele>
        <time>2013-06-30T11:28:52Z</time>
      </trkpt>
      <trkpt lat="41.615290946" lon="2.528304054">
        <ele>172.69</ele>
        <time>2013-06-30T11:29:00Z</time>
      </trkpt>
      <trkpt lat="41.615215173" lon="2.528692303">
        <ele>171.25</ele>
        <time>2013-06-30T11:29:05Z</time>
      </trkpt>
      <trkpt lat="41.615171336" lon="2.529315414">
        <ele>169.81</ele>
        <time>2013-06-30T11:29:13Z</time>
      </trkpt>
      <trkpt lat="41.615150130" lon="2.530173386">
        <ele>167.41</ele>
        <time>2013-06-30T11:29:23Z</time>
      </trkpt>
      <trkpt lat="41.615150800" lon="2.530423334">
        <ele>166.45</ele>
        <time>2013-06-30T11:29:26Z</time>
      </trkpt>
      <trkpt lat="41.615095731" lon="2.531022137">
        <ele>164.04</ele>
        <time>2013-06-30T11:29:34Z</time>
      </trkpt>
      <trkpt lat="41.615076285" lon="2.531446848">
        <ele>162.60</ele>
        <time>2013-06-30T11:29:41Z</time>
      </trkpt>
      <trkpt lat="41.615155326" lon="2.531605434">
        <ele>162.12</ele>
        <time>2013-06-30T11:29:45Z</time>
      </trkpt>
      <trkpt lat="41.615207546" lon="2.531892765">
        <ele>160.68</ele>
        <time>2013-06-30T11:29:49Z</time>
      </trkpt>
      <trkpt lat="41.615071424" lon="2.532585278">
        <ele>159.72</ele>
        <time>2013-06-30T11:29:58Z</time>
      </trkpt>
      <trkpt lat="41.614859864" lon="2.533346858">
        <ele>157.31</ele>
        <time>2013-06-30T11:30:09Z</time>
      </trkpt>
      <trkpt lat="41.614665991" lon="2.533973908">
        <ele>154.91</ele>
        <time>2013-06-30T11:30:18Z</time>
      </trkpt>
      <trkpt lat="41.614517631" lon="2.534424268">
        <ele>153.47</ele>
        <time>2013-06-30T11:30:24Z</time>
      </trkpt>
      <trkpt lat="41.614266677" lon="2.535187608">
        <ele>151.06</ele>
        <time>2013-06-30T11:30:34Z</time>
      </trkpt>
      <trkpt lat="41.614044389" lon="2.535822537">
        <ele>148.66</ele>
        <time>2013-06-30T11:30:43Z</time>
      </trkpt>
      <trkpt lat="41.613842553" lon="2.536359398">
        <ele>147.70</ele>
        <time>2013-06-30T11:30:51Z</time>
      </trkpt>
      <trkpt lat="41.613718668" lon="2.536600545">
        <ele>145.78</ele>
        <time>2013-06-30T11:30:57Z</time>
      </trkpt>
      <trkpt lat="41.613632335" lon="2.536770530">
        <ele>145.78</ele>
        <time>2013-06-30T11:31:03Z</time>
      </trkpt>
      <trkpt lat="41.613468804" lon="2.536997428">
        <ele>145.30</ele>
        <time>2013-06-30T11:31:10Z</time>
      </trkpt>
      <trkpt lat="41.613304267" lon="2.537198091">
        <ele>144.34</ele>
        <time>2013-06-30T11:31:17Z</time>
      </trkpt>
      <trkpt lat="41.613117770" lon="2.537385929">
        <ele>143.37</ele>
        <time>2013-06-30T11:31:23Z</time>
      </trkpt>
      <trkpt lat="41.612941498" lon="2.537539486">
        <ele>142.89</ele>
        <time>2013-06-30T11:31:28Z</time>
      </trkpt>
      <trkpt lat="41.612804873" lon="2.537674938">
        <ele>142.41</ele>
        <time>2013-06-30T11:31:32Z</time>
      </trkpt>
      <trkpt lat="41.612594236" lon="2.537954977">
        <ele>140.49</ele>
        <time>2013-06-30T11:31:41Z</time>
      </trkpt>
      <trkpt lat="41.612482589" lon="2.538099565">
        <ele>140.01</ele>
        <time>2013-06-30T11:31:44Z</time>
      </trkpt>
      <trkpt lat="41.612384018" lon="2.538260078">
        <ele>139.53</ele>
        <time>2013-06-30T11:31:47Z</time>
      </trkpt>
      <trkpt lat="41.612127364" lon="2.538756874">
        <ele>138.09</ele>
        <time>2013-06-30T11:31:55Z</time>
      </trkpt>
      <trkpt lat="41.612007419" lon="2.538872460">
        <ele>138.09</ele>
        <time>2013-06-30T11:31:58Z</time>
      </trkpt>
      <trkpt lat="41.611797284" lon="2.539125174">
        <ele>137.13</ele>
        <time>2013-06-30T11:32:04Z</time>
      </trkpt>
      <trkpt lat="41.611714220" lon="2.539184351">
        <ele>136.64</ele>
        <time>2013-06-30T11:32:06Z</time>
      </trkpt>
      <trkpt lat="41.611482209" lon="2.539359616">
        <ele>135.20</ele>
        <time>2013-06-30T11:32:12Z</time>
      </trkpt>
      <trkpt lat="41.611452704" lon="2.539426001">
        <ele>135.20</ele>
        <time>2013-06-30T11:32:14Z</time>
      </trkpt>
      <trkpt lat="41.611548845" lon="2.539781310">
        <ele>135.20</ele>
        <time>2013-06-30T11:32:21Z</time>
      </trkpt>
      <trkpt lat="41.611642135" lon="2.540158998">
        <ele>137.13</ele>
        <time>2013-06-30T11:32:29Z</time>
      </trkpt>
      <trkpt lat="41.611670550" lon="2.540491508">
        <ele>138.57</ele>
        <time>2013-06-30T11:32:37Z</time>
      </trkpt>
      <trkpt lat="41.611665772" lon="2.540659985">
        <ele>139.53</ele>
        <time>2013-06-30T11:32:43Z</time>
      </trkpt>
      <trkpt lat="41.611667281" lon="2.540716730">
        <ele>140.49</ele>
        <time>2013-06-30T11:32:48Z</time>
      </trkpt>
      <trkpt lat="41.611554628" lon="2.540790156">
        <ele>140.49</ele>
        <time>2013-06-30T11:32:54Z</time>
      </trkpt>
      <trkpt lat="41.611353127" lon="2.540889397">
        <ele>140.49</ele>
        <time>2013-06-30T11:33:00Z</time>
      </trkpt>
      <trkpt lat="41.611188004" lon="2.540958464">
        <ele>138.57</ele>
        <time>2013-06-30T11:33:04Z</time>
      </trkpt>
      <trkpt lat="41.610762371" lon="2.541129790">
        <ele>135.68</ele>
        <time>2013-06-30T11:33:13Z</time>
      </trkpt>
      <trkpt lat="41.610636139" lon="2.541175723">
        <ele>135.20</ele>
        <time>2013-06-30T11:33:16Z</time>
      </trkpt>
      <trkpt lat="41.610300109" lon="2.541356521">
        <ele>133.76</ele>
        <time>2013-06-30T11:33:25Z</time>
      </trkpt>
      <trkpt lat="41.610273119" lon="2.541519800">
        <ele>133.76</ele>
        <time>2013-06-30T11:33:30Z</time>
      </trkpt>
      <trkpt lat="41.610299941" lon="2.541703280">
        <ele>134.72</ele>
        <time>2013-06-30T11:33:35Z</time>
      </trkpt>
      <trkpt lat="41.610309245" lon="2.541840240">
        <ele>135.68</ele>
        <time>2013-06-30T11:33:39Z</time>
      </trkpt>
      <trkpt lat="41.610180332" lon="2.541915510">
        <ele>137.61</ele>
        <time>2013-06-30T11:33:46Z</time>
      </trkpt>
      <trkpt lat="41.609938262" lon="2.541971920">
        <ele>140.01</ele>
        <time>2013-06-30T11:33:58Z</time>
      </trkpt>
      <trkpt lat="41.609796189" lon="2.542033946">
        <ele>141.93</ele>
        <time>2013-06-30T11:34:06Z</time>
      </trkpt>
      <trkpt lat="41.609650344" lon="2.542085495">
        <ele>143.85</ele>
        <time>2013-06-30T11:34:13Z</time>
      </trkpt>
      <trkpt lat="41.609487316" lon="2.542111982">
        <ele>145.30</ele>
        <time>2013-06-30T11:34:21Z</time>
      </trkpt>
      <trkpt lat="41.609353122" lon="2.542135032">
        <ele>147.22</ele>
        <time>2013-06-30T11:34:28Z</time>
      </trkpt>
      <trkpt lat="41.609206103" lon="2.542142492">
        <ele>148.66</ele>
        <time>2013-06-30T11:34:36Z</time>
      </trkpt>
      <trkpt lat="41.609025138" lon="2.542164536">
        <ele>150.58</ele>
        <time>2013-06-30T11:34:46Z</time>
      </trkpt>
      <trkpt lat="41.608900918" lon="2.542144671">
        <ele>152.03</ele>
        <time>2013-06-30T11:34:53Z</time>
      </trkpt>
      <trkpt lat="41.608762114" lon="2.542171409">
        <ele>153.95</ele>
        <time>2013-06-30T11:35:01Z</time>
      </trkpt>
      <trkpt lat="41.608643929" lon="2.542133356">
        <ele>155.39</ele>
        <time>2013-06-30T11:35:08Z</time>
      </trkpt>
      <trkpt lat="41.608497832" lon="2.542089267">
        <ele>155.87</ele>
        <time>2013-06-30T11:35:16Z</time>
      </trkpt>
      <trkpt lat="41.608330446" lon="2.542027492">
        <ele>157.31</ele>
        <time>2013-06-30T11:35:25Z</time>
      </trkpt>
      <trkpt lat="41.608293398" lon="2.542003855">
        <ele>157.31</ele>
        <time>2013-06-30T11:35:27Z</time>
      </trkpt>
      <trkpt lat="41.608060884" lon="2.541924060">
        <ele>157.79</ele>
        <time>2013-06-30T11:35:37Z</time>
      </trkpt>
      <trkpt lat="41.607833985" lon="2.541819453">
        <ele>156.83</ele>
        <time>2013-06-30T11:35:42Z</time>
      </trkpt>
      <trkpt lat="41.607634664" lon="2.541906877">
        <ele>153.95</ele>
        <time>2013-06-30T11:35:46Z</time>
      </trkpt>
      <trkpt lat="41.607599124" lon="2.542175098">
        <ele>150.58</ele>
        <time>2013-06-30T11:35:49Z</time>
      </trkpt>
      <trkpt lat="41.607657714" lon="2.542575920">
        <ele>146.74</ele>
        <time>2013-06-30T11:35:54Z</time>
      </trkpt>
      <trkpt lat="41.607666766" lon="2.542634510">
        <ele>145.78</ele>
        <time>2013-06-30T11:35:55Z</time>
      </trkpt>
      <trkpt lat="41.607652098" lon="2.542719251">
        <ele>143.85</ele>
        <time>2013-06-30T11:35:57Z</time>
      </trkpt>
      <trkpt lat="41.607546067" lon="2.542686897">
        <ele>141.93</ele>
        <time>2013-06-30T11:36:00Z</time>
      </trkpt>
      <trkpt lat="41.607501894" lon="2.542644484">
        <ele>140.49</ele>
        <time>2013-06-30T11:36:01Z</time>
      </trkpt>
      <trkpt lat="41.607294358" lon="2.542458238">
        <ele>135.20</ele>
        <time>2013-06-30T11:36:06Z</time>
      </trkpt>
      <trkpt lat="41.607144071" lon="2.542399481">
        <ele>130.40</ele>
        <time>2013-06-30T11:36:10Z</time>
      </trkpt>
      <trkpt lat="41.607058240" lon="2.542413060">
        <ele>128.95</ele>
        <time>2013-06-30T11:36:13Z</time>
      </trkpt>
      <trkpt lat="41.607069807" lon="2.542347513">
        <ele>127.99</ele>
        <time>2013-06-30T11:36:16Z</time>
      </trkpt>
      <trkpt lat="41.607085146" lon="2.542341478">
        <ele>128.47</ele>
        <time>2013-06-30T11:36:21Z</time>
      </trkpt>
      <trkpt lat="41.607077100" lon="2.542355644">
        <ele>128.47</ele>
        <time>2013-06-30T11:36:30Z</time>
      </trkpt>
      <trkpt lat="41.607045332" lon="2.542378107">
        <ele>128.47</ele>
        <time>2013-06-30T11:36:44Z</time>
      </trkpt>
      <trkpt lat="41.607022617" lon="2.542387663">
        <ele>127.99</ele>
        <time>2013-06-30T11:36:58Z</time>
      </trkpt>
    </trkseg>
  </trk>
</gpx>
